<?xml version="1.0" encoding="UTF-8" standalone="no" ?>
<gpx xmlns="http://www.topografix.com/GPX/1/1" xmlns:xsi="http://www.w3.org/2001/XMLSchema-instance" xsi:schemaLocation="http://www.topografix.com/GPX/1/1 http://www.topografix.com/GPX/1/1/gpx.xsd" version="1.1" creator="VisuGPX - https://www.visugpx.com">
  <metadata>
    <name>L\'Oeil de Verre de Ginette</name>
    <desc><![CDATA[Départ du parking de Luminy. 
Descente par le sentier ( à la demande de Ginette) jusqu\'à la calanque puis remontée du sentier rouge par l\'Oeil de Verre jusqu\'au GR. Retour par le GR au parking]]></desc>
  </metadata>
  <trk>
    <name><![CDATA[L\'Oeil de Verre de Ginette_1]]></name>
    <trkseg>
      <trkpt lat="43.23178" lon="5.43624">
        <ele>126</ele>
        <time>2014-11-16T10:37:21Z</time>
      </trkpt>
      <trkpt lat="43.23157" lon="5.43649">
        <ele>130</ele>
        <time>2014-11-16T10:41:14Z</time>
      </trkpt>
      <trkpt lat="43.23149" lon="5.43655">
        <ele>126</ele>
        <time>2014-11-16T10:41:24Z</time>
      </trkpt>
      <trkpt lat="43.2314" lon="5.43656">
        <ele>126</ele>
        <time>2014-11-16T10:41:34Z</time>
      </trkpt>
      <trkpt lat="43.23129" lon="5.43659">
        <ele>126</ele>
        <time>2014-11-16T10:41:43Z</time>
      </trkpt>
      <trkpt lat="43.23117" lon="5.43661">
        <ele>126</ele>
        <time>2014-11-16T10:41:53Z</time>
      </trkpt>
      <trkpt lat="43.23106" lon="5.43664">
        <ele>126</ele>
        <time>2014-11-16T10:42:03Z</time>
      </trkpt>
      <trkpt lat="43.231" lon="5.43666">
        <ele>129</ele>
        <time>2014-11-16T10:42:13Z</time>
      </trkpt>
      <trkpt lat="43.23091" lon="5.43667">
        <ele>129</ele>
        <time>2014-11-16T10:42:22Z</time>
      </trkpt>
      <trkpt lat="43.23082" lon="5.43668">
        <ele>129</ele>
        <time>2014-11-16T10:42:33Z</time>
      </trkpt>
      <trkpt lat="43.23074" lon="5.43669">
        <ele>129</ele>
        <time>2014-11-16T10:42:44Z</time>
      </trkpt>
      <trkpt lat="43.23066" lon="5.4367">
        <ele>129</ele>
        <time>2014-11-16T10:42:54Z</time>
      </trkpt>
      <trkpt lat="43.23057" lon="5.43669">
        <ele>129</ele>
        <time>2014-11-16T10:43:04Z</time>
      </trkpt>
      <trkpt lat="43.23049" lon="5.43671">
        <ele>129</ele>
        <time>2014-11-16T10:43:14Z</time>
      </trkpt>
      <trkpt lat="43.23043" lon="5.43673">
        <ele>129</ele>
        <time>2014-11-16T10:43:23Z</time>
      </trkpt>
      <trkpt lat="43.23036" lon="5.43674">
        <ele>129</ele>
        <time>2014-11-16T10:43:32Z</time>
      </trkpt>
      <trkpt lat="43.23027" lon="5.43677">
        <ele>129</ele>
        <time>2014-11-16T10:43:41Z</time>
      </trkpt>
      <trkpt lat="43.23016" lon="5.43679">
        <ele>129</ele>
        <time>2014-11-16T10:43:50Z</time>
      </trkpt>
      <trkpt lat="43.23006" lon="5.43681">
        <ele>131</ele>
        <time>2014-11-16T10:44:01Z</time>
      </trkpt>
      <trkpt lat="43.22992" lon="5.43687">
        <ele>131</ele>
        <time>2014-11-16T10:44:10Z</time>
      </trkpt>
      <trkpt lat="43.22982" lon="5.43694">
        <ele>131</ele>
        <time>2014-11-16T10:44:19Z</time>
      </trkpt>
      <trkpt lat="43.22972" lon="5.437">
        <ele>131</ele>
        <time>2014-11-16T10:44:30Z</time>
      </trkpt>
      <trkpt lat="43.22965" lon="5.43707">
        <ele>131</ele>
        <time>2014-11-16T10:44:41Z</time>
      </trkpt>
      <trkpt lat="43.22961" lon="5.43706">
        <ele>134</ele>
        <time>2014-11-16T10:44:51Z</time>
      </trkpt>
      <trkpt lat="43.22955" lon="5.43703">
        <ele>134</ele>
        <time>2014-11-16T10:45:00Z</time>
      </trkpt>
      <trkpt lat="43.22942" lon="5.43704">
        <ele>135</ele>
        <time>2014-11-16T10:45:09Z</time>
      </trkpt>
      <trkpt lat="43.22935" lon="5.43704">
        <ele>136</ele>
        <time>2014-11-16T10:45:19Z</time>
      </trkpt>
      <trkpt lat="43.22927" lon="5.43705">
        <ele>136</ele>
        <time>2014-11-16T10:45:29Z</time>
      </trkpt>
      <trkpt lat="43.22919" lon="5.43705">
        <ele>136</ele>
        <time>2014-11-16T10:45:38Z</time>
      </trkpt>
      <trkpt lat="43.22913" lon="5.43705">
        <ele>138</ele>
        <time>2014-11-16T10:45:49Z</time>
      </trkpt>
      <trkpt lat="43.22903" lon="5.43704">
        <ele>140</ele>
        <time>2014-11-16T10:45:59Z</time>
      </trkpt>
      <trkpt lat="43.22897" lon="5.43704">
        <ele>142</ele>
        <time>2014-11-16T10:46:08Z</time>
      </trkpt>
      <trkpt lat="43.22884" lon="5.43705">
        <ele>142</ele>
        <time>2014-11-16T10:46:17Z</time>
      </trkpt>
      <trkpt lat="43.22873" lon="5.43708">
        <ele>145</ele>
        <time>2014-11-16T10:46:26Z</time>
      </trkpt>
      <trkpt lat="43.22866" lon="5.43707">
        <ele>145</ele>
        <time>2014-11-16T10:46:35Z</time>
      </trkpt>
      <trkpt lat="43.22857" lon="5.43707">
        <ele>151</ele>
        <time>2014-11-16T10:46:45Z</time>
      </trkpt>
      <trkpt lat="43.22842" lon="5.43711">
        <ele>152</ele>
        <time>2014-11-16T10:46:54Z</time>
      </trkpt>
      <trkpt lat="43.22825" lon="5.43715">
        <ele>152</ele>
        <time>2014-11-16T10:47:03Z</time>
      </trkpt>
      <trkpt lat="43.22811" lon="5.43718">
        <ele>152</ele>
        <time>2014-11-16T10:47:12Z</time>
      </trkpt>
      <trkpt lat="43.22797" lon="5.4372">
        <ele>151</ele>
        <time>2014-11-16T10:47:23Z</time>
      </trkpt>
      <trkpt lat="43.2279" lon="5.43718">
        <ele>150</ele>
        <time>2014-11-16T10:47:32Z</time>
      </trkpt>
      <trkpt lat="43.22778" lon="5.43716">
        <ele>150</ele>
        <time>2014-11-16T10:47:42Z</time>
      </trkpt>
      <trkpt lat="43.22765" lon="5.43717">
        <ele>150</ele>
        <time>2014-11-16T10:47:53Z</time>
      </trkpt>
      <trkpt lat="43.22753" lon="5.43719">
        <ele>150</ele>
        <time>2014-11-16T10:48:03Z</time>
      </trkpt>
      <trkpt lat="43.22742" lon="5.4372">
        <ele>150</ele>
        <time>2014-11-16T10:48:12Z</time>
      </trkpt>
      <trkpt lat="43.22731" lon="5.43723">
        <ele>150</ele>
        <time>2014-11-16T10:48:22Z</time>
      </trkpt>
      <trkpt lat="43.2272" lon="5.43728">
        <ele>150</ele>
        <time>2014-11-16T10:48:32Z</time>
      </trkpt>
      <trkpt lat="43.22711" lon="5.43732">
        <ele>150</ele>
        <time>2014-11-16T10:48:41Z</time>
      </trkpt>
      <trkpt lat="43.22701" lon="5.43739">
        <ele>153</ele>
        <time>2014-11-16T10:48:51Z</time>
      </trkpt>
      <trkpt lat="43.2269" lon="5.43746">
        <ele>155</ele>
        <time>2014-11-16T10:49:01Z</time>
      </trkpt>
      <trkpt lat="43.22682" lon="5.43754">
        <ele>156</ele>
        <time>2014-11-16T10:49:10Z</time>
      </trkpt>
      <trkpt lat="43.22671" lon="5.43761">
        <ele>157</ele>
        <time>2014-11-16T10:49:20Z</time>
      </trkpt>
      <trkpt lat="43.22662" lon="5.4377">
        <ele>157</ele>
        <time>2014-11-16T10:49:29Z</time>
      </trkpt>
      <trkpt lat="43.22652" lon="5.43778">
        <ele>158</ele>
        <time>2014-11-16T10:49:38Z</time>
      </trkpt>
      <trkpt lat="43.22643" lon="5.43785">
        <ele>159</ele>
        <time>2014-11-16T10:49:47Z</time>
      </trkpt>
      <trkpt lat="43.22635" lon="5.4379">
        <ele>159</ele>
        <time>2014-11-16T10:49:56Z</time>
      </trkpt>
      <trkpt lat="43.22624" lon="5.43795">
        <ele>159</ele>
        <time>2014-11-16T10:50:05Z</time>
      </trkpt>
      <trkpt lat="43.22612" lon="5.438">
        <ele>159</ele>
        <time>2014-11-16T10:50:15Z</time>
      </trkpt>
      <trkpt lat="43.22606" lon="5.43801">
        <ele>159</ele>
        <time>2014-11-16T10:50:24Z</time>
      </trkpt>
      <trkpt lat="43.22598" lon="5.43802">
        <ele>159</ele>
        <time>2014-11-16T10:50:33Z</time>
      </trkpt>
      <trkpt lat="43.22589" lon="5.43802">
        <ele>159</ele>
        <time>2014-11-16T10:50:42Z</time>
      </trkpt>
      <trkpt lat="43.22583" lon="5.43801">
        <ele>159</ele>
        <time>2014-11-16T10:50:51Z</time>
      </trkpt>
      <trkpt lat="43.2257" lon="5.43802">
        <ele>159</ele>
        <time>2014-11-16T10:51:00Z</time>
      </trkpt>
      <trkpt lat="43.22554" lon="5.43805">
        <ele>159</ele>
        <time>2014-11-16T10:51:09Z</time>
      </trkpt>
      <trkpt lat="43.2254" lon="5.43806">
        <ele>159</ele>
        <time>2014-11-16T10:51:18Z</time>
      </trkpt>
      <trkpt lat="43.22529" lon="5.43807">
        <ele>159</ele>
        <time>2014-11-16T10:51:27Z</time>
      </trkpt>
      <trkpt lat="43.2252" lon="5.43806">
        <ele>159</ele>
        <time>2014-11-16T10:51:37Z</time>
      </trkpt>
      <trkpt lat="43.22513" lon="5.43804">
        <ele>159</ele>
        <time>2014-11-16T10:51:46Z</time>
      </trkpt>
      <trkpt lat="43.22503" lon="5.43801">
        <ele>161</ele>
        <time>2014-11-16T10:51:56Z</time>
      </trkpt>
      <trkpt lat="43.22492" lon="5.43802">
        <ele>162</ele>
        <time>2014-11-16T10:52:05Z</time>
      </trkpt>
      <trkpt lat="43.22484" lon="5.43801">
        <ele>164</ele>
        <time>2014-11-16T10:52:14Z</time>
      </trkpt>
      <trkpt lat="43.22472" lon="5.43804">
        <ele>164</ele>
        <time>2014-11-16T10:52:23Z</time>
      </trkpt>
      <trkpt lat="43.22457" lon="5.43808">
        <ele>164</ele>
        <time>2014-11-16T10:52:33Z</time>
      </trkpt>
      <trkpt lat="43.22445" lon="5.43822">
        <ele>164</ele>
        <time>2014-11-16T10:52:43Z</time>
      </trkpt>
      <trkpt lat="43.22433" lon="5.4383">
        <ele>164</ele>
        <time>2014-11-16T10:52:52Z</time>
      </trkpt>
      <trkpt lat="43.22424" lon="5.43837">
        <ele>163</ele>
        <time>2014-11-16T10:53:01Z</time>
      </trkpt>
      <trkpt lat="43.22417" lon="5.43842">
        <ele>163</ele>
        <time>2014-11-16T10:53:10Z</time>
      </trkpt>
      <trkpt lat="43.22409" lon="5.43844">
        <ele>163</ele>
        <time>2014-11-16T10:53:19Z</time>
      </trkpt>
      <trkpt lat="43.22393" lon="5.4385">
        <ele>163</ele>
        <time>2014-11-16T10:53:28Z</time>
      </trkpt>
      <trkpt lat="43.22385" lon="5.43855">
        <ele>161</ele>
        <time>2014-11-16T10:53:37Z</time>
      </trkpt>
      <trkpt lat="43.22373" lon="5.43863">
        <ele>161</ele>
        <time>2014-11-16T10:53:46Z</time>
      </trkpt>
      <trkpt lat="43.22363" lon="5.43873">
        <ele>161</ele>
        <time>2014-11-16T10:53:55Z</time>
      </trkpt>
      <trkpt lat="43.22355" lon="5.43881">
        <ele>161</ele>
        <time>2014-11-16T10:54:04Z</time>
      </trkpt>
      <trkpt lat="43.22346" lon="5.43891">
        <ele>161</ele>
        <time>2014-11-16T10:54:14Z</time>
      </trkpt>
      <trkpt lat="43.22339" lon="5.439">
        <ele>164</ele>
        <time>2014-11-16T10:54:23Z</time>
      </trkpt>
      <trkpt lat="43.2233" lon="5.4391">
        <ele>166</ele>
        <time>2014-11-16T10:54:33Z</time>
      </trkpt>
      <trkpt lat="43.22324" lon="5.4392">
        <ele>166</ele>
        <time>2014-11-16T10:54:42Z</time>
      </trkpt>
      <trkpt lat="43.22316" lon="5.43928">
        <ele>166</ele>
        <time>2014-11-16T10:54:51Z</time>
      </trkpt>
      <trkpt lat="43.22308" lon="5.43936">
        <ele>166</ele>
        <time>2014-11-16T10:55:00Z</time>
      </trkpt>
      <trkpt lat="43.22302" lon="5.43945">
        <ele>166</ele>
        <time>2014-11-16T10:55:09Z</time>
      </trkpt>
      <trkpt lat="43.22293" lon="5.43952">
        <ele>166</ele>
        <time>2014-11-16T10:55:20Z</time>
      </trkpt>
      <trkpt lat="43.22283" lon="5.43958">
        <ele>169</ele>
        <time>2014-11-16T10:55:29Z</time>
      </trkpt>
      <trkpt lat="43.22276" lon="5.43971">
        <ele>169</ele>
        <time>2014-11-16T10:55:39Z</time>
      </trkpt>
      <trkpt lat="43.22266" lon="5.43977">
        <ele>169</ele>
        <time>2014-11-16T10:55:55Z</time>
      </trkpt>
      <trkpt lat="43.22256" lon="5.43982">
        <ele>168</ele>
        <time>2014-11-16T10:56:04Z</time>
      </trkpt>
      <trkpt lat="43.22247" lon="5.43985">
        <ele>167</ele>
        <time>2014-11-16T10:56:13Z</time>
      </trkpt>
      <trkpt lat="43.2223" lon="5.43994">
        <ele>167</ele>
        <time>2014-11-16T10:56:22Z</time>
      </trkpt>
      <trkpt lat="43.22215" lon="5.44">
        <ele>167</ele>
        <time>2014-11-16T10:56:33Z</time>
      </trkpt>
      <trkpt lat="43.22202" lon="5.44003">
        <ele>169</ele>
        <time>2014-11-16T10:56:42Z</time>
      </trkpt>
      <trkpt lat="43.22194" lon="5.44007">
        <ele>171</ele>
        <time>2014-11-16T10:56:52Z</time>
      </trkpt>
      <trkpt lat="43.22187" lon="5.44009">
        <ele>174</ele>
        <time>2014-11-16T10:57:01Z</time>
      </trkpt>
      <trkpt lat="43.22172" lon="5.44015">
        <ele>174</ele>
        <time>2014-11-16T10:57:10Z</time>
      </trkpt>
      <trkpt lat="43.22159" lon="5.44023">
        <ele>174</ele>
        <time>2014-11-16T10:57:19Z</time>
      </trkpt>
      <trkpt lat="43.22147" lon="5.44032">
        <ele>174</ele>
        <time>2014-11-16T10:57:29Z</time>
      </trkpt>
      <trkpt lat="43.22137" lon="5.4404">
        <ele>175</ele>
        <time>2014-11-16T10:57:38Z</time>
      </trkpt>
      <trkpt lat="43.2213" lon="5.4405">
        <ele>178</ele>
        <time>2014-11-16T10:57:47Z</time>
      </trkpt>
      <trkpt lat="43.22122" lon="5.44057">
        <ele>179</ele>
        <time>2014-11-16T10:57:56Z</time>
      </trkpt>
      <trkpt lat="43.22111" lon="5.44065">
        <ele>179</ele>
        <time>2014-11-16T10:58:05Z</time>
      </trkpt>
      <trkpt lat="43.22103" lon="5.44074">
        <ele>179</ele>
        <time>2014-11-16T10:58:14Z</time>
      </trkpt>
      <trkpt lat="43.22095" lon="5.44084">
        <ele>180</ele>
        <time>2014-11-16T10:58:23Z</time>
      </trkpt>
      <trkpt lat="43.22087" lon="5.44093">
        <ele>181</ele>
        <time>2014-11-16T10:58:33Z</time>
      </trkpt>
      <trkpt lat="43.22078" lon="5.44105">
        <ele>182</ele>
        <time>2014-11-16T10:58:42Z</time>
      </trkpt>
      <trkpt lat="43.22071" lon="5.44111">
        <ele>186</ele>
        <time>2014-11-16T10:58:51Z</time>
      </trkpt>
      <trkpt lat="43.22064" lon="5.44101">
        <ele>186</ele>
        <time>2014-11-16T10:59:01Z</time>
      </trkpt>
      <trkpt lat="43.22055" lon="5.44098">
        <ele>186</ele>
        <time>2014-11-16T10:59:12Z</time>
      </trkpt>
      <trkpt lat="43.22047" lon="5.44094">
        <ele>185</ele>
        <time>2014-11-16T10:59:21Z</time>
      </trkpt>
      <trkpt lat="43.22039" lon="5.44091">
        <ele>185</ele>
        <time>2014-11-16T10:59:30Z</time>
      </trkpt>
      <trkpt lat="43.2203" lon="5.44087">
        <ele>185</ele>
        <time>2014-11-16T10:59:40Z</time>
      </trkpt>
      <trkpt lat="43.22019" lon="5.44085">
        <ele>185</ele>
        <time>2014-11-16T10:59:49Z</time>
      </trkpt>
      <trkpt lat="43.22015" lon="5.44086">
        <ele>184</ele>
        <time>2014-11-16T11:00:07Z</time>
      </trkpt>
      <trkpt lat="43.22012" lon="5.44085">
        <ele>184</ele>
        <time>2014-11-16T11:00:16Z</time>
      </trkpt>
      <trkpt lat="43.22012" lon="5.44083">
        <ele>184</ele>
        <time>2014-11-16T11:00:41Z</time>
      </trkpt>
      <trkpt lat="43.22013" lon="5.44095">
        <ele>184</ele>
        <time>2014-11-16T11:00:51Z</time>
      </trkpt>
      <trkpt lat="43.22015" lon="5.44098">
        <ele>184</ele>
        <time>2014-11-16T11:01:01Z</time>
      </trkpt>
      <trkpt lat="43.22012" lon="5.44101">
        <ele>184</ele>
        <time>2014-11-16T11:01:12Z</time>
      </trkpt>
      <trkpt lat="43.22011" lon="5.441">
        <ele>187</ele>
        <time>2014-11-16T11:01:34Z</time>
      </trkpt>
      <trkpt lat="43.22011" lon="5.44102">
        <ele>185</ele>
        <time>2014-11-16T11:01:55Z</time>
      </trkpt>
      <trkpt lat="43.22015" lon="5.44104">
        <ele>185</ele>
        <time>2014-11-16T11:02:05Z</time>
      </trkpt>
      <trkpt lat="43.22024" lon="5.4411">
        <ele>186</ele>
        <time>2014-11-16T11:02:15Z</time>
      </trkpt>
      <trkpt lat="43.22035" lon="5.44115">
        <ele>188</ele>
        <time>2014-11-16T11:02:25Z</time>
      </trkpt>
      <trkpt lat="43.22043" lon="5.44121">
        <ele>189</ele>
        <time>2014-11-16T11:02:35Z</time>
      </trkpt>
      <trkpt lat="43.22044" lon="5.44135">
        <ele>189</ele>
        <time>2014-11-16T11:02:44Z</time>
      </trkpt>
      <trkpt lat="43.22045" lon="5.4415">
        <ele>189</ele>
        <time>2014-11-16T11:02:53Z</time>
      </trkpt>
      <trkpt lat="43.22043" lon="5.44162">
        <ele>189</ele>
        <time>2014-11-16T11:03:02Z</time>
      </trkpt>
      <trkpt lat="43.22042" lon="5.44175">
        <ele>189</ele>
        <time>2014-11-16T11:03:11Z</time>
      </trkpt>
      <trkpt lat="43.22039" lon="5.44189">
        <ele>191</ele>
        <time>2014-11-16T11:03:21Z</time>
      </trkpt>
      <trkpt lat="43.22038" lon="5.44201">
        <ele>195</ele>
        <time>2014-11-16T11:03:30Z</time>
      </trkpt>
      <trkpt lat="43.22036" lon="5.44213">
        <ele>200</ele>
        <time>2014-11-16T11:03:39Z</time>
      </trkpt>
      <trkpt lat="43.22035" lon="5.44229">
        <ele>201</ele>
        <time>2014-11-16T11:03:49Z</time>
      </trkpt>
      <trkpt lat="43.22032" lon="5.44244">
        <ele>201</ele>
        <time>2014-11-16T11:03:58Z</time>
      </trkpt>
      <trkpt lat="43.22027" lon="5.44258">
        <ele>201</ele>
        <time>2014-11-16T11:04:08Z</time>
      </trkpt>
      <trkpt lat="43.22025" lon="5.44273">
        <ele>201</ele>
        <time>2014-11-16T11:04:18Z</time>
      </trkpt>
      <trkpt lat="43.22019" lon="5.44286">
        <ele>201</ele>
        <time>2014-11-16T11:04:28Z</time>
      </trkpt>
      <trkpt lat="43.22014" lon="5.44297">
        <ele>201</ele>
        <time>2014-11-16T11:04:37Z</time>
      </trkpt>
      <trkpt lat="43.22008" lon="5.44308">
        <ele>201</ele>
        <time>2014-11-16T11:04:46Z</time>
      </trkpt>
      <trkpt lat="43.22001" lon="5.44321">
        <ele>201</ele>
        <time>2014-11-16T11:04:55Z</time>
      </trkpt>
      <trkpt lat="43.21994" lon="5.44333">
        <ele>201</ele>
        <time>2014-11-16T11:05:04Z</time>
      </trkpt>
      <trkpt lat="43.2199" lon="5.44347">
        <ele>201</ele>
        <time>2014-11-16T11:05:13Z</time>
      </trkpt>
      <trkpt lat="43.21982" lon="5.44359">
        <ele>201</ele>
        <time>2014-11-16T11:05:22Z</time>
      </trkpt>
      <trkpt lat="43.21976" lon="5.44371">
        <ele>201</ele>
        <time>2014-11-16T11:05:31Z</time>
      </trkpt>
      <trkpt lat="43.2197" lon="5.44381">
        <ele>201</ele>
        <time>2014-11-16T11:05:41Z</time>
      </trkpt>
      <trkpt lat="43.21963" lon="5.44391">
        <ele>201</ele>
        <time>2014-11-16T11:05:51Z</time>
      </trkpt>
      <trkpt lat="43.21956" lon="5.44402">
        <ele>201</ele>
        <time>2014-11-16T11:06:00Z</time>
      </trkpt>
      <trkpt lat="43.21951" lon="5.44413">
        <ele>201</ele>
        <time>2014-11-16T11:06:10Z</time>
      </trkpt>
      <trkpt lat="43.21945" lon="5.44423">
        <ele>201</ele>
        <time>2014-11-16T11:06:20Z</time>
      </trkpt>
      <trkpt lat="43.21938" lon="5.44433">
        <ele>203</ele>
        <time>2014-11-16T11:06:29Z</time>
      </trkpt>
      <trkpt lat="43.2193" lon="5.44448">
        <ele>203</ele>
        <time>2014-11-16T11:06:38Z</time>
      </trkpt>
      <trkpt lat="43.21925" lon="5.44463">
        <ele>203</ele>
        <time>2014-11-16T11:06:48Z</time>
      </trkpt>
      <trkpt lat="43.21921" lon="5.44478">
        <ele>204</ele>
        <time>2014-11-16T11:06:58Z</time>
      </trkpt>
      <trkpt lat="43.21918" lon="5.44492">
        <ele>208</ele>
        <time>2014-11-16T11:07:08Z</time>
      </trkpt>
      <trkpt lat="43.2192" lon="5.44505">
        <ele>209</ele>
        <time>2014-11-16T11:07:17Z</time>
      </trkpt>
      <trkpt lat="43.21921" lon="5.44517">
        <ele>213</ele>
        <time>2014-11-16T11:07:27Z</time>
      </trkpt>
      <trkpt lat="43.21924" lon="5.44529">
        <ele>216</ele>
        <time>2014-11-16T11:07:36Z</time>
      </trkpt>
      <trkpt lat="43.21926" lon="5.44543">
        <ele>219</ele>
        <time>2014-11-16T11:07:45Z</time>
      </trkpt>
      <trkpt lat="43.21927" lon="5.44557">
        <ele>218</ele>
        <time>2014-11-16T11:07:54Z</time>
      </trkpt>
      <trkpt lat="43.21924" lon="5.4457">
        <ele>218</ele>
        <time>2014-11-16T11:08:04Z</time>
      </trkpt>
      <trkpt lat="43.2192" lon="5.44582">
        <ele>218</ele>
        <time>2014-11-16T11:08:13Z</time>
      </trkpt>
      <trkpt lat="43.21915" lon="5.44595">
        <ele>218</ele>
        <time>2014-11-16T11:08:23Z</time>
      </trkpt>
      <trkpt lat="43.21908" lon="5.44607">
        <ele>218</ele>
        <time>2014-11-16T11:08:33Z</time>
      </trkpt>
      <trkpt lat="43.21901" lon="5.44619">
        <ele>218</ele>
        <time>2014-11-16T11:08:43Z</time>
      </trkpt>
      <trkpt lat="43.21897" lon="5.44631">
        <ele>218</ele>
        <time>2014-11-16T11:08:52Z</time>
      </trkpt>
      <trkpt lat="43.21893" lon="5.44645">
        <ele>218</ele>
        <time>2014-11-16T11:09:01Z</time>
      </trkpt>
      <trkpt lat="43.21889" lon="5.44658">
        <ele>218</ele>
        <time>2014-11-16T11:09:10Z</time>
      </trkpt>
      <trkpt lat="43.21885" lon="5.4467">
        <ele>218</ele>
        <time>2014-11-16T11:09:20Z</time>
      </trkpt>
      <trkpt lat="43.21881" lon="5.44683">
        <ele>218</ele>
        <time>2014-11-16T11:09:29Z</time>
      </trkpt>
      <trkpt lat="43.21879" lon="5.44698">
        <ele>218</ele>
        <time>2014-11-16T11:09:38Z</time>
      </trkpt>
      <trkpt lat="43.21881" lon="5.44711">
        <ele>218</ele>
        <time>2014-11-16T11:09:47Z</time>
      </trkpt>
      <trkpt lat="43.21884" lon="5.44724">
        <ele>218</ele>
        <time>2014-11-16T11:09:56Z</time>
      </trkpt>
      <trkpt lat="43.21889" lon="5.44735">
        <ele>218</ele>
        <time>2014-11-16T11:10:05Z</time>
      </trkpt>
      <trkpt lat="43.21891" lon="5.44749">
        <ele>218</ele>
        <time>2014-11-16T11:10:14Z</time>
      </trkpt>
      <trkpt lat="43.21888" lon="5.44762">
        <ele>218</ele>
        <time>2014-11-16T11:10:23Z</time>
      </trkpt>
      <trkpt lat="43.21882" lon="5.44774">
        <ele>218</ele>
        <time>2014-11-16T11:10:32Z</time>
      </trkpt>
      <trkpt lat="43.21879" lon="5.44788">
        <ele>218</ele>
        <time>2014-11-16T11:10:42Z</time>
      </trkpt>
      <trkpt lat="43.2188" lon="5.448">
        <ele>218</ele>
        <time>2014-11-16T11:10:51Z</time>
      </trkpt>
      <trkpt lat="43.21881" lon="5.44811">
        <ele>218</ele>
        <time>2014-11-16T11:11:00Z</time>
      </trkpt>
      <trkpt lat="43.21881" lon="5.44825">
        <ele>218</ele>
        <time>2014-11-16T11:11:09Z</time>
      </trkpt>
      <trkpt lat="43.21879" lon="5.44838">
        <ele>218</ele>
        <time>2014-11-16T11:11:18Z</time>
      </trkpt>
      <trkpt lat="43.21876" lon="5.44848">
        <ele>218</ele>
        <time>2014-11-16T11:11:29Z</time>
      </trkpt>
      <trkpt lat="43.21877" lon="5.4485">
        <ele>217</ele>
        <time>2014-11-16T11:11:44Z</time>
      </trkpt>
      <trkpt lat="43.21867" lon="5.44853">
        <ele>216</ele>
        <time>2014-11-16T11:11:53Z</time>
      </trkpt>
      <trkpt lat="43.21857" lon="5.44854">
        <ele>215</ele>
        <time>2014-11-16T11:12:02Z</time>
      </trkpt>
      <trkpt lat="43.21845" lon="5.44854">
        <ele>214</ele>
        <time>2014-11-16T11:12:11Z</time>
      </trkpt>
      <trkpt lat="43.21833" lon="5.44855">
        <ele>211</ele>
        <time>2014-11-16T11:12:20Z</time>
      </trkpt>
      <trkpt lat="43.21822" lon="5.44861">
        <ele>211</ele>
        <time>2014-11-16T11:12:29Z</time>
      </trkpt>
      <trkpt lat="43.21816" lon="5.44873">
        <ele>211</ele>
        <time>2014-11-16T11:12:38Z</time>
      </trkpt>
      <trkpt lat="43.21813" lon="5.44888">
        <ele>211</ele>
        <time>2014-11-16T11:12:47Z</time>
      </trkpt>
      <trkpt lat="43.21813" lon="5.44902">
        <ele>211</ele>
        <time>2014-11-16T11:12:56Z</time>
      </trkpt>
      <trkpt lat="43.21806" lon="5.44911">
        <ele>211</ele>
        <time>2014-11-16T11:13:06Z</time>
      </trkpt>
      <trkpt lat="43.21797" lon="5.44912">
        <ele>211</ele>
        <time>2014-11-16T11:13:17Z</time>
      </trkpt>
      <trkpt lat="43.21787" lon="5.44913">
        <ele>210</ele>
        <time>2014-11-16T11:13:26Z</time>
      </trkpt>
      <trkpt lat="43.21775" lon="5.44913">
        <ele>210</ele>
        <time>2014-11-16T11:13:36Z</time>
      </trkpt>
      <trkpt lat="43.21764" lon="5.44913">
        <ele>210</ele>
        <time>2014-11-16T11:13:45Z</time>
      </trkpt>
      <trkpt lat="43.21754" lon="5.44917">
        <ele>210</ele>
        <time>2014-11-16T11:13:54Z</time>
      </trkpt>
      <trkpt lat="43.21745" lon="5.44926">
        <ele>210</ele>
        <time>2014-11-16T11:14:03Z</time>
      </trkpt>
      <trkpt lat="43.21736" lon="5.44934">
        <ele>210</ele>
        <time>2014-11-16T11:14:13Z</time>
      </trkpt>
      <trkpt lat="43.21726" lon="5.44935">
        <ele>210</ele>
        <time>2014-11-16T11:14:22Z</time>
      </trkpt>
      <trkpt lat="43.21715" lon="5.4494">
        <ele>210</ele>
        <time>2014-11-16T11:14:32Z</time>
      </trkpt>
      <trkpt lat="43.21716" lon="5.44945">
        <ele>210</ele>
        <time>2014-11-16T11:14:41Z</time>
      </trkpt>
      <trkpt lat="43.21709" lon="5.44952">
        <ele>210</ele>
        <time>2014-11-16T11:14:54Z</time>
      </trkpt>
      <trkpt lat="43.21705" lon="5.44955">
        <ele>209</ele>
        <time>2014-11-16T11:15:03Z</time>
      </trkpt>
      <trkpt lat="43.21698" lon="5.44966">
        <ele>209</ele>
        <time>2014-11-16T11:15:13Z</time>
      </trkpt>
      <trkpt lat="43.21693" lon="5.44978">
        <ele>209</ele>
        <time>2014-11-16T11:15:22Z</time>
      </trkpt>
      <trkpt lat="43.2169" lon="5.44989">
        <ele>209</ele>
        <time>2014-11-16T11:15:31Z</time>
      </trkpt>
      <trkpt lat="43.21685" lon="5.45003">
        <ele>209</ele>
        <time>2014-11-16T11:15:41Z</time>
      </trkpt>
      <trkpt lat="43.21682" lon="5.45017">
        <ele>209</ele>
        <time>2014-11-16T11:15:50Z</time>
      </trkpt>
      <trkpt lat="43.2168" lon="5.45026">
        <ele>209</ele>
        <time>2014-11-16T11:15:59Z</time>
      </trkpt>
      <trkpt lat="43.2168" lon="5.45033">
        <ele>209</ele>
        <time>2014-11-16T11:16:08Z</time>
      </trkpt>
      <trkpt lat="43.2168" lon="5.45041">
        <ele>207</ele>
        <time>2014-11-16T11:16:21Z</time>
      </trkpt>
      <trkpt lat="43.2168" lon="5.45044">
        <ele>207</ele>
        <time>2014-11-16T11:16:36Z</time>
      </trkpt>
      <trkpt lat="43.21681" lon="5.45045">
        <ele>207</ele>
        <time>2014-11-16T11:16:56Z</time>
      </trkpt>
      <trkpt lat="43.21682" lon="5.45046">
        <ele>207</ele>
        <time>2014-11-16T11:17:10Z</time>
      </trkpt>
      <trkpt lat="43.21682" lon="5.45044">
        <ele>207</ele>
        <time>2014-11-16T11:17:45Z</time>
      </trkpt>
      <trkpt lat="43.21683" lon="5.45037">
        <ele>207</ele>
        <time>2014-11-16T11:17:54Z</time>
      </trkpt>
      <trkpt lat="43.21682" lon="5.45022">
        <ele>206</ele>
        <time>2014-11-16T11:18:03Z</time>
      </trkpt>
      <trkpt lat="43.21685" lon="5.45009">
        <ele>206</ele>
        <time>2014-11-16T11:18:13Z</time>
      </trkpt>
      <trkpt lat="43.21689" lon="5.44996">
        <ele>206</ele>
        <time>2014-11-16T11:18:22Z</time>
      </trkpt>
      <trkpt lat="43.21688" lon="5.44982">
        <ele>204</ele>
        <time>2014-11-16T11:18:32Z</time>
      </trkpt>
      <trkpt lat="43.21692" lon="5.44979">
        <ele>204</ele>
        <time>2014-11-16T11:18:42Z</time>
      </trkpt>
      <trkpt lat="43.21685" lon="5.44973">
        <ele>204</ele>
        <time>2014-11-16T11:18:51Z</time>
      </trkpt>
      <trkpt lat="43.21672" lon="5.44968">
        <ele>204</ele>
        <time>2014-11-16T11:19:00Z</time>
      </trkpt>
      <trkpt lat="43.21666" lon="5.44959">
        <ele>204</ele>
        <time>2014-11-16T11:19:09Z</time>
      </trkpt>
      <trkpt lat="43.21668" lon="5.44942">
        <ele>203</ele>
        <time>2014-11-16T11:19:18Z</time>
      </trkpt>
      <trkpt lat="43.2168" lon="5.44932">
        <ele>202</ele>
        <time>2014-11-16T11:19:27Z</time>
      </trkpt>
      <trkpt lat="43.21691" lon="5.44925">
        <ele>201</ele>
        <time>2014-11-16T11:19:36Z</time>
      </trkpt>
      <trkpt lat="43.21702" lon="5.4492">
        <ele>197</ele>
        <time>2014-11-16T11:19:45Z</time>
      </trkpt>
      <trkpt lat="43.21712" lon="5.44914">
        <ele>193</ele>
        <time>2014-11-16T11:19:54Z</time>
      </trkpt>
      <trkpt lat="43.21723" lon="5.44907">
        <ele>193</ele>
        <time>2014-11-16T11:20:04Z</time>
      </trkpt>
      <trkpt lat="43.2173" lon="5.44896">
        <ele>193</ele>
        <time>2014-11-16T11:20:14Z</time>
      </trkpt>
      <trkpt lat="43.21728" lon="5.44883">
        <ele>195</ele>
        <time>2014-11-16T11:20:24Z</time>
      </trkpt>
      <trkpt lat="43.21716" lon="5.44887">
        <ele>201</ele>
        <time>2014-11-16T11:20:33Z</time>
      </trkpt>
      <trkpt lat="43.21705" lon="5.44892">
        <ele>201</ele>
        <time>2014-11-16T11:20:42Z</time>
      </trkpt>
      <trkpt lat="43.21702" lon="5.44882">
        <ele>201</ele>
        <time>2014-11-16T11:20:52Z</time>
      </trkpt>
      <trkpt lat="43.21714" lon="5.44878">
        <ele>201</ele>
        <time>2014-11-16T11:21:01Z</time>
      </trkpt>
      <trkpt lat="43.21724" lon="5.4487">
        <ele>199</ele>
        <time>2014-11-16T11:21:10Z</time>
      </trkpt>
      <trkpt lat="43.21733" lon="5.44864">
        <ele>196</ele>
        <time>2014-11-16T11:21:19Z</time>
      </trkpt>
      <trkpt lat="43.21742" lon="5.44868">
        <ele>196</ele>
        <time>2014-11-16T11:21:28Z</time>
      </trkpt>
      <trkpt lat="43.21752" lon="5.44869">
        <ele>196</ele>
        <time>2014-11-16T11:21:37Z</time>
      </trkpt>
      <trkpt lat="43.21758" lon="5.44851">
        <ele>196</ele>
        <time>2014-11-16T11:21:46Z</time>
      </trkpt>
      <trkpt lat="43.21763" lon="5.44834">
        <ele>191</ele>
        <time>2014-11-16T11:21:55Z</time>
      </trkpt>
      <trkpt lat="43.21764" lon="5.4482">
        <ele>188</ele>
        <time>2014-11-16T11:22:04Z</time>
      </trkpt>
      <trkpt lat="43.21773" lon="5.4482">
        <ele>188</ele>
        <time>2014-11-16T11:22:13Z</time>
      </trkpt>
      <trkpt lat="43.21785" lon="5.44816">
        <ele>188</ele>
        <time>2014-11-16T11:22:23Z</time>
      </trkpt>
      <trkpt lat="43.21791" lon="5.44805">
        <ele>188</ele>
        <time>2014-11-16T11:22:32Z</time>
      </trkpt>
      <trkpt lat="43.21791" lon="5.4479">
        <ele>188</ele>
        <time>2014-11-16T11:22:41Z</time>
      </trkpt>
      <trkpt lat="43.21793" lon="5.44775">
        <ele>186</ele>
        <time>2014-11-16T11:22:50Z</time>
      </trkpt>
      <trkpt lat="43.21794" lon="5.44761">
        <ele>183</ele>
        <time>2014-11-16T11:22:59Z</time>
      </trkpt>
      <trkpt lat="43.21781" lon="5.44756">
        <ele>184</ele>
        <time>2014-11-16T11:23:08Z</time>
      </trkpt>
      <trkpt lat="43.21776" lon="5.44762">
        <ele>193</ele>
        <time>2014-11-16T11:23:18Z</time>
      </trkpt>
      <trkpt lat="43.21775" lon="5.44765">
        <ele>195</ele>
        <time>2014-11-16T11:23:29Z</time>
      </trkpt>
      <trkpt lat="43.2177" lon="5.44766">
        <ele>195</ele>
        <time>2014-11-16T11:23:38Z</time>
      </trkpt>
      <trkpt lat="43.21766" lon="5.44771">
        <ele>193</ele>
        <time>2014-11-16T11:23:50Z</time>
      </trkpt>
      <trkpt lat="43.21759" lon="5.4478">
        <ele>188</ele>
        <time>2014-11-16T11:24:00Z</time>
      </trkpt>
      <trkpt lat="43.21749" lon="5.44772">
        <ele>188</ele>
        <time>2014-11-16T11:24:09Z</time>
      </trkpt>
      <trkpt lat="43.21741" lon="5.44772">
        <ele>189</ele>
        <time>2014-11-16T11:24:19Z</time>
      </trkpt>
      <trkpt lat="43.21724" lon="5.44773">
        <ele>190</ele>
        <time>2014-11-16T11:24:29Z</time>
      </trkpt>
      <trkpt lat="43.21711" lon="5.44773">
        <ele>190</ele>
        <time>2014-11-16T11:24:39Z</time>
      </trkpt>
      <trkpt lat="43.21701" lon="5.44779">
        <ele>190</ele>
        <time>2014-11-16T11:24:48Z</time>
      </trkpt>
      <trkpt lat="43.21689" lon="5.44777">
        <ele>188</ele>
        <time>2014-11-16T11:24:57Z</time>
      </trkpt>
      <trkpt lat="43.21677" lon="5.44768">
        <ele>191</ele>
        <time>2014-11-16T11:25:06Z</time>
      </trkpt>
      <trkpt lat="43.21666" lon="5.44765">
        <ele>191</ele>
        <time>2014-11-16T11:25:16Z</time>
      </trkpt>
      <trkpt lat="43.21649" lon="5.44761">
        <ele>191</ele>
        <time>2014-11-16T11:25:26Z</time>
      </trkpt>
      <trkpt lat="43.21638" lon="5.44748">
        <ele>186</ele>
        <time>2014-11-16T11:25:39Z</time>
      </trkpt>
      <trkpt lat="43.21632" lon="5.44744">
        <ele>176</ele>
        <time>2014-11-16T11:25:49Z</time>
      </trkpt>
      <trkpt lat="43.2162" lon="5.44742">
        <ele>166</ele>
        <time>2014-11-16T11:25:58Z</time>
      </trkpt>
      <trkpt lat="43.21608" lon="5.44748">
        <ele>165</ele>
        <time>2014-11-16T11:26:07Z</time>
      </trkpt>
      <trkpt lat="43.21599" lon="5.44757">
        <ele>169</ele>
        <time>2014-11-16T11:26:18Z</time>
      </trkpt>
      <trkpt lat="43.2159" lon="5.44768">
        <ele>169</ele>
        <time>2014-11-16T11:26:27Z</time>
      </trkpt>
      <trkpt lat="43.21582" lon="5.4478">
        <ele>170</ele>
        <time>2014-11-16T11:26:36Z</time>
      </trkpt>
      <trkpt lat="43.21575" lon="5.44792">
        <ele>170</ele>
        <time>2014-11-16T11:26:45Z</time>
      </trkpt>
      <trkpt lat="43.21572" lon="5.44811">
        <ele>168</ele>
        <time>2014-11-16T11:26:55Z</time>
      </trkpt>
      <trkpt lat="43.21578" lon="5.44829">
        <ele>159</ele>
        <time>2014-11-16T11:27:04Z</time>
      </trkpt>
      <trkpt lat="43.21586" lon="5.44839">
        <ele>156</ele>
        <time>2014-11-16T11:27:14Z</time>
      </trkpt>
      <trkpt lat="43.21579" lon="5.44852">
        <ele>156</ele>
        <time>2014-11-16T11:27:25Z</time>
      </trkpt>
      <trkpt lat="43.21573" lon="5.44859">
        <ele>156</ele>
        <time>2014-11-16T11:27:34Z</time>
      </trkpt>
      <trkpt lat="43.21564" lon="5.44868">
        <ele>157</ele>
        <time>2014-11-16T11:27:43Z</time>
      </trkpt>
      <trkpt lat="43.21555" lon="5.4488">
        <ele>158</ele>
        <time>2014-11-16T11:27:52Z</time>
      </trkpt>
      <trkpt lat="43.21548" lon="5.44894">
        <ele>157</ele>
        <time>2014-11-16T11:28:01Z</time>
      </trkpt>
      <trkpt lat="43.21538" lon="5.44904">
        <ele>153</ele>
        <time>2014-11-16T11:28:10Z</time>
      </trkpt>
      <trkpt lat="43.21525" lon="5.4491">
        <ele>151</ele>
        <time>2014-11-16T11:28:19Z</time>
      </trkpt>
      <trkpt lat="43.21515" lon="5.44921">
        <ele>149</ele>
        <time>2014-11-16T11:28:28Z</time>
      </trkpt>
      <trkpt lat="43.21511" lon="5.44936">
        <ele>147</ele>
        <time>2014-11-16T11:28:37Z</time>
      </trkpt>
      <trkpt lat="43.215" lon="5.44938">
        <ele>147</ele>
        <time>2014-11-16T11:28:46Z</time>
      </trkpt>
      <trkpt lat="43.2149" lon="5.44927">
        <ele>147</ele>
        <time>2014-11-16T11:28:55Z</time>
      </trkpt>
      <trkpt lat="43.21478" lon="5.44922">
        <ele>147</ele>
        <time>2014-11-16T11:29:04Z</time>
      </trkpt>
      <trkpt lat="43.21468" lon="5.44928">
        <ele>147</ele>
        <time>2014-11-16T11:29:13Z</time>
      </trkpt>
      <trkpt lat="43.21458" lon="5.44938">
        <ele>147</ele>
        <time>2014-11-16T11:29:22Z</time>
      </trkpt>
      <trkpt lat="43.2145" lon="5.4495">
        <ele>143</ele>
        <time>2014-11-16T11:29:32Z</time>
      </trkpt>
      <trkpt lat="43.21442" lon="5.44959">
        <ele>139</ele>
        <time>2014-11-16T11:29:41Z</time>
      </trkpt>
      <trkpt lat="43.21429" lon="5.44966">
        <ele>137</ele>
        <time>2014-11-16T11:29:50Z</time>
      </trkpt>
      <trkpt lat="43.21419" lon="5.44965">
        <ele>135</ele>
        <time>2014-11-16T11:29:59Z</time>
      </trkpt>
      <trkpt lat="43.21411" lon="5.4496">
        <ele>135</ele>
        <time>2014-11-16T11:30:08Z</time>
      </trkpt>
      <trkpt lat="43.214" lon="5.44961">
        <ele>136</ele>
        <time>2014-11-16T11:30:17Z</time>
      </trkpt>
      <trkpt lat="43.21387" lon="5.44971">
        <ele>137</ele>
        <time>2014-11-16T11:30:27Z</time>
      </trkpt>
      <trkpt lat="43.21388" lon="5.44985">
        <ele>137</ele>
        <time>2014-11-16T11:30:36Z</time>
      </trkpt>
      <trkpt lat="43.21392" lon="5.45004">
        <ele>137</ele>
        <time>2014-11-16T11:30:45Z</time>
      </trkpt>
      <trkpt lat="43.21389" lon="5.45021">
        <ele>129</ele>
        <time>2014-11-16T11:30:54Z</time>
      </trkpt>
      <trkpt lat="43.21387" lon="5.45036">
        <ele>128</ele>
        <time>2014-11-16T11:31:03Z</time>
      </trkpt>
      <trkpt lat="43.21382" lon="5.45049">
        <ele>128</ele>
        <time>2014-11-16T11:31:12Z</time>
      </trkpt>
      <trkpt lat="43.21371" lon="5.45061">
        <ele>128</ele>
        <time>2014-11-16T11:31:22Z</time>
      </trkpt>
      <trkpt lat="43.21363" lon="5.45072">
        <ele>125</ele>
        <time>2014-11-16T11:31:31Z</time>
      </trkpt>
      <trkpt lat="43.21357" lon="5.45084">
        <ele>121</ele>
        <time>2014-11-16T11:31:40Z</time>
      </trkpt>
      <trkpt lat="43.21347" lon="5.45088">
        <ele>120</ele>
        <time>2014-11-16T11:31:49Z</time>
      </trkpt>
      <trkpt lat="43.21341" lon="5.45086">
        <ele>119</ele>
        <time>2014-11-16T11:31:58Z</time>
      </trkpt>
      <trkpt lat="43.21328" lon="5.45086">
        <ele>118</ele>
        <time>2014-11-16T11:32:07Z</time>
      </trkpt>
      <trkpt lat="43.2132" lon="5.45093">
        <ele>118</ele>
        <time>2014-11-16T11:32:16Z</time>
      </trkpt>
      <trkpt lat="43.21317" lon="5.45104">
        <ele>113</ele>
        <time>2014-11-16T11:32:30Z</time>
      </trkpt>
      <trkpt lat="43.21319" lon="5.45108">
        <ele>108</ele>
        <time>2014-11-16T11:32:42Z</time>
      </trkpt>
      <trkpt lat="43.21323" lon="5.45115">
        <ele>107</ele>
        <time>2014-11-16T11:32:52Z</time>
      </trkpt>
      <trkpt lat="43.21323" lon="5.4512">
        <ele>107</ele>
        <time>2014-11-16T11:33:02Z</time>
      </trkpt>
      <trkpt lat="43.21325" lon="5.45124">
        <ele>107</ele>
        <time>2014-11-16T11:33:13Z</time>
      </trkpt>
      <trkpt lat="43.21326" lon="5.45128">
        <ele>107</ele>
        <time>2014-11-16T11:33:22Z</time>
      </trkpt>
      <trkpt lat="43.21328" lon="5.45125">
        <ele>102</ele>
        <time>2014-11-16T11:33:37Z</time>
      </trkpt>
      <trkpt lat="43.21327" lon="5.45127">
        <ele>89</ele>
        <time>2014-11-16T11:33:54Z</time>
      </trkpt>
      <trkpt lat="43.21324" lon="5.45129">
        <ele>89</ele>
        <time>2014-11-16T11:34:14Z</time>
      </trkpt>
      <trkpt lat="43.21326" lon="5.45135">
        <ele>96</ele>
        <time>2014-11-16T11:34:24Z</time>
      </trkpt>
      <trkpt lat="43.21322" lon="5.45144">
        <ele>102</ele>
        <time>2014-11-16T11:34:34Z</time>
      </trkpt>
      <trkpt lat="43.21323" lon="5.45156">
        <ele>99</ele>
        <time>2014-11-16T11:34:44Z</time>
      </trkpt>
      <trkpt lat="43.2132" lon="5.4517">
        <ele>96</ele>
        <time>2014-11-16T11:34:54Z</time>
      </trkpt>
      <trkpt lat="43.21327" lon="5.45188">
        <ele>95</ele>
        <time>2014-11-16T11:35:03Z</time>
      </trkpt>
      <trkpt lat="43.21328" lon="5.45206">
        <ele>94</ele>
        <time>2014-11-16T11:35:13Z</time>
      </trkpt>
      <trkpt lat="43.21327" lon="5.45214">
        <ele>92</ele>
        <time>2014-11-16T11:35:22Z</time>
      </trkpt>
      <trkpt lat="43.21327" lon="5.45217">
        <ele>92</ele>
        <time>2014-11-16T11:35:34Z</time>
      </trkpt>
      <trkpt lat="43.2133" lon="5.45219">
        <ele>90</ele>
        <time>2014-11-16T11:35:43Z</time>
      </trkpt>
      <trkpt lat="43.21333" lon="5.4522">
        <ele>85</ele>
        <time>2014-11-16T11:35:53Z</time>
      </trkpt>
      <trkpt lat="43.21333" lon="5.4523">
        <ele>85</ele>
        <time>2014-11-16T11:36:02Z</time>
      </trkpt>
      <trkpt lat="43.21333" lon="5.45237">
        <ele>85</ele>
        <time>2014-11-16T11:36:12Z</time>
      </trkpt>
      <trkpt lat="43.21338" lon="5.45242">
        <ele>84</ele>
        <time>2014-11-16T11:36:22Z</time>
      </trkpt>
      <trkpt lat="43.21342" lon="5.4525">
        <ele>81</ele>
        <time>2014-11-16T11:36:32Z</time>
      </trkpt>
      <trkpt lat="43.21344" lon="5.4526">
        <ele>79</ele>
        <time>2014-11-16T11:36:41Z</time>
      </trkpt>
      <trkpt lat="43.21342" lon="5.45267">
        <ele>82</ele>
        <time>2014-11-16T11:36:57Z</time>
      </trkpt>
      <trkpt lat="43.21345" lon="5.45272">
        <ele>84</ele>
        <time>2014-11-16T11:37:08Z</time>
      </trkpt>
      <trkpt lat="43.21344" lon="5.45264">
        <ele>84</ele>
        <time>2014-11-16T11:37:18Z</time>
      </trkpt>
      <trkpt lat="43.21344" lon="5.45269">
        <ele>84</ele>
        <time>2014-11-16T11:37:27Z</time>
      </trkpt>
      <trkpt lat="43.21346" lon="5.45285">
        <ele>84</ele>
        <time>2014-11-16T11:37:36Z</time>
      </trkpt>
      <trkpt lat="43.21348" lon="5.45302">
        <ele>84</ele>
        <time>2014-11-16T11:37:45Z</time>
      </trkpt>
      <trkpt lat="43.21345" lon="5.4532">
        <ele>84</ele>
        <time>2014-11-16T11:37:54Z</time>
      </trkpt>
      <trkpt lat="43.2134" lon="5.45336">
        <ele>84</ele>
        <time>2014-11-16T11:38:03Z</time>
      </trkpt>
      <trkpt lat="43.21335" lon="5.4535">
        <ele>84</ele>
        <time>2014-11-16T11:38:12Z</time>
      </trkpt>
      <trkpt lat="43.21332" lon="5.45367">
        <ele>84</ele>
        <time>2014-11-16T11:38:22Z</time>
      </trkpt>
      <trkpt lat="43.21328" lon="5.45384">
        <ele>84</ele>
        <time>2014-11-16T11:38:31Z</time>
      </trkpt>
      <trkpt lat="43.21325" lon="5.454">
        <ele>83</ele>
        <time>2014-11-16T11:38:40Z</time>
      </trkpt>
      <trkpt lat="43.21324" lon="5.45415">
        <ele>80</ele>
        <time>2014-11-16T11:38:49Z</time>
      </trkpt>
      <trkpt lat="43.21321" lon="5.45432">
        <ele>78</ele>
        <time>2014-11-16T11:38:58Z</time>
      </trkpt>
      <trkpt lat="43.21319" lon="5.45446">
        <ele>75</ele>
        <time>2014-11-16T11:39:07Z</time>
      </trkpt>
      <trkpt lat="43.21315" lon="5.45462">
        <ele>73</ele>
        <time>2014-11-16T11:39:16Z</time>
      </trkpt>
      <trkpt lat="43.21314" lon="5.45477">
        <ele>73</ele>
        <time>2014-11-16T11:39:25Z</time>
      </trkpt>
      <trkpt lat="43.21316" lon="5.45494">
        <ele>73</ele>
        <time>2014-11-16T11:39:34Z</time>
      </trkpt>
      <trkpt lat="43.21317" lon="5.45512">
        <ele>70</ele>
        <time>2014-11-16T11:39:43Z</time>
      </trkpt>
      <trkpt lat="43.21315" lon="5.45529">
        <ele>70</ele>
        <time>2014-11-16T11:39:52Z</time>
      </trkpt>
      <trkpt lat="43.21312" lon="5.45545">
        <ele>70</ele>
        <time>2014-11-16T11:40:01Z</time>
      </trkpt>
      <trkpt lat="43.21307" lon="5.45561">
        <ele>70</ele>
        <time>2014-11-16T11:40:11Z</time>
      </trkpt>
      <trkpt lat="43.21305" lon="5.45576">
        <ele>69</ele>
        <time>2014-11-16T11:40:20Z</time>
      </trkpt>
      <trkpt lat="43.21306" lon="5.45592">
        <ele>63</ele>
        <time>2014-11-16T11:40:29Z</time>
      </trkpt>
      <trkpt lat="43.21305" lon="5.45604">
        <ele>59</ele>
        <time>2014-11-16T11:40:38Z</time>
      </trkpt>
      <trkpt lat="43.21308" lon="5.45609">
        <ele>55</ele>
        <time>2014-11-16T11:40:52Z</time>
      </trkpt>
      <trkpt lat="43.21317" lon="5.4561">
        <ele>54</ele>
        <time>2014-11-16T11:41:02Z</time>
      </trkpt>
      <trkpt lat="43.21322" lon="5.45609">
        <ele>46</ele>
        <time>2014-11-16T11:41:12Z</time>
      </trkpt>
      <trkpt lat="43.21318" lon="5.45603">
        <ele>46</ele>
        <time>2014-11-16T11:41:22Z</time>
      </trkpt>
      <trkpt lat="43.21315" lon="5.45596">
        <ele>51</ele>
        <time>2014-11-16T11:41:31Z</time>
      </trkpt>
      <trkpt lat="43.2131" lon="5.45588">
        <ele>60</ele>
        <time>2014-11-16T11:41:42Z</time>
      </trkpt>
      <trkpt lat="43.21311" lon="5.45583">
        <ele>65</ele>
        <time>2014-11-16T11:41:52Z</time>
      </trkpt>
      <trkpt lat="43.21313" lon="5.45577">
        <ele>67</ele>
        <time>2014-11-16T11:42:01Z</time>
      </trkpt>
      <trkpt lat="43.21315" lon="5.4557">
        <ele>72</ele>
        <time>2014-11-16T11:42:11Z</time>
      </trkpt>
      <trkpt lat="43.21315" lon="5.45563">
        <ele>79</ele>
        <time>2014-11-16T11:42:21Z</time>
      </trkpt>
      <trkpt lat="43.21323" lon="5.45563">
        <ele>79</ele>
        <time>2014-11-16T11:42:31Z</time>
      </trkpt>
      <trkpt lat="43.21321" lon="5.45559">
        <ele>77</ele>
        <time>2014-11-16T11:42:44Z</time>
      </trkpt>
      <trkpt lat="43.21326" lon="5.45563">
        <ele>77</ele>
        <time>2014-11-16T11:42:53Z</time>
      </trkpt>
      <trkpt lat="43.21327" lon="5.45561">
        <ele>76</ele>
        <time>2014-11-16T11:43:02Z</time>
      </trkpt>
      <trkpt lat="43.21325" lon="5.45554">
        <ele>82</ele>
        <time>2014-11-16T11:43:14Z</time>
      </trkpt>
      <trkpt lat="43.21331" lon="5.4555">
        <ele>83</ele>
        <time>2014-11-16T11:43:24Z</time>
      </trkpt>
      <trkpt lat="43.21336" lon="5.45546">
        <ele>84</ele>
        <time>2014-11-16T11:43:34Z</time>
      </trkpt>
      <trkpt lat="43.21339" lon="5.45538">
        <ele>86</ele>
        <time>2014-11-16T11:43:45Z</time>
      </trkpt>
      <trkpt lat="43.21339" lon="5.45529">
        <ele>86</ele>
        <time>2014-11-16T11:43:54Z</time>
      </trkpt>
      <trkpt lat="43.2134" lon="5.45526">
        <ele>87</ele>
        <time>2014-11-16T11:44:05Z</time>
      </trkpt>
      <trkpt lat="43.21344" lon="5.45514">
        <ele>86</ele>
        <time>2014-11-16T11:44:14Z</time>
      </trkpt>
      <trkpt lat="43.2135" lon="5.45504">
        <ele>85</ele>
        <time>2014-11-16T11:44:26Z</time>
      </trkpt>
      <trkpt lat="43.21353" lon="5.45501">
        <ele>92</ele>
        <time>2014-11-16T11:44:40Z</time>
      </trkpt>
      <trkpt lat="43.21355" lon="5.45497">
        <ele>95</ele>
        <time>2014-11-16T11:44:51Z</time>
      </trkpt>
      <trkpt lat="43.21358" lon="5.45491">
        <ele>99</ele>
        <time>2014-11-16T11:45:02Z</time>
      </trkpt>
      <trkpt lat="43.21358" lon="5.45489">
        <ele>105</ele>
        <time>2014-11-16T11:45:11Z</time>
      </trkpt>
      <trkpt lat="43.21359" lon="5.45485">
        <ele>106</ele>
        <time>2014-11-16T11:45:22Z</time>
      </trkpt>
      <trkpt lat="43.21361" lon="5.45475">
        <ele>107</ele>
        <time>2014-11-16T11:45:32Z</time>
      </trkpt>
      <trkpt lat="43.21364" lon="5.45472">
        <ele>108</ele>
        <time>2014-11-16T11:45:46Z</time>
      </trkpt>
      <trkpt lat="43.21361" lon="5.45467">
        <ele>111</ele>
        <time>2014-11-16T11:45:55Z</time>
      </trkpt>
      <trkpt lat="43.21359" lon="5.45461">
        <ele>114</ele>
        <time>2014-11-16T11:46:05Z</time>
      </trkpt>
      <trkpt lat="43.21358" lon="5.45453">
        <ele>114</ele>
        <time>2014-11-16T11:46:14Z</time>
      </trkpt>
      <trkpt lat="43.21365" lon="5.45442">
        <ele>114</ele>
        <time>2014-11-16T11:46:23Z</time>
      </trkpt>
      <trkpt lat="43.21372" lon="5.45432">
        <ele>113</ele>
        <time>2014-11-16T11:46:33Z</time>
      </trkpt>
      <trkpt lat="43.21374" lon="5.45425">
        <ele>113</ele>
        <time>2014-11-16T11:46:44Z</time>
      </trkpt>
      <trkpt lat="43.21373" lon="5.45419">
        <ele>112</ele>
        <time>2014-11-16T11:46:55Z</time>
      </trkpt>
      <trkpt lat="43.21376" lon="5.45414">
        <ele>109</ele>
        <time>2014-11-16T11:47:04Z</time>
      </trkpt>
      <trkpt lat="43.2138" lon="5.45406">
        <ele>109</ele>
        <time>2014-11-16T11:47:14Z</time>
      </trkpt>
      <trkpt lat="43.21383" lon="5.45398">
        <ele>109</ele>
        <time>2014-11-16T11:47:23Z</time>
      </trkpt>
      <trkpt lat="43.21389" lon="5.45394">
        <ele>109</ele>
        <time>2014-11-16T11:47:32Z</time>
      </trkpt>
      <trkpt lat="43.21391" lon="5.45393">
        <ele>108</ele>
        <time>2014-11-16T11:47:46Z</time>
      </trkpt>
      <trkpt lat="43.21393" lon="5.45392">
        <ele>103</ele>
        <time>2014-11-16T11:47:56Z</time>
      </trkpt>
      <trkpt lat="43.21396" lon="5.45386">
        <ele>103</ele>
        <time>2014-11-16T11:48:05Z</time>
      </trkpt>
      <trkpt lat="43.21397" lon="5.45376">
        <ele>106</ele>
        <time>2014-11-16T11:48:15Z</time>
      </trkpt>
      <trkpt lat="43.21402" lon="5.45365">
        <ele>107</ele>
        <time>2014-11-16T11:48:25Z</time>
      </trkpt>
      <trkpt lat="43.21403" lon="5.45355">
        <ele>108</ele>
        <time>2014-11-16T11:48:35Z</time>
      </trkpt>
      <trkpt lat="43.21402" lon="5.45342">
        <ele>114</ele>
        <time>2014-11-16T11:48:45Z</time>
      </trkpt>
      <trkpt lat="43.21403" lon="5.45331">
        <ele>120</ele>
        <time>2014-11-16T11:48:55Z</time>
      </trkpt>
      <trkpt lat="43.2141" lon="5.45319">
        <ele>120</ele>
        <time>2014-11-16T11:49:05Z</time>
      </trkpt>
      <trkpt lat="43.21412" lon="5.45312">
        <ele>120</ele>
        <time>2014-11-16T11:49:15Z</time>
      </trkpt>
      <trkpt lat="43.21408" lon="5.45302">
        <ele>122</ele>
        <time>2014-11-16T11:49:36Z</time>
      </trkpt>
      <trkpt lat="43.21412" lon="5.45294">
        <ele>124</ele>
        <time>2014-11-16T11:49:48Z</time>
      </trkpt>
      <trkpt lat="43.21413" lon="5.45287">
        <ele>126</ele>
        <time>2014-11-16T11:49:57Z</time>
      </trkpt>
      <trkpt lat="43.21415" lon="5.45278">
        <ele>126</ele>
        <time>2014-11-16T11:50:07Z</time>
      </trkpt>
      <trkpt lat="43.21414" lon="5.45269">
        <ele>130</ele>
        <time>2014-11-16T11:50:17Z</time>
      </trkpt>
      <trkpt lat="43.2141" lon="5.45262">
        <ele>136</ele>
        <time>2014-11-16T11:50:27Z</time>
      </trkpt>
      <trkpt lat="43.21407" lon="5.45256">
        <ele>142</ele>
        <time>2014-11-16T11:50:37Z</time>
      </trkpt>
      <trkpt lat="43.21407" lon="5.45248">
        <ele>147</ele>
        <time>2014-11-16T11:50:46Z</time>
      </trkpt>
      <trkpt lat="43.21411" lon="5.45236">
        <ele>147</ele>
        <time>2014-11-16T11:50:56Z</time>
      </trkpt>
      <trkpt lat="43.21409" lon="5.45232">
        <ele>149</ele>
        <time>2014-11-16T11:51:06Z</time>
      </trkpt>
      <trkpt lat="43.21405" lon="5.45227">
        <ele>155</ele>
        <time>2014-11-16T11:51:15Z</time>
      </trkpt>
      <trkpt lat="43.214" lon="5.45221">
        <ele>165</ele>
        <time>2014-11-16T11:51:28Z</time>
      </trkpt>
      <trkpt lat="43.21401" lon="5.45216">
        <ele>165</ele>
        <time>2014-11-16T11:51:37Z</time>
      </trkpt>
      <trkpt lat="43.21402" lon="5.45213">
        <ele>168</ele>
        <time>2014-11-16T11:51:46Z</time>
      </trkpt>
      <trkpt lat="43.21396" lon="5.45206">
        <ele>174</ele>
        <time>2014-11-16T11:51:56Z</time>
      </trkpt>
      <trkpt lat="43.21398" lon="5.45208">
        <ele>175</ele>
        <time>2014-11-16T11:52:05Z</time>
      </trkpt>
      <trkpt lat="43.21401" lon="5.45211">
        <ele>175</ele>
        <time>2014-11-16T11:52:19Z</time>
      </trkpt>
      <trkpt lat="43.21403" lon="5.45219">
        <ele>179</ele>
        <time>2014-11-16T11:52:29Z</time>
      </trkpt>
      <trkpt lat="43.21406" lon="5.45216">
        <ele>180</ele>
        <time>2014-11-16T11:52:38Z</time>
      </trkpt>
      <trkpt lat="43.21408" lon="5.45219">
        <ele>187</ele>
        <time>2014-11-16T11:52:50Z</time>
      </trkpt>
      <trkpt lat="43.21409" lon="5.45222">
        <ele>193</ele>
        <time>2014-11-16T11:53:02Z</time>
      </trkpt>
      <trkpt lat="43.21408" lon="5.45224">
        <ele>200</ele>
        <time>2014-11-16T11:53:14Z</time>
      </trkpt>
      <trkpt lat="43.21408" lon="5.45226">
        <ele>202</ele>
        <time>2014-11-16T11:53:25Z</time>
      </trkpt>
      <trkpt lat="43.21409" lon="5.45226">
        <ele>206</ele>
        <time>2014-11-16T11:53:36Z</time>
      </trkpt>
      <trkpt lat="43.2141" lon="5.45225">
        <ele>211</ele>
        <time>2014-11-16T11:53:48Z</time>
      </trkpt>
      <trkpt lat="43.2141" lon="5.45225">
        <ele>211</ele>
        <time>2014-11-16T11:54:01Z</time>
      </trkpt>
      <trkpt lat="43.21413" lon="5.45216">
        <ele>206</ele>
        <time>2014-11-16T11:54:13Z</time>
      </trkpt>
      <trkpt lat="43.21415" lon="5.4521">
        <ele>199</ele>
        <time>2014-11-16T11:54:22Z</time>
      </trkpt>
      <trkpt lat="43.21417" lon="5.45206">
        <ele>195</ele>
        <time>2014-11-16T11:54:36Z</time>
      </trkpt>
      <trkpt lat="43.21422" lon="5.45201">
        <ele>189</ele>
        <time>2014-11-16T11:54:45Z</time>
      </trkpt>
      <trkpt lat="43.21426" lon="5.45198">
        <ele>182</ele>
        <time>2014-11-16T11:54:54Z</time>
      </trkpt>
      <trkpt lat="43.21426" lon="5.45193">
        <ele>179</ele>
        <time>2014-11-16T11:55:03Z</time>
      </trkpt>
      <trkpt lat="43.21424" lon="5.45191">
        <ele>173</ele>
        <time>2014-11-16T11:55:13Z</time>
      </trkpt>
      <trkpt lat="43.21419" lon="5.45187">
        <ele>170</ele>
        <time>2014-11-16T11:55:22Z</time>
      </trkpt>
      <trkpt lat="43.21419" lon="5.45184">
        <ele>167</ele>
        <time>2014-11-16T11:55:33Z</time>
      </trkpt>
      <trkpt lat="43.21419" lon="5.45184">
        <ele>164</ele>
        <time>2014-11-16T11:55:45Z</time>
      </trkpt>
      <trkpt lat="43.21419" lon="5.45189">
        <ele>166</ele>
        <time>2014-11-16T11:55:55Z</time>
      </trkpt>
      <trkpt lat="43.21416" lon="5.45185">
        <ele>166</ele>
        <time>2014-11-16T11:56:05Z</time>
      </trkpt>
      <trkpt lat="43.21423" lon="5.45187">
        <ele>167</ele>
        <time>2014-11-16T11:56:15Z</time>
      </trkpt>
      <trkpt lat="43.21425" lon="5.45185">
        <ele>174</ele>
        <time>2014-11-16T11:56:33Z</time>
      </trkpt>
      <trkpt lat="43.2143" lon="5.45186">
        <ele>172</ele>
        <time>2014-11-16T11:56:43Z</time>
      </trkpt>
      <trkpt lat="43.21432" lon="5.45186">
        <ele>172</ele>
        <time>2014-11-16T11:56:54Z</time>
      </trkpt>
      <trkpt lat="43.21436" lon="5.45181">
        <ele>172</ele>
        <time>2014-11-16T11:57:06Z</time>
      </trkpt>
      <trkpt lat="43.21441" lon="5.45182">
        <ele>178</ele>
        <time>2014-11-16T11:57:15Z</time>
      </trkpt>
      <trkpt lat="43.21444" lon="5.45179">
        <ele>180</ele>
        <time>2014-11-16T11:57:24Z</time>
      </trkpt>
      <trkpt lat="43.21449" lon="5.45176">
        <ele>181</ele>
        <time>2014-11-16T11:57:34Z</time>
      </trkpt>
      <trkpt lat="43.21449" lon="5.4517">
        <ele>181</ele>
        <time>2014-11-16T11:57:44Z</time>
      </trkpt>
      <trkpt lat="43.21449" lon="5.45166">
        <ele>181</ele>
        <time>2014-11-16T11:57:53Z</time>
      </trkpt>
      <trkpt lat="43.21451" lon="5.4516">
        <ele>179</ele>
        <time>2014-11-16T11:58:04Z</time>
      </trkpt>
      <trkpt lat="43.21452" lon="5.45158">
        <ele>179</ele>
        <time>2014-11-16T11:58:27Z</time>
      </trkpt>
      <trkpt lat="43.21451" lon="5.45157">
        <ele>179</ele>
        <time>2014-11-16T11:58:40Z</time>
      </trkpt>
      <trkpt lat="43.21451" lon="5.45158">
        <ele>179</ele>
        <time>2014-11-16T11:58:49Z</time>
      </trkpt>
      <trkpt lat="43.21452" lon="5.45156">
        <ele>179</ele>
        <time>2014-11-16T11:59:14Z</time>
      </trkpt>
      <trkpt lat="43.21451" lon="5.45155">
        <ele>179</ele>
        <time>2014-11-16T11:59:34Z</time>
      </trkpt>
      <trkpt lat="43.21453" lon="5.45154">
        <ele>179</ele>
        <time>2014-11-16T11:59:50Z</time>
      </trkpt>
      <trkpt lat="43.21458" lon="5.45149">
        <ele>179</ele>
        <time>2014-11-16T12:00:01Z</time>
      </trkpt>
      <trkpt lat="43.2146" lon="5.45144">
        <ele>179</ele>
        <time>2014-11-16T12:00:10Z</time>
      </trkpt>
      <trkpt lat="43.21462" lon="5.4514">
        <ele>179</ele>
        <time>2014-11-16T12:00:20Z</time>
      </trkpt>
      <trkpt lat="43.21465" lon="5.45139">
        <ele>179</ele>
        <time>2014-11-16T12:00:31Z</time>
      </trkpt>
      <trkpt lat="43.21468" lon="5.45136">
        <ele>181</ele>
        <time>2014-11-16T12:00:42Z</time>
      </trkpt>
      <trkpt lat="43.21472" lon="5.45134">
        <ele>183</ele>
        <time>2014-11-16T12:00:52Z</time>
      </trkpt>
      <trkpt lat="43.21476" lon="5.45126">
        <ele>185</ele>
        <time>2014-11-16T12:01:01Z</time>
      </trkpt>
      <trkpt lat="43.2148" lon="5.45119">
        <ele>186</ele>
        <time>2014-11-16T12:01:11Z</time>
      </trkpt>
      <trkpt lat="43.21484" lon="5.45111">
        <ele>188</ele>
        <time>2014-11-16T12:01:21Z</time>
      </trkpt>
      <trkpt lat="43.21488" lon="5.45111">
        <ele>188</ele>
        <time>2014-11-16T12:01:30Z</time>
      </trkpt>
      <trkpt lat="43.21494" lon="5.4511">
        <ele>189</ele>
        <time>2014-11-16T12:01:40Z</time>
      </trkpt>
      <trkpt lat="43.21498" lon="5.45111">
        <ele>190</ele>
        <time>2014-11-16T12:01:50Z</time>
      </trkpt>
      <trkpt lat="43.21506" lon="5.4511">
        <ele>190</ele>
        <time>2014-11-16T12:02:00Z</time>
      </trkpt>
      <trkpt lat="43.21513" lon="5.45113">
        <ele>190</ele>
        <time>2014-11-16T12:02:10Z</time>
      </trkpt>
      <trkpt lat="43.2152" lon="5.45116">
        <ele>190</ele>
        <time>2014-11-16T12:02:20Z</time>
      </trkpt>
      <trkpt lat="43.21527" lon="5.45118">
        <ele>190</ele>
        <time>2014-11-16T12:02:29Z</time>
      </trkpt>
      <trkpt lat="43.21534" lon="5.45123">
        <ele>192</ele>
        <time>2014-11-16T12:02:39Z</time>
      </trkpt>
      <trkpt lat="43.21539" lon="5.45128">
        <ele>193</ele>
        <time>2014-11-16T12:02:49Z</time>
      </trkpt>
      <trkpt lat="43.21541" lon="5.45133">
        <ele>196</ele>
        <time>2014-11-16T12:02:59Z</time>
      </trkpt>
      <trkpt lat="43.21546" lon="5.45136">
        <ele>197</ele>
        <time>2014-11-16T12:03:09Z</time>
      </trkpt>
      <trkpt lat="43.21547" lon="5.45138">
        <ele>198</ele>
        <time>2014-11-16T12:03:26Z</time>
      </trkpt>
      <trkpt lat="43.21548" lon="5.45138">
        <ele>198</ele>
        <time>2014-11-16T12:03:38Z</time>
      </trkpt>
      <trkpt lat="43.21552" lon="5.4514">
        <ele>198</ele>
        <time>2014-11-16T12:03:47Z</time>
      </trkpt>
      <trkpt lat="43.2156" lon="5.45143">
        <ele>199</ele>
        <time>2014-11-16T12:03:57Z</time>
      </trkpt>
      <trkpt lat="43.21568" lon="5.45146">
        <ele>199</ele>
        <time>2014-11-16T12:04:07Z</time>
      </trkpt>
      <trkpt lat="43.21574" lon="5.45152">
        <ele>199</ele>
        <time>2014-11-16T12:04:17Z</time>
      </trkpt>
      <trkpt lat="43.21579" lon="5.45159">
        <ele>199</ele>
        <time>2014-11-16T12:04:27Z</time>
      </trkpt>
      <trkpt lat="43.21584" lon="5.45167">
        <ele>201</ele>
        <time>2014-11-16T12:04:36Z</time>
      </trkpt>
      <trkpt lat="43.21584" lon="5.45172">
        <ele>203</ele>
        <time>2014-11-16T12:04:46Z</time>
      </trkpt>
      <trkpt lat="43.21586" lon="5.45175">
        <ele>205</ele>
        <time>2014-11-16T12:04:58Z</time>
      </trkpt>
      <trkpt lat="43.21584" lon="5.45179">
        <ele>205</ele>
        <time>2014-11-16T12:05:07Z</time>
      </trkpt>
      <trkpt lat="43.21584" lon="5.45182">
        <ele>206</ele>
        <time>2014-11-16T12:05:19Z</time>
      </trkpt>
      <trkpt lat="43.21582" lon="5.45181">
        <ele>206</ele>
        <time>2014-11-16T12:06:18Z</time>
      </trkpt>
      <trkpt lat="43.21584" lon="5.45181">
        <ele>206</ele>
        <time>2014-11-16T12:06:57Z</time>
      </trkpt>
      <trkpt lat="43.21584" lon="5.4518">
        <ele>207</ele>
        <time>2014-11-16T12:07:08Z</time>
      </trkpt>
      <trkpt lat="43.21585" lon="5.45181">
        <ele>208</ele>
        <time>2014-11-16T12:07:19Z</time>
      </trkpt>
      <trkpt lat="43.21589" lon="5.45185">
        <ele>209</ele>
        <time>2014-11-16T12:07:28Z</time>
      </trkpt>
      <trkpt lat="43.21595" lon="5.45192">
        <ele>210</ele>
        <time>2014-11-16T12:07:38Z</time>
      </trkpt>
      <trkpt lat="43.21593" lon="5.45196">
        <ele>212</ele>
        <time>2014-11-16T12:07:47Z</time>
      </trkpt>
      <trkpt lat="43.21585" lon="5.45197">
        <ele>213</ele>
        <time>2014-11-16T12:07:56Z</time>
      </trkpt>
      <trkpt lat="43.21574" lon="5.45196">
        <ele>213</ele>
        <time>2014-11-16T12:08:05Z</time>
      </trkpt>
      <trkpt lat="43.21563" lon="5.45196">
        <ele>213</ele>
        <time>2014-11-16T12:08:15Z</time>
      </trkpt>
      <trkpt lat="43.21563" lon="5.45198">
        <ele>213</ele>
        <time>2014-11-16T12:08:31Z</time>
      </trkpt>
      <trkpt lat="43.21555" lon="5.45199">
        <ele>213</ele>
        <time>2014-11-16T12:08:40Z</time>
      </trkpt>
      <trkpt lat="43.21545" lon="5.452">
        <ele>213</ele>
        <time>2014-11-16T12:08:49Z</time>
      </trkpt>
      <trkpt lat="43.21533" lon="5.452">
        <ele>213</ele>
        <time>2014-11-16T12:08:58Z</time>
      </trkpt>
      <trkpt lat="43.21521" lon="5.45199">
        <ele>213</ele>
        <time>2014-11-16T12:09:07Z</time>
      </trkpt>
      <trkpt lat="43.21508" lon="5.45197">
        <ele>213</ele>
        <time>2014-11-16T12:09:16Z</time>
      </trkpt>
      <trkpt lat="43.21497" lon="5.452">
        <ele>213</ele>
        <time>2014-11-16T12:09:25Z</time>
      </trkpt>
      <trkpt lat="43.21487" lon="5.45205">
        <ele>213</ele>
        <time>2014-11-16T12:09:35Z</time>
      </trkpt>
      <trkpt lat="43.21476" lon="5.45215">
        <ele>213</ele>
        <time>2014-11-16T12:09:46Z</time>
      </trkpt>
      <trkpt lat="43.21465" lon="5.45225">
        <ele>212</ele>
        <time>2014-11-16T12:09:56Z</time>
      </trkpt>
      <trkpt lat="43.2146" lon="5.45236">
        <ele>211</ele>
        <time>2014-11-16T12:10:06Z</time>
      </trkpt>
      <trkpt lat="43.21456" lon="5.45248">
        <ele>210</ele>
        <time>2014-11-16T12:10:16Z</time>
      </trkpt>
      <trkpt lat="43.21451" lon="5.4526">
        <ele>210</ele>
        <time>2014-11-16T12:10:26Z</time>
      </trkpt>
      <trkpt lat="43.21447" lon="5.45273">
        <ele>208</ele>
        <time>2014-11-16T12:10:36Z</time>
      </trkpt>
      <trkpt lat="43.21445" lon="5.45283">
        <ele>204</ele>
        <time>2014-11-16T12:10:46Z</time>
      </trkpt>
      <trkpt lat="43.21447" lon="5.45295">
        <ele>201</ele>
        <time>2014-11-16T12:10:56Z</time>
      </trkpt>
      <trkpt lat="43.2145" lon="5.45309">
        <ele>197</ele>
        <time>2014-11-16T12:11:06Z</time>
      </trkpt>
      <trkpt lat="43.21452" lon="5.45323">
        <ele>197</ele>
        <time>2014-11-16T12:11:16Z</time>
      </trkpt>
      <trkpt lat="43.21457" lon="5.45338">
        <ele>194</ele>
        <time>2014-11-16T12:11:26Z</time>
      </trkpt>
      <trkpt lat="43.21463" lon="5.45351">
        <ele>191</ele>
        <time>2014-11-16T12:11:36Z</time>
      </trkpt>
      <trkpt lat="43.21468" lon="5.45363">
        <ele>190</ele>
        <time>2014-11-16T12:11:46Z</time>
      </trkpt>
      <trkpt lat="43.21469" lon="5.45376">
        <ele>189</ele>
        <time>2014-11-16T12:11:55Z</time>
      </trkpt>
      <trkpt lat="43.21466" lon="5.4539">
        <ele>189</ele>
        <time>2014-11-16T12:12:07Z</time>
      </trkpt>
      <trkpt lat="43.21462" lon="5.45401">
        <ele>193</ele>
        <time>2014-11-16T12:12:17Z</time>
      </trkpt>
      <trkpt lat="43.21457" lon="5.45412">
        <ele>193</ele>
        <time>2014-11-16T12:12:28Z</time>
      </trkpt>
      <trkpt lat="43.21453" lon="5.45424">
        <ele>193</ele>
        <time>2014-11-16T12:12:38Z</time>
      </trkpt>
      <trkpt lat="43.21451" lon="5.45436">
        <ele>193</ele>
        <time>2014-11-16T12:12:47Z</time>
      </trkpt>
      <trkpt lat="43.21449" lon="5.45447">
        <ele>193</ele>
        <time>2014-11-16T12:12:56Z</time>
      </trkpt>
      <trkpt lat="43.21443" lon="5.45458">
        <ele>193</ele>
        <time>2014-11-16T12:13:06Z</time>
      </trkpt>
      <trkpt lat="43.21439" lon="5.4547">
        <ele>190</ele>
        <time>2014-11-16T12:13:16Z</time>
      </trkpt>
      <trkpt lat="43.21433" lon="5.45481">
        <ele>189</ele>
        <time>2014-11-16T12:13:25Z</time>
      </trkpt>
      <trkpt lat="43.21431" lon="5.45493">
        <ele>187</ele>
        <time>2014-11-16T12:13:34Z</time>
      </trkpt>
      <trkpt lat="43.21429" lon="5.45506">
        <ele>186</ele>
        <time>2014-11-16T12:13:43Z</time>
      </trkpt>
      <trkpt lat="43.21427" lon="5.45519">
        <ele>186</ele>
        <time>2014-11-16T12:13:53Z</time>
      </trkpt>
      <trkpt lat="43.21425" lon="5.45529">
        <ele>184</ele>
        <time>2014-11-16T12:14:04Z</time>
      </trkpt>
      <trkpt lat="43.21422" lon="5.45535">
        <ele>181</ele>
        <time>2014-11-16T12:14:13Z</time>
      </trkpt>
      <trkpt lat="43.21422" lon="5.45547">
        <ele>181</ele>
        <time>2014-11-16T12:14:22Z</time>
      </trkpt>
      <trkpt lat="43.21422" lon="5.4556">
        <ele>178</ele>
        <time>2014-11-16T12:14:31Z</time>
      </trkpt>
      <trkpt lat="43.21424" lon="5.45574">
        <ele>177</ele>
        <time>2014-11-16T12:14:40Z</time>
      </trkpt>
      <trkpt lat="43.21426" lon="5.45586">
        <ele>176</ele>
        <time>2014-11-16T12:14:49Z</time>
      </trkpt>
      <trkpt lat="43.21426" lon="5.45586">
        <ele>176</ele>
        <time>2014-11-16T12:14:59Z</time>
      </trkpt>
      <trkpt lat="43.21421" lon="5.45576">
        <ele>176</ele>
        <time>2014-11-16T12:15:09Z</time>
      </trkpt>
      <trkpt lat="43.21414" lon="5.45563">
        <ele>176</ele>
        <time>2014-11-16T12:15:19Z</time>
      </trkpt>
      <trkpt lat="43.21406" lon="5.45548">
        <ele>176</ele>
        <time>2014-11-16T12:15:30Z</time>
      </trkpt>
      <trkpt lat="43.21401" lon="5.45548">
        <ele>173</ele>
        <time>2014-11-16T12:15:40Z</time>
      </trkpt>
      <trkpt lat="43.21402" lon="5.4556">
        <ele>169</ele>
        <time>2014-11-16T12:15:49Z</time>
      </trkpt>
      <trkpt lat="43.21402" lon="5.45572">
        <ele>168</ele>
        <time>2014-11-16T12:15:59Z</time>
      </trkpt>
      <trkpt lat="43.21403" lon="5.45584">
        <ele>167</ele>
        <time>2014-11-16T12:16:08Z</time>
      </trkpt>
      <trkpt lat="43.21407" lon="5.45596">
        <ele>162</ele>
        <time>2014-11-16T12:16:17Z</time>
      </trkpt>
      <trkpt lat="43.21409" lon="5.45608">
        <ele>161</ele>
        <time>2014-11-16T12:16:26Z</time>
      </trkpt>
      <trkpt lat="43.21412" lon="5.4562">
        <ele>159</ele>
        <time>2014-11-16T12:16:35Z</time>
      </trkpt>
      <trkpt lat="43.21413" lon="5.4563">
        <ele>159</ele>
        <time>2014-11-16T12:16:45Z</time>
      </trkpt>
      <trkpt lat="43.21413" lon="5.45641">
        <ele>161</ele>
        <time>2014-11-16T12:16:55Z</time>
      </trkpt>
      <trkpt lat="43.21415" lon="5.45655">
        <ele>161</ele>
        <time>2014-11-16T12:17:04Z</time>
      </trkpt>
      <trkpt lat="43.2142" lon="5.45674">
        <ele>155</ele>
        <time>2014-11-16T12:17:13Z</time>
      </trkpt>
      <trkpt lat="43.21417" lon="5.4568">
        <ele>154</ele>
        <time>2014-11-16T12:17:23Z</time>
      </trkpt>
      <trkpt lat="43.21414" lon="5.45687">
        <ele>154</ele>
        <time>2014-11-16T12:17:32Z</time>
      </trkpt>
      <trkpt lat="43.2141" lon="5.45696">
        <ele>149</ele>
        <time>2014-11-16T12:17:42Z</time>
      </trkpt>
      <trkpt lat="43.21408" lon="5.45705">
        <ele>140</ele>
        <time>2014-11-16T12:17:51Z</time>
      </trkpt>
      <trkpt lat="43.21394" lon="5.45706">
        <ele>143</ele>
        <time>2014-11-16T12:18:00Z</time>
      </trkpt>
      <trkpt lat="43.21375" lon="5.45693">
        <ele>157</ele>
        <time>2014-11-16T12:18:10Z</time>
      </trkpt>
      <trkpt lat="43.21368" lon="5.45698">
        <ele>164</ele>
        <time>2014-11-16T12:18:20Z</time>
      </trkpt>
      <trkpt lat="43.21363" lon="5.45707">
        <ele>158</ele>
        <time>2014-11-16T12:18:30Z</time>
      </trkpt>
      <trkpt lat="43.21357" lon="5.45718">
        <ele>150</ele>
        <time>2014-11-16T12:18:39Z</time>
      </trkpt>
      <trkpt lat="43.21352" lon="5.45731">
        <ele>150</ele>
        <time>2014-11-16T12:18:48Z</time>
      </trkpt>
      <trkpt lat="43.21347" lon="5.45745">
        <ele>149</ele>
        <time>2014-11-16T12:18:58Z</time>
      </trkpt>
      <trkpt lat="43.21347" lon="5.45748">
        <ele>149</ele>
        <time>2014-11-16T12:19:10Z</time>
      </trkpt>
      <trkpt lat="43.21344" lon="5.45734">
        <ele>148</ele>
        <time>2014-11-16T12:19:20Z</time>
      </trkpt>
      <trkpt lat="43.21342" lon="5.45718">
        <ele>142</ele>
        <time>2014-11-16T12:19:30Z</time>
      </trkpt>
      <trkpt lat="43.21341" lon="5.45705">
        <ele>142</ele>
        <time>2014-11-16T12:19:39Z</time>
      </trkpt>
      <trkpt lat="43.21336" lon="5.45702">
        <ele>142</ele>
        <time>2014-11-16T12:19:49Z</time>
      </trkpt>
      <trkpt lat="43.21331" lon="5.45713">
        <ele>142</ele>
        <time>2014-11-16T12:19:59Z</time>
      </trkpt>
      <trkpt lat="43.21329" lon="5.45725">
        <ele>142</ele>
        <time>2014-11-16T12:20:08Z</time>
      </trkpt>
      <trkpt lat="43.21326" lon="5.45737">
        <ele>142</ele>
        <time>2014-11-16T12:20:18Z</time>
      </trkpt>
      <trkpt lat="43.21324" lon="5.4575">
        <ele>142</ele>
        <time>2014-11-16T12:20:27Z</time>
      </trkpt>
      <trkpt lat="43.21325" lon="5.45766">
        <ele>138</ele>
        <time>2014-11-16T12:20:36Z</time>
      </trkpt>
      <trkpt lat="43.2133" lon="5.45783">
        <ele>133</ele>
        <time>2014-11-16T12:20:45Z</time>
      </trkpt>
      <trkpt lat="43.21333" lon="5.45793">
        <ele>130</ele>
        <time>2014-11-16T12:20:54Z</time>
      </trkpt>
      <trkpt lat="43.21333" lon="5.45806">
        <ele>130</ele>
        <time>2014-11-16T12:21:03Z</time>
      </trkpt>
      <trkpt lat="43.2133" lon="5.45816">
        <ele>130</ele>
        <time>2014-11-16T12:21:12Z</time>
      </trkpt>
      <trkpt lat="43.21323" lon="5.45828">
        <ele>130</ele>
        <time>2014-11-16T12:21:22Z</time>
      </trkpt>
      <trkpt lat="43.21317" lon="5.4584">
        <ele>129</ele>
        <time>2014-11-16T12:21:32Z</time>
      </trkpt>
      <trkpt lat="43.21314" lon="5.45854">
        <ele>126</ele>
        <time>2014-11-16T12:21:41Z</time>
      </trkpt>
      <trkpt lat="43.21309" lon="5.45867">
        <ele>124</ele>
        <time>2014-11-16T12:21:51Z</time>
      </trkpt>
      <trkpt lat="43.21305" lon="5.4588">
        <ele>123</ele>
        <time>2014-11-16T12:22:01Z</time>
      </trkpt>
      <trkpt lat="43.21296" lon="5.4589">
        <ele>123</ele>
        <time>2014-11-16T12:22:10Z</time>
      </trkpt>
      <trkpt lat="43.2129" lon="5.459">
        <ele>123</ele>
        <time>2014-11-16T12:22:22Z</time>
      </trkpt>
      <trkpt lat="43.21282" lon="5.45908">
        <ele>123</ele>
        <time>2014-11-16T12:22:32Z</time>
      </trkpt>
      <trkpt lat="43.21276" lon="5.45921">
        <ele>123</ele>
        <time>2014-11-16T12:22:41Z</time>
      </trkpt>
      <trkpt lat="43.21274" lon="5.45937">
        <ele>119</ele>
        <time>2014-11-16T12:22:50Z</time>
      </trkpt>
      <trkpt lat="43.21272" lon="5.45951">
        <ele>115</ele>
        <time>2014-11-16T12:22:59Z</time>
      </trkpt>
      <trkpt lat="43.21265" lon="5.45958">
        <ele>115</ele>
        <time>2014-11-16T12:23:08Z</time>
      </trkpt>
      <trkpt lat="43.21255" lon="5.45962">
        <ele>111</ele>
        <time>2014-11-16T12:23:18Z</time>
      </trkpt>
      <trkpt lat="43.21249" lon="5.45976">
        <ele>111</ele>
        <time>2014-11-16T12:23:27Z</time>
      </trkpt>
      <trkpt lat="43.21245" lon="5.45986">
        <ele>112</ele>
        <time>2014-11-16T12:23:36Z</time>
      </trkpt>
      <trkpt lat="43.21235" lon="5.45987">
        <ele>113</ele>
        <time>2014-11-16T12:23:45Z</time>
      </trkpt>
      <trkpt lat="43.21225" lon="5.45989">
        <ele>115</ele>
        <time>2014-11-16T12:23:54Z</time>
      </trkpt>
      <trkpt lat="43.21215" lon="5.45995">
        <ele>115</ele>
        <time>2014-11-16T12:24:03Z</time>
      </trkpt>
      <trkpt lat="43.21206" lon="5.46003">
        <ele>115</ele>
        <time>2014-11-16T12:24:13Z</time>
      </trkpt>
      <trkpt lat="43.21203" lon="5.46006">
        <ele>115</ele>
        <time>2014-11-16T12:24:24Z</time>
      </trkpt>
      <trkpt lat="43.212" lon="5.46014">
        <ele>115</ele>
        <time>2014-11-16T12:24:34Z</time>
      </trkpt>
      <trkpt lat="43.21194" lon="5.46024">
        <ele>115</ele>
        <time>2014-11-16T12:24:44Z</time>
      </trkpt>
      <trkpt lat="43.2119" lon="5.46026">
        <ele>109</ele>
        <time>2014-11-16T12:25:01Z</time>
      </trkpt>
      <trkpt lat="43.21188" lon="5.46028">
        <ele>107</ele>
        <time>2014-11-16T12:25:10Z</time>
      </trkpt>
      <trkpt lat="43.21184" lon="5.46036">
        <ele>107</ele>
        <time>2014-11-16T12:25:20Z</time>
      </trkpt>
      <trkpt lat="43.21175" lon="5.46039">
        <ele>109</ele>
        <time>2014-11-16T12:25:29Z</time>
      </trkpt>
      <trkpt lat="43.21168" lon="5.46052">
        <ele>110</ele>
        <time>2014-11-16T12:25:39Z</time>
      </trkpt>
      <trkpt lat="43.21164" lon="5.46056">
        <ele>110</ele>
        <time>2014-11-16T12:25:51Z</time>
      </trkpt>
      <trkpt lat="43.21162" lon="5.46061">
        <ele>110</ele>
        <time>2014-11-16T12:26:00Z</time>
      </trkpt>
      <trkpt lat="43.21159" lon="5.46075">
        <ele>107</ele>
        <time>2014-11-16T12:26:09Z</time>
      </trkpt>
      <trkpt lat="43.21156" lon="5.46085">
        <ele>107</ele>
        <time>2014-11-16T12:26:18Z</time>
      </trkpt>
      <trkpt lat="43.21151" lon="5.46092">
        <ele>107</ele>
        <time>2014-11-16T12:26:28Z</time>
      </trkpt>
      <trkpt lat="43.21146" lon="5.46096">
        <ele>108</ele>
        <time>2014-11-16T12:26:37Z</time>
      </trkpt>
      <trkpt lat="43.21139" lon="5.46106">
        <ele>108</ele>
        <time>2014-11-16T12:26:46Z</time>
      </trkpt>
      <trkpt lat="43.21137" lon="5.46115">
        <ele>108</ele>
        <time>2014-11-16T12:26:55Z</time>
      </trkpt>
      <trkpt lat="43.21134" lon="5.46131">
        <ele>110</ele>
        <time>2014-11-16T12:27:04Z</time>
      </trkpt>
      <trkpt lat="43.21128" lon="5.46139">
        <ele>111</ele>
        <time>2014-11-16T12:27:13Z</time>
      </trkpt>
      <trkpt lat="43.2112" lon="5.46141">
        <ele>111</ele>
        <time>2014-11-16T12:27:22Z</time>
      </trkpt>
      <trkpt lat="43.21119" lon="5.46161">
        <ele>112</ele>
        <time>2014-11-16T12:27:31Z</time>
      </trkpt>
      <trkpt lat="43.21115" lon="5.46168">
        <ele>112</ele>
        <time>2014-11-16T12:27:40Z</time>
      </trkpt>
      <trkpt lat="43.21112" lon="5.46181">
        <ele>112</ele>
        <time>2014-11-16T12:27:50Z</time>
      </trkpt>
      <trkpt lat="43.21109" lon="5.46187">
        <ele>112</ele>
        <time>2014-11-16T12:28:00Z</time>
      </trkpt>
      <trkpt lat="43.21109" lon="5.46199">
        <ele>110</ele>
        <time>2014-11-16T12:28:09Z</time>
      </trkpt>
      <trkpt lat="43.21109" lon="5.4621">
        <ele>101</ele>
        <time>2014-11-16T12:28:20Z</time>
      </trkpt>
      <trkpt lat="43.21108" lon="5.46219">
        <ele>101</ele>
        <time>2014-11-16T12:28:29Z</time>
      </trkpt>
      <trkpt lat="43.21108" lon="5.46232">
        <ele>96</ele>
        <time>2014-11-16T12:28:39Z</time>
      </trkpt>
      <trkpt lat="43.21105" lon="5.46243">
        <ele>96</ele>
        <time>2014-11-16T12:28:48Z</time>
      </trkpt>
      <trkpt lat="43.21096" lon="5.46249">
        <ele>96</ele>
        <time>2014-11-16T12:28:58Z</time>
      </trkpt>
      <trkpt lat="43.21092" lon="5.46265">
        <ele>96</ele>
        <time>2014-11-16T12:29:08Z</time>
      </trkpt>
      <trkpt lat="43.21088" lon="5.46274">
        <ele>93</ele>
        <time>2014-11-16T12:29:17Z</time>
      </trkpt>
      <trkpt lat="43.21089" lon="5.46286">
        <ele>88</ele>
        <time>2014-11-16T12:29:26Z</time>
      </trkpt>
      <trkpt lat="43.21089" lon="5.46292">
        <ele>82</ele>
        <time>2014-11-16T12:29:35Z</time>
      </trkpt>
      <trkpt lat="43.21082" lon="5.46291">
        <ele>79</ele>
        <time>2014-11-16T12:29:44Z</time>
      </trkpt>
      <trkpt lat="43.21075" lon="5.46295">
        <ele>79</ele>
        <time>2014-11-16T12:29:55Z</time>
      </trkpt>
      <trkpt lat="43.21071" lon="5.46298">
        <ele>79</ele>
        <time>2014-11-16T12:30:05Z</time>
      </trkpt>
      <trkpt lat="43.21068" lon="5.46295">
        <ele>79</ele>
        <time>2014-11-16T12:30:15Z</time>
      </trkpt>
      <trkpt lat="43.21061" lon="5.46297">
        <ele>79</ele>
        <time>2014-11-16T12:30:26Z</time>
      </trkpt>
      <trkpt lat="43.21056" lon="5.46299">
        <ele>80</ele>
        <time>2014-11-16T12:30:35Z</time>
      </trkpt>
      <trkpt lat="43.21051" lon="5.46308">
        <ele>80</ele>
        <time>2014-11-16T12:30:45Z</time>
      </trkpt>
      <trkpt lat="43.21048" lon="5.46315">
        <ele>79</ele>
        <time>2014-11-16T12:30:54Z</time>
      </trkpt>
      <trkpt lat="43.21046" lon="5.46322">
        <ele>75</ele>
        <time>2014-11-16T12:31:03Z</time>
      </trkpt>
      <trkpt lat="43.21038" lon="5.46325">
        <ele>72</ele>
        <time>2014-11-16T12:31:12Z</time>
      </trkpt>
      <trkpt lat="43.21033" lon="5.46329">
        <ele>70</ele>
        <time>2014-11-16T12:31:21Z</time>
      </trkpt>
      <trkpt lat="43.21031" lon="5.46337">
        <ele>70</ele>
        <time>2014-11-16T12:31:30Z</time>
      </trkpt>
      <trkpt lat="43.21026" lon="5.46342">
        <ele>68</ele>
        <time>2014-11-16T12:31:41Z</time>
      </trkpt>
      <trkpt lat="43.21022" lon="5.46349">
        <ele>66</ele>
        <time>2014-11-16T12:31:50Z</time>
      </trkpt>
      <trkpt lat="43.21017" lon="5.46351">
        <ele>64</ele>
        <time>2014-11-16T12:31:59Z</time>
      </trkpt>
      <trkpt lat="43.21012" lon="5.46353">
        <ele>65</ele>
        <time>2014-11-16T12:32:09Z</time>
      </trkpt>
      <trkpt lat="43.21004" lon="5.46358">
        <ele>65</ele>
        <time>2014-11-16T12:32:19Z</time>
      </trkpt>
      <trkpt lat="43.20995" lon="5.46362">
        <ele>65</ele>
        <time>2014-11-16T12:32:29Z</time>
      </trkpt>
      <trkpt lat="43.20992" lon="5.46367">
        <ele>63</ele>
        <time>2014-11-16T12:32:38Z</time>
      </trkpt>
      <trkpt lat="43.20985" lon="5.46378">
        <ele>63</ele>
        <time>2014-11-16T12:32:47Z</time>
      </trkpt>
      <trkpt lat="43.20975" lon="5.46386">
        <ele>63</ele>
        <time>2014-11-16T12:32:57Z</time>
      </trkpt>
      <trkpt lat="43.20968" lon="5.46392">
        <ele>60</ele>
        <time>2014-11-16T12:33:06Z</time>
      </trkpt>
      <trkpt lat="43.20965" lon="5.464">
        <ele>60</ele>
        <time>2014-11-16T12:33:15Z</time>
      </trkpt>
      <trkpt lat="43.20963" lon="5.46406">
        <ele>61</ele>
        <time>2014-11-16T12:33:24Z</time>
      </trkpt>
      <trkpt lat="43.20958" lon="5.46406">
        <ele>62</ele>
        <time>2014-11-16T12:33:34Z</time>
      </trkpt>
      <trkpt lat="43.2096" lon="5.46414">
        <ele>60</ele>
        <time>2014-11-16T12:33:45Z</time>
      </trkpt>
      <trkpt lat="43.20963" lon="5.46422">
        <ele>59</ele>
        <time>2014-11-16T12:33:54Z</time>
      </trkpt>
      <trkpt lat="43.20961" lon="5.46432">
        <ele>59</ele>
        <time>2014-11-16T12:34:03Z</time>
      </trkpt>
      <trkpt lat="43.20958" lon="5.46436">
        <ele>59</ele>
        <time>2014-11-16T12:34:16Z</time>
      </trkpt>
      <trkpt lat="43.2096" lon="5.46442">
        <ele>59</ele>
        <time>2014-11-16T12:34:27Z</time>
      </trkpt>
      <trkpt lat="43.20959" lon="5.46447">
        <ele>64</ele>
        <time>2014-11-16T12:34:50Z</time>
      </trkpt>
      <trkpt lat="43.20956" lon="5.46452">
        <ele>65</ele>
        <time>2014-11-16T12:35:00Z</time>
      </trkpt>
      <trkpt lat="43.20953" lon="5.46463">
        <ele>70</ele>
        <time>2014-11-16T12:35:09Z</time>
      </trkpt>
      <trkpt lat="43.20949" lon="5.46469">
        <ele>74</ele>
        <time>2014-11-16T12:35:19Z</time>
      </trkpt>
      <trkpt lat="43.2094" lon="5.46482">
        <ele>74</ele>
        <time>2014-11-16T12:35:28Z</time>
      </trkpt>
      <trkpt lat="43.20937" lon="5.46488">
        <ele>67</ele>
        <time>2014-11-16T12:35:38Z</time>
      </trkpt>
      <trkpt lat="43.20932" lon="5.4649">
        <ele>67</ele>
        <time>2014-11-16T12:35:47Z</time>
      </trkpt>
      <trkpt lat="43.20928" lon="5.46501">
        <ele>67</ele>
        <time>2014-11-16T12:36:01Z</time>
      </trkpt>
      <trkpt lat="43.20928" lon="5.46502">
        <ele>68</ele>
        <time>2014-11-16T12:36:14Z</time>
      </trkpt>
      <trkpt lat="43.2093" lon="5.4651">
        <ele>71</ele>
        <time>2014-11-16T12:36:24Z</time>
      </trkpt>
      <trkpt lat="43.20933" lon="5.46522">
        <ele>73</ele>
        <time>2014-11-16T12:36:33Z</time>
      </trkpt>
      <trkpt lat="43.20936" lon="5.46528">
        <ele>73</ele>
        <time>2014-11-16T12:36:42Z</time>
      </trkpt>
      <trkpt lat="43.20934" lon="5.46539">
        <ele>70</ele>
        <time>2014-11-16T12:36:53Z</time>
      </trkpt>
      <trkpt lat="43.20931" lon="5.46553">
        <ele>70</ele>
        <time>2014-11-16T12:37:02Z</time>
      </trkpt>
      <trkpt lat="43.20928" lon="5.46569">
        <ele>70</ele>
        <time>2014-11-16T12:37:11Z</time>
      </trkpt>
      <trkpt lat="43.2093" lon="5.46577">
        <ele>70</ele>
        <time>2014-11-16T12:37:21Z</time>
      </trkpt>
      <trkpt lat="43.20931" lon="5.46587">
        <ele>70</ele>
        <time>2014-11-16T12:37:30Z</time>
      </trkpt>
      <trkpt lat="43.2093" lon="5.46598">
        <ele>70</ele>
        <time>2014-11-16T12:37:39Z</time>
      </trkpt>
      <trkpt lat="43.20931" lon="5.46614">
        <ele>70</ele>
        <time>2014-11-16T12:37:48Z</time>
      </trkpt>
      <trkpt lat="43.20932" lon="5.46621">
        <ele>71</ele>
        <time>2014-11-16T12:37:58Z</time>
      </trkpt>
      <trkpt lat="43.20933" lon="5.46628">
        <ele>71</ele>
        <time>2014-11-16T12:38:10Z</time>
      </trkpt>
      <trkpt lat="43.20938" lon="5.4663">
        <ele>75</ele>
        <time>2014-11-16T12:38:21Z</time>
      </trkpt>
      <trkpt lat="43.20936" lon="5.46636">
        <ele>79</ele>
        <time>2014-11-16T12:38:30Z</time>
      </trkpt>
      <trkpt lat="43.20934" lon="5.46649">
        <ele>79</ele>
        <time>2014-11-16T12:38:39Z</time>
      </trkpt>
      <trkpt lat="43.20934" lon="5.4666">
        <ele>81</ele>
        <time>2014-11-16T12:38:50Z</time>
      </trkpt>
      <trkpt lat="43.20931" lon="5.46662">
        <ele>79</ele>
        <time>2014-11-16T12:39:00Z</time>
      </trkpt>
      <trkpt lat="43.20932" lon="5.46663">
        <ele>74</ele>
        <time>2014-11-16T12:39:10Z</time>
      </trkpt>
      <trkpt lat="43.20934" lon="5.46667">
        <ele>72</ele>
        <time>2014-11-16T12:39:20Z</time>
      </trkpt>
      <trkpt lat="43.20931" lon="5.46666">
        <ele>63</ele>
        <time>2014-11-16T12:39:29Z</time>
      </trkpt>
      <trkpt lat="43.20929" lon="5.46675">
        <ele>55</ele>
        <time>2014-11-16T12:39:38Z</time>
      </trkpt>
      <trkpt lat="43.20932" lon="5.46681">
        <ele>51</ele>
        <time>2014-11-16T12:39:48Z</time>
      </trkpt>
      <trkpt lat="43.20934" lon="5.46691">
        <ele>45</ele>
        <time>2014-11-16T12:39:57Z</time>
      </trkpt>
      <trkpt lat="43.20932" lon="5.46699">
        <ele>45</ele>
        <time>2014-11-16T12:40:06Z</time>
      </trkpt>
      <trkpt lat="43.20926" lon="5.46706">
        <ele>42</ele>
        <time>2014-11-16T12:40:15Z</time>
      </trkpt>
      <trkpt lat="43.20934" lon="5.46708">
        <ele>42</ele>
        <time>2014-11-16T12:40:25Z</time>
      </trkpt>
      <trkpt lat="43.20931" lon="5.46717">
        <ele>42</ele>
        <time>2014-11-16T12:40:37Z</time>
      </trkpt>
      <trkpt lat="43.20934" lon="5.46721">
        <ele>42</ele>
        <time>2014-11-16T12:40:47Z</time>
      </trkpt>
      <trkpt lat="43.20931" lon="5.46732">
        <ele>44</ele>
        <time>2014-11-16T12:40:56Z</time>
      </trkpt>
      <trkpt lat="43.20933" lon="5.46744">
        <ele>47</ele>
        <time>2014-11-16T12:41:05Z</time>
      </trkpt>
      <trkpt lat="43.20927" lon="5.46763">
        <ele>48</ele>
        <time>2014-11-16T12:41:14Z</time>
      </trkpt>
      <trkpt lat="43.20926" lon="5.46775">
        <ele>48</ele>
        <time>2014-11-16T12:41:23Z</time>
      </trkpt>
      <trkpt lat="43.20924" lon="5.46777">
        <ele>47</ele>
        <time>2014-11-16T12:41:34Z</time>
      </trkpt>
      <trkpt lat="43.20927" lon="5.46782">
        <ele>46</ele>
        <time>2014-11-16T12:41:47Z</time>
      </trkpt>
      <trkpt lat="43.20925" lon="5.46789">
        <ele>47</ele>
        <time>2014-11-16T12:41:56Z</time>
      </trkpt>
      <trkpt lat="43.20925" lon="5.46795">
        <ele>45</ele>
        <time>2014-11-16T12:42:07Z</time>
      </trkpt>
      <trkpt lat="43.20927" lon="5.46801">
        <ele>40</ele>
        <time>2014-11-16T12:42:17Z</time>
      </trkpt>
      <trkpt lat="43.20928" lon="5.46811">
        <ele>33</ele>
        <time>2014-11-16T12:42:26Z</time>
      </trkpt>
      <trkpt lat="43.20924" lon="5.46821">
        <ele>30</ele>
        <time>2014-11-16T12:42:35Z</time>
      </trkpt>
      <trkpt lat="43.2092" lon="5.46833">
        <ele>30</ele>
        <time>2014-11-16T12:42:44Z</time>
      </trkpt>
      <trkpt lat="43.20923" lon="5.46836">
        <ele>27</ele>
        <time>2014-11-16T12:42:56Z</time>
      </trkpt>
      <trkpt lat="43.20919" lon="5.4685">
        <ele>21</ele>
        <time>2014-11-16T12:43:05Z</time>
      </trkpt>
      <trkpt lat="43.20921" lon="5.46864">
        <ele>20</ele>
        <time>2014-11-16T12:43:14Z</time>
      </trkpt>
      <trkpt lat="43.20922" lon="5.46878">
        <ele>20</ele>
        <time>2014-11-16T12:43:24Z</time>
      </trkpt>
      <trkpt lat="43.20928" lon="5.46883">
        <ele>19</ele>
        <time>2014-11-16T12:43:33Z</time>
      </trkpt>
      <trkpt lat="43.20932" lon="5.46892">
        <ele>16</ele>
        <time>2014-11-16T12:43:44Z</time>
      </trkpt>
      <trkpt lat="43.20934" lon="5.46903">
        <ele>16</ele>
        <time>2014-11-16T12:43:54Z</time>
      </trkpt>
      <trkpt lat="43.20928" lon="5.46904">
        <ele>17</ele>
        <time>2014-11-16T12:44:03Z</time>
      </trkpt>
      <trkpt lat="43.20929" lon="5.4691">
        <ele>23</ele>
        <time>2014-11-16T12:44:12Z</time>
      </trkpt>
      <trkpt lat="43.20932" lon="5.46923">
        <ele>20</ele>
        <time>2014-11-16T12:44:21Z</time>
      </trkpt>
      <trkpt lat="43.20933" lon="5.46931">
        <ele>20</ele>
        <time>2014-11-16T12:44:30Z</time>
      </trkpt>
      <trkpt lat="43.20927" lon="5.4693">
        <ele>20</ele>
        <time>2014-11-16T12:44:39Z</time>
      </trkpt>
      <trkpt lat="43.20927" lon="5.46938">
        <ele>25</ele>
        <time>2014-11-16T12:44:48Z</time>
      </trkpt>
      <trkpt lat="43.20926" lon="5.46951">
        <ele>25</ele>
        <time>2014-11-16T12:44:57Z</time>
      </trkpt>
      <trkpt lat="43.20925" lon="5.46957">
        <ele>25</ele>
        <time>2014-11-16T12:45:06Z</time>
      </trkpt>
      <trkpt lat="43.20921" lon="5.46959">
        <ele>27</ele>
        <time>2014-11-16T12:45:15Z</time>
      </trkpt>
      <trkpt lat="43.2092" lon="5.46967">
        <ele>32</ele>
        <time>2014-11-16T12:45:26Z</time>
      </trkpt>
      <trkpt lat="43.20922" lon="5.46965">
        <ele>26</ele>
        <time>2014-11-16T12:45:37Z</time>
      </trkpt>
      <trkpt lat="43.20924" lon="5.46964">
        <ele>27</ele>
        <time>2014-11-16T12:45:48Z</time>
      </trkpt>
      <trkpt lat="43.20921" lon="5.46964">
        <ele>25</ele>
        <time>2014-11-16T12:45:57Z</time>
      </trkpt>
      <trkpt lat="43.20925" lon="5.46971">
        <ele>14</ele>
        <time>2014-11-16T12:46:08Z</time>
      </trkpt>
      <trkpt lat="43.20929" lon="5.46975">
        <ele>40.9</ele>
        <time>2014-11-16T12:46:27Z</time>
      </trkpt>
      <trkpt lat="43.20926" lon="5.46977">
        <ele>39.3</ele>
        <time>2014-11-16T12:46:37Z</time>
      </trkpt>
      <trkpt lat="43.20923" lon="5.46978">
        <ele>9</ele>
        <time>2014-11-16T12:46:53Z</time>
      </trkpt>
      <trkpt lat="43.20924" lon="5.4698">
        <ele>19</ele>
        <time>2014-11-16T12:47:06Z</time>
      </trkpt>
      <trkpt lat="43.20924" lon="5.46987">
        <ele>27</ele>
        <time>2014-11-16T12:47:22Z</time>
      </trkpt>
      <trkpt lat="43.20924" lon="5.46992">
        <ele>35</ele>
        <time>2014-11-16T12:47:32Z</time>
      </trkpt>
      <trkpt lat="43.20923" lon="5.46995">
        <ele>40</ele>
        <time>2014-11-16T12:47:42Z</time>
      </trkpt>
      <trkpt lat="43.20917" lon="5.46996">
        <ele>48</ele>
        <time>2014-11-16T12:47:51Z</time>
      </trkpt>
      <trkpt lat="43.20915" lon="5.46998">
        <ele>58</ele>
        <time>2014-11-16T12:48:01Z</time>
      </trkpt>
      <trkpt lat="43.20913" lon="5.46999">
        <ele>61</ele>
        <time>2014-11-16T12:48:12Z</time>
      </trkpt>
      <trkpt lat="43.20909" lon="5.46999">
        <ele>62</ele>
        <time>2014-11-16T12:48:22Z</time>
      </trkpt>
      <trkpt lat="43.20908" lon="5.47002">
        <ele>62</ele>
        <time>2014-11-16T12:48:31Z</time>
      </trkpt>
      <trkpt lat="43.20905" lon="5.47006">
        <ele>59</ele>
        <time>2014-11-16T12:48:42Z</time>
      </trkpt>
      <trkpt lat="43.20904" lon="5.47011">
        <ele>52</ele>
        <time>2014-11-16T12:48:57Z</time>
      </trkpt>
      <trkpt lat="43.20905" lon="5.47016">
        <ele>52</ele>
        <time>2014-11-16T12:49:06Z</time>
      </trkpt>
      <trkpt lat="43.20902" lon="5.47016">
        <ele>55</ele>
        <time>2014-11-16T12:49:19Z</time>
      </trkpt>
      <trkpt lat="43.20898" lon="5.47017">
        <ele>55</ele>
        <time>2014-11-16T12:49:32Z</time>
      </trkpt>
      <trkpt lat="43.20896" lon="5.4702">
        <ele>59</ele>
        <time>2014-11-16T12:49:44Z</time>
      </trkpt>
      <trkpt lat="43.20894" lon="5.47018">
        <ele>60</ele>
        <time>2014-11-16T12:49:56Z</time>
      </trkpt>
      <trkpt lat="43.20888" lon="5.47015">
        <ele>60</ele>
        <time>2014-11-16T12:50:15Z</time>
      </trkpt>
      <trkpt lat="43.20885" lon="5.47012">
        <ele>60</ele>
        <time>2014-11-16T12:50:26Z</time>
      </trkpt>
      <trkpt lat="43.20881" lon="5.47008">
        <ele>64</ele>
        <time>2014-11-16T12:50:38Z</time>
      </trkpt>
      <trkpt lat="43.20879" lon="5.47017">
        <ele>65</ele>
        <time>2014-11-16T12:50:50Z</time>
      </trkpt>
      <trkpt lat="43.20881" lon="5.47023">
        <ele>69</ele>
        <time>2014-11-16T12:51:01Z</time>
      </trkpt>
      <trkpt lat="43.20881" lon="5.47026">
        <ele>74</ele>
        <time>2014-11-16T12:51:22Z</time>
      </trkpt>
      <trkpt lat="43.20883" lon="5.47028">
        <ele>76</ele>
        <time>2014-11-16T12:51:32Z</time>
      </trkpt>
      <trkpt lat="43.20884" lon="5.47032">
        <ele>77</ele>
        <time>2014-11-16T12:51:47Z</time>
      </trkpt>
      <trkpt lat="43.20885" lon="5.47039">
        <ele>77</ele>
        <time>2014-11-16T12:52:02Z</time>
      </trkpt>
      <trkpt lat="43.20884" lon="5.47039">
        <ele>77</ele>
        <time>2014-11-16T12:52:14Z</time>
      </trkpt>
      <trkpt lat="43.20884" lon="5.4704">
        <ele>80</ele>
        <time>2014-11-16T12:52:26Z</time>
      </trkpt>
      <trkpt lat="43.20884" lon="5.47038">
        <ele>83</ele>
        <time>2014-11-16T12:52:35Z</time>
      </trkpt>
      <trkpt lat="43.20887" lon="5.47036">
        <ele>87</ele>
        <time>2014-11-16T12:52:52Z</time>
      </trkpt>
      <trkpt lat="43.2089" lon="5.47037">
        <ele>87</ele>
        <time>2014-11-16T12:53:02Z</time>
      </trkpt>
      <trkpt lat="43.20892" lon="5.47044">
        <ele>87</ele>
        <time>2014-11-16T12:53:11Z</time>
      </trkpt>
      <trkpt lat="43.20896" lon="5.47043">
        <ele>87</ele>
        <time>2014-11-16T12:53:20Z</time>
      </trkpt>
      <trkpt lat="43.20902" lon="5.47046">
        <ele>87</ele>
        <time>2014-11-16T12:53:30Z</time>
      </trkpt>
      <trkpt lat="43.20905" lon="5.47047">
        <ele>87</ele>
        <time>2014-11-16T12:53:39Z</time>
      </trkpt>
      <trkpt lat="43.20908" lon="5.4705">
        <ele>87</ele>
        <time>2014-11-16T12:53:50Z</time>
      </trkpt>
      <trkpt lat="43.20914" lon="5.47052">
        <ele>93</ele>
        <time>2014-11-16T12:54:00Z</time>
      </trkpt>
      <trkpt lat="43.20921" lon="5.47054">
        <ele>96</ele>
        <time>2014-11-16T12:54:09Z</time>
      </trkpt>
      <trkpt lat="43.20926" lon="5.47057">
        <ele>99</ele>
        <time>2014-11-16T12:54:22Z</time>
      </trkpt>
      <trkpt lat="43.20927" lon="5.47058">
        <ele>103</ele>
        <time>2014-11-16T12:54:32Z</time>
      </trkpt>
      <trkpt lat="43.2093" lon="5.47058">
        <ele>106</ele>
        <time>2014-11-16T12:54:43Z</time>
      </trkpt>
      <trkpt lat="43.2093" lon="5.47057">
        <ele>108</ele>
        <time>2014-11-16T12:54:53Z</time>
      </trkpt>
      <trkpt lat="43.20932" lon="5.47061">
        <ele>111</ele>
        <time>2014-11-16T12:55:03Z</time>
      </trkpt>
      <trkpt lat="43.20932" lon="5.47053">
        <ele>113</ele>
        <time>2014-11-16T12:55:13Z</time>
      </trkpt>
      <trkpt lat="43.2093" lon="5.47052">
        <ele>103</ele>
        <time>2014-11-16T12:55:35Z</time>
      </trkpt>
      <trkpt lat="43.2093" lon="5.47052">
        <ele>103</ele>
        <time>2014-11-16T12:55:50Z</time>
      </trkpt>
      <trkpt lat="43.20929" lon="5.47053">
        <ele>98</ele>
        <time>2014-11-16T12:56:02Z</time>
      </trkpt>
      <trkpt lat="43.20929" lon="5.47054">
        <ele>95</ele>
        <time>2014-11-16T12:56:26Z</time>
      </trkpt>
      <trkpt lat="43.20928" lon="5.47059">
        <ele>92</ele>
        <time>2014-11-16T12:56:59Z</time>
      </trkpt>
      <trkpt lat="43.20927" lon="5.47064">
        <ele>88</ele>
        <time>2014-11-16T12:57:08Z</time>
      </trkpt>
      <trkpt lat="43.20928" lon="5.47061">
        <ele>88</ele>
        <time>2014-11-16T12:57:27Z</time>
      </trkpt>
      <trkpt lat="43.2093" lon="5.47063">
        <ele>98</ele>
        <time>2014-11-16T12:57:40Z</time>
      </trkpt>
      <trkpt lat="43.20931" lon="5.47059">
        <ele>109</ele>
        <time>2014-11-16T12:57:52Z</time>
      </trkpt>
      <trkpt lat="43.2093" lon="5.47061">
        <ele>109</ele>
        <time>2014-11-16T12:58:01Z</time>
      </trkpt>
      <trkpt lat="43.20933" lon="5.47063">
        <ele>112</ele>
        <time>2014-11-16T12:58:13Z</time>
      </trkpt>
      <trkpt lat="43.20936" lon="5.47058">
        <ele>129</ele>
        <time>2014-11-16T12:58:24Z</time>
      </trkpt>
      <trkpt lat="43.20935" lon="5.47053">
        <ele>133</ele>
        <time>2014-11-16T12:58:34Z</time>
      </trkpt>
      <trkpt lat="43.20933" lon="5.4705">
        <ele>135</ele>
        <time>2014-11-16T12:58:44Z</time>
      </trkpt>
      <trkpt lat="43.20932" lon="5.47048">
        <ele>135</ele>
        <time>2014-11-16T12:59:00Z</time>
      </trkpt>
      <trkpt lat="43.20934" lon="5.47047">
        <ele>137</ele>
        <time>2014-11-16T12:59:11Z</time>
      </trkpt>
      <trkpt lat="43.20934" lon="5.47046">
        <ele>140</ele>
        <time>2014-11-16T12:59:21Z</time>
      </trkpt>
      <trkpt lat="43.20934" lon="5.47063">
        <ele>135</ele>
        <time>2014-11-16T12:59:31Z</time>
      </trkpt>
      <trkpt lat="43.20935" lon="5.47072">
        <ele>134</ele>
        <time>2014-11-16T12:59:43Z</time>
      </trkpt>
      <trkpt lat="43.20932" lon="5.47066">
        <ele>127</ele>
        <time>2014-11-16T12:59:53Z</time>
      </trkpt>
      <trkpt lat="43.20931" lon="5.47067">
        <ele>120</ele>
        <time>2014-11-16T13:00:04Z</time>
      </trkpt>
      <trkpt lat="43.20932" lon="5.47066">
        <ele>119</ele>
        <time>2014-11-16T13:00:13Z</time>
      </trkpt>
      <trkpt lat="43.20931" lon="5.47063">
        <ele>120</ele>
        <time>2014-11-16T13:00:22Z</time>
      </trkpt>
      <trkpt lat="43.2093" lon="5.47058">
        <ele>113</ele>
        <time>2014-11-16T13:00:31Z</time>
      </trkpt>
      <trkpt lat="43.20929" lon="5.47055">
        <ele>109</ele>
        <time>2014-11-16T13:00:41Z</time>
      </trkpt>
      <trkpt lat="43.20928" lon="5.47052">
        <ele>107</ele>
        <time>2014-11-16T13:00:51Z</time>
      </trkpt>
      <trkpt lat="43.20927" lon="5.47051">
        <ele>102</ele>
        <time>2014-11-16T13:01:05Z</time>
      </trkpt>
      <trkpt lat="43.20928" lon="5.47048">
        <ele>97</ele>
        <time>2014-11-16T13:01:19Z</time>
      </trkpt>
      <trkpt lat="43.20929" lon="5.47048">
        <ele>97</ele>
        <time>2014-11-16T13:01:29Z</time>
      </trkpt>
      <trkpt lat="43.20927" lon="5.47057">
        <ele>101</ele>
        <time>2014-11-16T13:01:42Z</time>
      </trkpt>
      <trkpt lat="43.20931" lon="5.47062">
        <ele>101</ele>
        <time>2014-11-16T13:01:52Z</time>
      </trkpt>
      <trkpt lat="43.20935" lon="5.47074">
        <ele>105</ele>
        <time>2014-11-16T13:02:02Z</time>
      </trkpt>
      <trkpt lat="43.20936" lon="5.47076">
        <ele>105</ele>
        <time>2014-11-16T13:02:11Z</time>
      </trkpt>
      <trkpt lat="43.20938" lon="5.47082">
        <ele>105</ele>
        <time>2014-11-16T13:02:25Z</time>
      </trkpt>
      <trkpt lat="43.2094" lon="5.47085">
        <ele>105</ele>
        <time>2014-11-16T13:02:37Z</time>
      </trkpt>
      <trkpt lat="43.2094" lon="5.47086">
        <ele>106</ele>
        <time>2014-11-16T13:02:49Z</time>
      </trkpt>
      <trkpt lat="43.20937" lon="5.47081">
        <ele>106</ele>
        <time>2014-11-16T13:02:58Z</time>
      </trkpt>
      <trkpt lat="43.20937" lon="5.47077">
        <ele>106</ele>
        <time>2014-11-16T13:03:09Z</time>
      </trkpt>
      <trkpt lat="43.2094" lon="5.47077">
        <ele>106</ele>
        <time>2014-11-16T13:03:18Z</time>
      </trkpt>
      <trkpt lat="43.20943" lon="5.4708">
        <ele>106</ele>
        <time>2014-11-16T13:03:28Z</time>
      </trkpt>
      <trkpt lat="43.20945" lon="5.47076">
        <ele>106</ele>
        <time>2014-11-16T13:03:38Z</time>
      </trkpt>
      <trkpt lat="43.20949" lon="5.47076">
        <ele>107</ele>
        <time>2014-11-16T13:03:48Z</time>
      </trkpt>
      <trkpt lat="43.20951" lon="5.47079">
        <ele>111</ele>
        <time>2014-11-16T13:03:59Z</time>
      </trkpt>
      <trkpt lat="43.20955" lon="5.47083">
        <ele>114</ele>
        <time>2014-11-16T13:04:08Z</time>
      </trkpt>
      <trkpt lat="43.20957" lon="5.4708">
        <ele>115</ele>
        <time>2014-11-16T13:04:18Z</time>
      </trkpt>
      <trkpt lat="43.2096" lon="5.47077">
        <ele>115</ele>
        <time>2014-11-16T13:04:29Z</time>
      </trkpt>
      <trkpt lat="43.20961" lon="5.47077">
        <ele>116</ele>
        <time>2014-11-16T13:04:45Z</time>
      </trkpt>
      <trkpt lat="43.20962" lon="5.47071">
        <ele>116</ele>
        <time>2014-11-16T13:04:59Z</time>
      </trkpt>
      <trkpt lat="43.20964" lon="5.47069">
        <ele>116</ele>
        <time>2014-11-16T13:05:08Z</time>
      </trkpt>
      <trkpt lat="43.20968" lon="5.4707">
        <ele>116</ele>
        <time>2014-11-16T13:05:20Z</time>
      </trkpt>
      <trkpt lat="43.20972" lon="5.47071">
        <ele>117</ele>
        <time>2014-11-16T13:05:30Z</time>
      </trkpt>
      <trkpt lat="43.20977" lon="5.4707">
        <ele>120</ele>
        <time>2014-11-16T13:05:45Z</time>
      </trkpt>
      <trkpt lat="43.20982" lon="5.4707">
        <ele>122</ele>
        <time>2014-11-16T13:05:54Z</time>
      </trkpt>
      <trkpt lat="43.20986" lon="5.47072">
        <ele>125</ele>
        <time>2014-11-16T13:06:04Z</time>
      </trkpt>
      <trkpt lat="43.20992" lon="5.4707">
        <ele>129</ele>
        <time>2014-11-16T13:06:15Z</time>
      </trkpt>
      <trkpt lat="43.20995" lon="5.47065">
        <ele>129</ele>
        <time>2014-11-16T13:06:24Z</time>
      </trkpt>
      <trkpt lat="43.20997" lon="5.47067">
        <ele>130</ele>
        <time>2014-11-16T13:06:40Z</time>
      </trkpt>
      <trkpt lat="43.20996" lon="5.47067">
        <ele>133</ele>
        <time>2014-11-16T13:06:50Z</time>
      </trkpt>
      <trkpt lat="43.20994" lon="5.47068">
        <ele>133</ele>
        <time>2014-11-16T13:07:06Z</time>
      </trkpt>
      <trkpt lat="43.20995" lon="5.47072">
        <ele>134</ele>
        <time>2014-11-16T13:07:20Z</time>
      </trkpt>
      <trkpt lat="43.20999" lon="5.47064">
        <ele>134</ele>
        <time>2014-11-16T13:07:31Z</time>
      </trkpt>
      <trkpt lat="43.21002" lon="5.47063">
        <ele>134</ele>
        <time>2014-11-16T13:07:40Z</time>
      </trkpt>
      <trkpt lat="43.21003" lon="5.47064">
        <ele>135</ele>
        <time>2014-11-16T13:07:49Z</time>
      </trkpt>
      <trkpt lat="43.21005" lon="5.47068">
        <ele>136</ele>
        <time>2014-11-16T13:07:58Z</time>
      </trkpt>
      <trkpt lat="43.21009" lon="5.47071">
        <ele>139</ele>
        <time>2014-11-16T13:08:08Z</time>
      </trkpt>
      <trkpt lat="43.21012" lon="5.47067">
        <ele>140</ele>
        <time>2014-11-16T13:08:20Z</time>
      </trkpt>
      <trkpt lat="43.21015" lon="5.47069">
        <ele>140</ele>
        <time>2014-11-16T13:08:37Z</time>
      </trkpt>
      <trkpt lat="43.21019" lon="5.47068">
        <ele>140</ele>
        <time>2014-11-16T13:08:49Z</time>
      </trkpt>
      <trkpt lat="43.21022" lon="5.47065">
        <ele>140</ele>
        <time>2014-11-16T13:09:01Z</time>
      </trkpt>
      <trkpt lat="43.21025" lon="5.47064">
        <ele>141</ele>
        <time>2014-11-16T13:09:11Z</time>
      </trkpt>
      <trkpt lat="43.21028" lon="5.47063">
        <ele>144</ele>
        <time>2014-11-16T13:09:21Z</time>
      </trkpt>
      <trkpt lat="43.2103" lon="5.47059">
        <ele>146</ele>
        <time>2014-11-16T13:09:34Z</time>
      </trkpt>
      <trkpt lat="43.21032" lon="5.47055">
        <ele>146</ele>
        <time>2014-11-16T13:09:46Z</time>
      </trkpt>
      <trkpt lat="43.21033" lon="5.47051">
        <ele>146</ele>
        <time>2014-11-16T13:09:55Z</time>
      </trkpt>
      <trkpt lat="43.21038" lon="5.47046">
        <ele>146</ele>
        <time>2014-11-16T13:10:07Z</time>
      </trkpt>
      <trkpt lat="43.21041" lon="5.47047">
        <ele>151</ele>
        <time>2014-11-16T13:10:19Z</time>
      </trkpt>
      <trkpt lat="43.21044" lon="5.47043">
        <ele>152</ele>
        <time>2014-11-16T13:10:30Z</time>
      </trkpt>
      <trkpt lat="43.21046" lon="5.47041">
        <ele>152</ele>
        <time>2014-11-16T13:10:39Z</time>
      </trkpt>
      <trkpt lat="43.21048" lon="5.47038">
        <ele>152</ele>
        <time>2014-11-16T13:10:48Z</time>
      </trkpt>
      <trkpt lat="43.21051" lon="5.47035">
        <ele>152</ele>
        <time>2014-11-16T13:10:59Z</time>
      </trkpt>
      <trkpt lat="43.21053" lon="5.47031">
        <ele>155</ele>
        <time>2014-11-16T13:11:12Z</time>
      </trkpt>
      <trkpt lat="43.21054" lon="5.47031">
        <ele>156</ele>
        <time>2014-11-16T13:11:32Z</time>
      </trkpt>
      <trkpt lat="43.21057" lon="5.47031">
        <ele>156</ele>
        <time>2014-11-16T13:11:42Z</time>
      </trkpt>
      <trkpt lat="43.21059" lon="5.4703">
        <ele>156</ele>
        <time>2014-11-16T13:11:53Z</time>
      </trkpt>
      <trkpt lat="43.21063" lon="5.47027">
        <ele>156</ele>
        <time>2014-11-16T13:12:02Z</time>
      </trkpt>
      <trkpt lat="43.21067" lon="5.47028">
        <ele>156</ele>
        <time>2014-11-16T13:12:12Z</time>
      </trkpt>
      <trkpt lat="43.21068" lon="5.47021">
        <ele>159</ele>
        <time>2014-11-16T13:12:22Z</time>
      </trkpt>
      <trkpt lat="43.21069" lon="5.47015">
        <ele>162</ele>
        <time>2014-11-16T13:12:32Z</time>
      </trkpt>
      <trkpt lat="43.21072" lon="5.47013">
        <ele>164</ele>
        <time>2014-11-16T13:12:41Z</time>
      </trkpt>
      <trkpt lat="43.21075" lon="5.47013">
        <ele>165</ele>
        <time>2014-11-16T13:12:50Z</time>
      </trkpt>
      <trkpt lat="43.21075" lon="5.47014">
        <ele>167</ele>
        <time>2014-11-16T13:13:01Z</time>
      </trkpt>
      <trkpt lat="43.21078" lon="5.47014">
        <ele>168</ele>
        <time>2014-11-16T13:13:12Z</time>
      </trkpt>
      <trkpt lat="43.21083" lon="5.47015">
        <ele>168</ele>
        <time>2014-11-16T13:13:25Z</time>
      </trkpt>
      <trkpt lat="43.21084" lon="5.47011">
        <ele>168</ele>
        <time>2014-11-16T13:13:35Z</time>
      </trkpt>
      <trkpt lat="43.21085" lon="5.47007">
        <ele>169</ele>
        <time>2014-11-16T13:13:46Z</time>
      </trkpt>
      <trkpt lat="43.21085" lon="5.47012">
        <ele>170</ele>
        <time>2014-11-16T13:13:55Z</time>
      </trkpt>
      <trkpt lat="43.21086" lon="5.47011">
        <ele>173</ele>
        <time>2014-11-16T13:14:07Z</time>
      </trkpt>
      <trkpt lat="43.21088" lon="5.47009">
        <ele>174</ele>
        <time>2014-11-16T13:14:21Z</time>
      </trkpt>
      <trkpt lat="43.21089" lon="5.47011">
        <ele>179</ele>
        <time>2014-11-16T13:14:47Z</time>
      </trkpt>
      <trkpt lat="43.2109" lon="5.47008">
        <ele>179</ele>
        <time>2014-11-16T13:14:56Z</time>
      </trkpt>
      <trkpt lat="43.2109" lon="5.47009">
        <ele>182</ele>
        <time>2014-11-16T13:15:07Z</time>
      </trkpt>
      <trkpt lat="43.21092" lon="5.47007">
        <ele>183</ele>
        <time>2014-11-16T13:15:17Z</time>
      </trkpt>
      <trkpt lat="43.2109" lon="5.47009">
        <ele>185</ele>
        <time>2014-11-16T13:15:28Z</time>
      </trkpt>
      <trkpt lat="43.21091" lon="5.47013">
        <ele>192</ele>
        <time>2014-11-16T13:15:42Z</time>
      </trkpt>
      <trkpt lat="43.21095" lon="5.47012">
        <ele>192</ele>
        <time>2014-11-16T13:15:52Z</time>
      </trkpt>
      <trkpt lat="43.21098" lon="5.47012">
        <ele>192</ele>
        <time>2014-11-16T13:16:04Z</time>
      </trkpt>
      <trkpt lat="43.21096" lon="5.47015">
        <ele>194</ele>
        <time>2014-11-16T13:16:18Z</time>
      </trkpt>
      <trkpt lat="43.21094" lon="5.47017">
        <ele>198</ele>
        <time>2014-11-16T13:16:27Z</time>
      </trkpt>
      <trkpt lat="43.21097" lon="5.47014">
        <ele>200</ele>
        <time>2014-11-16T13:16:38Z</time>
      </trkpt>
      <trkpt lat="43.21099" lon="5.47023">
        <ele>200</ele>
        <time>2014-11-16T13:16:47Z</time>
      </trkpt>
      <trkpt lat="43.21097" lon="5.47022">
        <ele>200</ele>
        <time>2014-11-16T13:16:56Z</time>
      </trkpt>
      <trkpt lat="43.21098" lon="5.47022">
        <ele>200</ele>
        <time>2014-11-16T13:17:08Z</time>
      </trkpt>
      <trkpt lat="43.211" lon="5.47021">
        <ele>199</ele>
        <time>2014-11-16T13:17:21Z</time>
      </trkpt>
      <trkpt lat="43.21098" lon="5.47021">
        <ele>199</ele>
        <time>2014-11-16T13:17:31Z</time>
      </trkpt>
      <trkpt lat="43.21101" lon="5.47019">
        <ele>199</ele>
        <time>2014-11-16T13:17:42Z</time>
      </trkpt>
      <trkpt lat="43.21102" lon="5.47021">
        <ele>196</ele>
        <time>2014-11-16T13:18:15Z</time>
      </trkpt>
      <trkpt lat="43.21105" lon="5.47024">
        <ele>196</ele>
        <time>2014-11-16T13:18:27Z</time>
      </trkpt>
      <trkpt lat="43.21106" lon="5.47027">
        <ele>199</ele>
        <time>2014-11-16T13:18:38Z</time>
      </trkpt>
      <trkpt lat="43.21106" lon="5.4703">
        <ele>204</ele>
        <time>2014-11-16T13:18:47Z</time>
      </trkpt>
      <trkpt lat="43.2111" lon="5.4703">
        <ele>205</ele>
        <time>2014-11-16T13:18:59Z</time>
      </trkpt>
      <trkpt lat="43.21114" lon="5.47026">
        <ele>205</ele>
        <time>2014-11-16T13:19:09Z</time>
      </trkpt>
      <trkpt lat="43.21119" lon="5.4703">
        <ele>205</ele>
        <time>2014-11-16T13:19:22Z</time>
      </trkpt>
      <trkpt lat="43.2112" lon="5.47031">
        <ele>205</ele>
        <time>2014-11-16T13:19:42Z</time>
      </trkpt>
      <trkpt lat="43.21116" lon="5.47038">
        <ele>214</ele>
        <time>2014-11-16T13:19:53Z</time>
      </trkpt>
      <trkpt lat="43.21115" lon="5.47041">
        <ele>220</ele>
        <time>2014-11-16T13:20:03Z</time>
      </trkpt>
      <trkpt lat="43.21118" lon="5.47041">
        <ele>226</ele>
        <time>2014-11-16T13:20:12Z</time>
      </trkpt>
      <trkpt lat="43.21125" lon="5.47031">
        <ele>224</ele>
        <time>2014-11-16T13:20:21Z</time>
      </trkpt>
      <trkpt lat="43.21129" lon="5.47026">
        <ele>218</ele>
        <time>2014-11-16T13:20:32Z</time>
      </trkpt>
      <trkpt lat="43.21133" lon="5.47024">
        <ele>211</ele>
        <time>2014-11-16T13:20:42Z</time>
      </trkpt>
      <trkpt lat="43.21131" lon="5.47031">
        <ele>214</ele>
        <time>2014-11-16T13:20:52Z</time>
      </trkpt>
      <trkpt lat="43.21134" lon="5.47033">
        <ele>214</ele>
        <time>2014-11-16T13:21:05Z</time>
      </trkpt>
      <trkpt lat="43.21135" lon="5.47033">
        <ele>215</ele>
        <time>2014-11-16T13:21:15Z</time>
      </trkpt>
      <trkpt lat="43.21138" lon="5.47033">
        <ele>217</ele>
        <time>2014-11-16T13:21:31Z</time>
      </trkpt>
      <trkpt lat="43.21141" lon="5.47029">
        <ele>217</ele>
        <time>2014-11-16T13:21:41Z</time>
      </trkpt>
      <trkpt lat="43.21144" lon="5.47025">
        <ele>216</ele>
        <time>2014-11-16T13:21:51Z</time>
      </trkpt>
      <trkpt lat="43.21145" lon="5.47023">
        <ele>211</ele>
        <time>2014-11-16T13:22:07Z</time>
      </trkpt>
      <trkpt lat="43.21145" lon="5.47025">
        <ele>213</ele>
        <time>2014-11-16T13:22:19Z</time>
      </trkpt>
      <trkpt lat="43.21146" lon="5.47023">
        <ele>213</ele>
        <time>2014-11-16T13:22:38Z</time>
      </trkpt>
      <trkpt lat="43.21144" lon="5.4703">
        <ele>223</ele>
        <time>2014-11-16T13:22:48Z</time>
      </trkpt>
      <trkpt lat="43.21143" lon="5.47034">
        <ele>234</ele>
        <time>2014-11-16T13:22:59Z</time>
      </trkpt>
      <trkpt lat="43.21149" lon="5.47029">
        <ele>236</ele>
        <time>2014-11-16T13:23:08Z</time>
      </trkpt>
      <trkpt lat="43.21154" lon="5.4703">
        <ele>233</ele>
        <time>2014-11-16T13:23:20Z</time>
      </trkpt>
      <trkpt lat="43.21156" lon="5.47029">
        <ele>231</ele>
        <time>2014-11-16T13:23:30Z</time>
      </trkpt>
      <trkpt lat="43.21158" lon="5.47028">
        <ele>230</ele>
        <time>2014-11-16T13:23:40Z</time>
      </trkpt>
      <trkpt lat="43.21159" lon="5.47026">
        <ele>230</ele>
        <time>2014-11-16T13:24:06Z</time>
      </trkpt>
      <trkpt lat="43.2116" lon="5.47025">
        <ele>230</ele>
        <time>2014-11-16T13:24:22Z</time>
      </trkpt>
      <trkpt lat="43.21164" lon="5.47023">
        <ele>230</ele>
        <time>2014-11-16T13:24:34Z</time>
      </trkpt>
      <trkpt lat="43.21166" lon="5.47022">
        <ele>232</ele>
        <time>2014-11-16T13:24:44Z</time>
      </trkpt>
      <trkpt lat="43.21168" lon="5.47022">
        <ele>235</ele>
        <time>2014-11-16T13:24:57Z</time>
      </trkpt>
      <trkpt lat="43.21171" lon="5.47023">
        <ele>236</ele>
        <time>2014-11-16T13:25:09Z</time>
      </trkpt>
      <trkpt lat="43.21174" lon="5.47021">
        <ele>238</ele>
        <time>2014-11-16T13:25:18Z</time>
      </trkpt>
      <trkpt lat="43.21178" lon="5.47021">
        <ele>239</ele>
        <time>2014-11-16T13:25:28Z</time>
      </trkpt>
      <trkpt lat="43.21182" lon="5.47021">
        <ele>239</ele>
        <time>2014-11-16T13:25:37Z</time>
      </trkpt>
      <trkpt lat="43.21185" lon="5.47018">
        <ele>241</ele>
        <time>2014-11-16T13:25:53Z</time>
      </trkpt>
      <trkpt lat="43.21187" lon="5.47019">
        <ele>242</ele>
        <time>2014-11-16T13:26:02Z</time>
      </trkpt>
      <trkpt lat="43.21189" lon="5.47017">
        <ele>244</ele>
        <time>2014-11-16T13:26:16Z</time>
      </trkpt>
      <trkpt lat="43.21191" lon="5.47014">
        <ele>246</ele>
        <time>2014-11-16T13:26:27Z</time>
      </trkpt>
      <trkpt lat="43.21193" lon="5.47012">
        <ele>248</ele>
        <time>2014-11-16T13:26:39Z</time>
      </trkpt>
      <trkpt lat="43.21191" lon="5.47009">
        <ele>250</ele>
        <time>2014-11-16T13:26:48Z</time>
      </trkpt>
      <trkpt lat="43.21191" lon="5.47011">
        <ele>252</ele>
        <time>2014-11-16T13:26:59Z</time>
      </trkpt>
      <trkpt lat="43.21193" lon="5.47009">
        <ele>256</ele>
        <time>2014-11-16T13:27:09Z</time>
      </trkpt>
      <trkpt lat="43.21195" lon="5.47008">
        <ele>257</ele>
        <time>2014-11-16T13:27:18Z</time>
      </trkpt>
      <trkpt lat="43.21193" lon="5.47007">
        <ele>260</ele>
        <time>2014-11-16T13:27:33Z</time>
      </trkpt>
      <trkpt lat="43.21196" lon="5.47006">
        <ele>263</ele>
        <time>2014-11-16T13:27:43Z</time>
      </trkpt>
      <trkpt lat="43.21199" lon="5.47005">
        <ele>264</ele>
        <time>2014-11-16T13:27:54Z</time>
      </trkpt>
      <trkpt lat="43.21203" lon="5.47001">
        <ele>264</ele>
        <time>2014-11-16T13:28:04Z</time>
      </trkpt>
      <trkpt lat="43.21205" lon="5.47">
        <ele>264</ele>
        <time>2014-11-16T13:28:18Z</time>
      </trkpt>
      <trkpt lat="43.2121" lon="5.47001">
        <ele>264</ele>
        <time>2014-11-16T13:28:36Z</time>
      </trkpt>
      <trkpt lat="43.21203" lon="5.47">
        <ele>271</ele>
        <time>2014-11-16T13:28:48Z</time>
      </trkpt>
      <trkpt lat="43.21205" lon="5.47003">
        <ele>282</ele>
        <time>2014-11-16T13:28:59Z</time>
      </trkpt>
      <trkpt lat="43.21202" lon="5.47006">
        <ele>292</ele>
        <time>2014-11-16T13:29:13Z</time>
      </trkpt>
      <trkpt lat="43.21201" lon="5.47004">
        <ele>295</ele>
        <time>2014-11-16T13:29:23Z</time>
      </trkpt>
      <trkpt lat="43.21206" lon="5.47005">
        <ele>296</ele>
        <time>2014-11-16T13:29:34Z</time>
      </trkpt>
      <trkpt lat="43.21205" lon="5.47">
        <ele>296</ele>
        <time>2014-11-16T13:29:44Z</time>
      </trkpt>
      <trkpt lat="43.21209" lon="5.47003">
        <ele>297</ele>
        <time>2014-11-16T13:29:58Z</time>
      </trkpt>
      <trkpt lat="43.21212" lon="5.47004">
        <ele>297</ele>
        <time>2014-11-16T13:30:19Z</time>
      </trkpt>
      <trkpt lat="43.21218" lon="5.47004">
        <ele>296</ele>
        <time>2014-11-16T13:30:35Z</time>
      </trkpt>
      <trkpt lat="43.21223" lon="5.47001">
        <ele>294</ele>
        <time>2014-11-16T13:30:44Z</time>
      </trkpt>
      <trkpt lat="43.21226" lon="5.46994">
        <ele>286</ele>
        <time>2014-11-16T13:30:58Z</time>
      </trkpt>
      <trkpt lat="43.2123" lon="5.46992">
        <ele>283</ele>
        <time>2014-11-16T13:31:07Z</time>
      </trkpt>
      <trkpt lat="43.21233" lon="5.46989">
        <ele>280</ele>
        <time>2014-11-16T13:31:18Z</time>
      </trkpt>
      <trkpt lat="43.21237" lon="5.46989">
        <ele>279</ele>
        <time>2014-11-16T13:31:31Z</time>
      </trkpt>
      <trkpt lat="43.21245" lon="5.4699">
        <ele>279</ele>
        <time>2014-11-16T13:31:41Z</time>
      </trkpt>
      <trkpt lat="43.2125" lon="5.46989">
        <ele>279</ele>
        <time>2014-11-16T13:31:55Z</time>
      </trkpt>
      <trkpt lat="43.21247" lon="5.46987">
        <ele>280</ele>
        <time>2014-11-16T13:32:04Z</time>
      </trkpt>
      <trkpt lat="43.21248" lon="5.46987">
        <ele>282</ele>
        <time>2014-11-16T13:32:14Z</time>
      </trkpt>
      <trkpt lat="43.21251" lon="5.46986">
        <ele>283</ele>
        <time>2014-11-16T13:32:27Z</time>
      </trkpt>
      <trkpt lat="43.21254" lon="5.46987">
        <ele>284</ele>
        <time>2014-11-16T13:32:39Z</time>
      </trkpt>
      <trkpt lat="43.21254" lon="5.46989">
        <ele>287</ele>
        <time>2014-11-16T13:32:52Z</time>
      </trkpt>
      <trkpt lat="43.21252" lon="5.46993">
        <ele>296</ele>
        <time>2014-11-16T13:33:02Z</time>
      </trkpt>
      <trkpt lat="43.21255" lon="5.46993">
        <ele>298</ele>
        <time>2014-11-16T13:33:14Z</time>
      </trkpt>
      <trkpt lat="43.21256" lon="5.46991">
        <ele>300</ele>
        <time>2014-11-16T13:33:23Z</time>
      </trkpt>
      <trkpt lat="43.21257" lon="5.46992">
        <ele>300</ele>
        <time>2014-11-16T13:33:33Z</time>
      </trkpt>
      <trkpt lat="43.21257" lon="5.46992">
        <ele>300</ele>
        <time>2014-11-16T13:33:43Z</time>
      </trkpt>
      <trkpt lat="43.21256" lon="5.46993">
        <ele>304</ele>
        <time>2014-11-16T13:33:59Z</time>
      </trkpt>
      <trkpt lat="43.21255" lon="5.46996">
        <ele>306</ele>
        <time>2014-11-16T13:34:27Z</time>
      </trkpt>
      <trkpt lat="43.21256" lon="5.46996">
        <ele>311</ele>
        <time>2014-11-16T13:34:37Z</time>
      </trkpt>
      <trkpt lat="43.21261" lon="5.46987">
        <ele>301</ele>
        <time>2014-11-16T13:34:49Z</time>
      </trkpt>
      <trkpt lat="43.21254" lon="5.46992">
        <ele>303</ele>
        <time>2014-11-16T13:34:59Z</time>
      </trkpt>
      <trkpt lat="43.21257" lon="5.46991">
        <ele>309</ele>
        <time>2014-11-16T13:35:08Z</time>
      </trkpt>
      <trkpt lat="43.21256" lon="5.46992">
        <ele>309</ele>
        <time>2014-11-16T13:35:19Z</time>
      </trkpt>
      <trkpt lat="43.21257" lon="5.46993">
        <ele>309</ele>
        <time>2014-11-16T13:35:30Z</time>
      </trkpt>
      <trkpt lat="43.21258" lon="5.46996">
        <ele>309</ele>
        <time>2014-11-16T13:35:39Z</time>
      </trkpt>
      <trkpt lat="43.21262" lon="5.46995">
        <ele>310</ele>
        <time>2014-11-16T13:35:52Z</time>
      </trkpt>
      <trkpt lat="43.21261" lon="5.46999">
        <ele>315</ele>
        <time>2014-11-16T13:36:07Z</time>
      </trkpt>
      <trkpt lat="43.21262" lon="5.46997">
        <ele>318</ele>
        <time>2014-11-16T13:36:18Z</time>
      </trkpt>
      <trkpt lat="43.21263" lon="5.46995">
        <ele>318</ele>
        <time>2014-11-16T13:36:29Z</time>
      </trkpt>
      <trkpt lat="43.2126" lon="5.46992">
        <ele>319</ele>
        <time>2014-11-16T13:36:40Z</time>
      </trkpt>
      <trkpt lat="43.21256" lon="5.46989">
        <ele>322</ele>
        <time>2014-11-16T13:36:49Z</time>
      </trkpt>
      <trkpt lat="43.21254" lon="5.46994">
        <ele>331</ele>
        <time>2014-11-16T13:36:58Z</time>
      </trkpt>
      <trkpt lat="43.21252" lon="5.46998">
        <ele>341</ele>
        <time>2014-11-16T13:37:18Z</time>
      </trkpt>
      <trkpt lat="43.21254" lon="5.46999">
        <ele>346</ele>
        <time>2014-11-16T13:37:32Z</time>
      </trkpt>
      <trkpt lat="43.21256" lon="5.46997">
        <ele>346</ele>
        <time>2014-11-16T13:37:48Z</time>
      </trkpt>
      <trkpt lat="43.21258" lon="5.46994">
        <ele>346</ele>
        <time>2014-11-16T13:37:57Z</time>
      </trkpt>
      <trkpt lat="43.2126" lon="5.46991">
        <ele>339</ele>
        <time>2014-11-16T13:38:10Z</time>
      </trkpt>
      <trkpt lat="43.21259" lon="5.46987">
        <ele>339</ele>
        <time>2014-11-16T13:38:19Z</time>
      </trkpt>
      <trkpt lat="43.21261" lon="5.46986">
        <ele>336</ele>
        <time>2014-11-16T13:38:29Z</time>
      </trkpt>
      <trkpt lat="43.21264" lon="5.46984">
        <ele>333</ele>
        <time>2014-11-16T13:38:39Z</time>
      </trkpt>
      <trkpt lat="43.21268" lon="5.46986">
        <ele>328</ele>
        <time>2014-11-16T13:38:49Z</time>
      </trkpt>
      <trkpt lat="43.21271" lon="5.46988">
        <ele>323</ele>
        <time>2014-11-16T13:39:00Z</time>
      </trkpt>
      <trkpt lat="43.21274" lon="5.46989">
        <ele>322</ele>
        <time>2014-11-16T13:39:10Z</time>
      </trkpt>
      <trkpt lat="43.2128" lon="5.46986">
        <ele>312</ele>
        <time>2014-11-16T13:39:20Z</time>
      </trkpt>
      <trkpt lat="43.21283" lon="5.46985">
        <ele>308</ele>
        <time>2014-11-16T13:39:41Z</time>
      </trkpt>
      <trkpt lat="43.21287" lon="5.46983">
        <ele>308</ele>
        <time>2014-11-16T13:39:50Z</time>
      </trkpt>
      <trkpt lat="43.21292" lon="5.46995">
        <ele>304</ele>
        <time>2014-11-16T13:39:59Z</time>
      </trkpt>
      <trkpt lat="43.2129" lon="5.46997">
        <ele>304</ele>
        <time>2014-11-16T13:40:08Z</time>
      </trkpt>
      <trkpt lat="43.21285" lon="5.47001">
        <ele>307</ele>
        <time>2014-11-16T13:40:20Z</time>
      </trkpt>
      <trkpt lat="43.21278" lon="5.47006">
        <ele>317</ele>
        <time>2014-11-16T13:40:30Z</time>
      </trkpt>
      <trkpt lat="43.21281" lon="5.47">
        <ele>322</ele>
        <time>2014-11-16T13:40:39Z</time>
      </trkpt>
      <trkpt lat="43.2128" lon="5.47001">
        <ele>320</ele>
        <time>2014-11-16T13:40:48Z</time>
      </trkpt>
      <trkpt lat="43.21277" lon="5.47005">
        <ele>330</ele>
        <time>2014-11-16T13:41:00Z</time>
      </trkpt>
      <trkpt lat="43.21272" lon="5.47009">
        <ele>340</ele>
        <time>2014-11-16T13:41:10Z</time>
      </trkpt>
      <trkpt lat="43.21272" lon="5.47009">
        <ele>351</ele>
        <time>2014-11-16T13:41:20Z</time>
      </trkpt>
      <trkpt lat="43.21274" lon="5.47009">
        <ele>351</ele>
        <time>2014-11-16T13:41:34Z</time>
      </trkpt>
      <trkpt lat="43.21273" lon="5.4701">
        <ele>352</ele>
        <time>2014-11-16T13:41:43Z</time>
      </trkpt>
      <trkpt lat="43.21275" lon="5.47012">
        <ele>352</ele>
        <time>2014-11-16T13:41:53Z</time>
      </trkpt>
      <trkpt lat="43.21286" lon="5.47008">
        <ele>342</ele>
        <time>2014-11-16T13:42:08Z</time>
      </trkpt>
      <trkpt lat="43.21291" lon="5.47004">
        <ele>328</ele>
        <time>2014-11-16T13:42:22Z</time>
      </trkpt>
      <trkpt lat="43.21289" lon="5.47006">
        <ele>328</ele>
        <time>2014-11-16T13:42:31Z</time>
      </trkpt>
      <trkpt lat="43.21288" lon="5.47005">
        <ele>336</ele>
        <time>2014-11-16T13:42:56Z</time>
      </trkpt>
      <trkpt lat="43.21289" lon="5.47005">
        <ele>336</ele>
        <time>2014-11-16T13:43:06Z</time>
      </trkpt>
      <trkpt lat="43.2129" lon="5.47001">
        <ele>336</ele>
        <time>2014-11-16T13:43:15Z</time>
      </trkpt>
      <trkpt lat="43.2129" lon="5.46998">
        <ele>335</ele>
        <time>2014-11-16T13:43:33Z</time>
      </trkpt>
      <trkpt lat="43.21292" lon="5.46996">
        <ele>334</ele>
        <time>2014-11-16T13:43:45Z</time>
      </trkpt>
      <trkpt lat="43.21294" lon="5.46995">
        <ele>329</ele>
        <time>2014-11-16T13:43:58Z</time>
      </trkpt>
      <trkpt lat="43.21289" lon="5.47003">
        <ele>329</ele>
        <time>2014-11-16T13:44:08Z</time>
      </trkpt>
      <trkpt lat="43.21289" lon="5.47002">
        <ele>331</ele>
        <time>2014-11-16T13:44:22Z</time>
      </trkpt>
      <trkpt lat="43.21292" lon="5.46999">
        <ele>331</ele>
        <time>2014-11-16T13:44:31Z</time>
      </trkpt>
      <trkpt lat="43.2129" lon="5.47001">
        <ele>331</ele>
        <time>2014-11-16T13:44:40Z</time>
      </trkpt>
      <trkpt lat="43.21288" lon="5.4701">
        <ele>338</ele>
        <time>2014-11-16T13:44:50Z</time>
      </trkpt>
      <trkpt lat="43.21293" lon="5.47005">
        <ele>332</ele>
        <time>2014-11-16T13:44:59Z</time>
      </trkpt>
      <trkpt lat="43.21288" lon="5.47003">
        <ele>332</ele>
        <time>2014-11-16T13:45:08Z</time>
      </trkpt>
      <trkpt lat="43.21286" lon="5.46994">
        <ele>338</ele>
        <time>2014-11-16T13:45:19Z</time>
      </trkpt>
      <trkpt lat="43.21286" lon="5.46994">
        <ele>340</ele>
        <time>2014-11-16T13:45:28Z</time>
      </trkpt>
      <trkpt lat="43.21287" lon="5.46993">
        <ele>340</ele>
        <time>2014-11-16T13:45:38Z</time>
      </trkpt>
      <trkpt lat="43.21286" lon="5.47001">
        <ele>341</ele>
        <time>2014-11-16T13:45:49Z</time>
      </trkpt>
      <trkpt lat="43.21286" lon="5.47001">
        <ele>341</ele>
        <time>2014-11-16T13:45:58Z</time>
      </trkpt>
      <trkpt lat="43.21291" lon="5.46997">
        <ele>341</ele>
        <time>2014-11-16T13:46:11Z</time>
      </trkpt>
      <trkpt lat="43.21294" lon="5.46996">
        <ele>338</ele>
        <time>2014-11-16T13:46:28Z</time>
      </trkpt>
      <trkpt lat="43.21295" lon="5.47001">
        <ele>335</ele>
        <time>2014-11-16T13:46:37Z</time>
      </trkpt>
      <trkpt lat="43.21296" lon="5.47001">
        <ele>333</ele>
        <time>2014-11-16T13:46:52Z</time>
      </trkpt>
      <trkpt lat="43.21294" lon="5.47007">
        <ele>333</ele>
        <time>2014-11-16T13:47:01Z</time>
      </trkpt>
      <trkpt lat="43.21291" lon="5.4701">
        <ele>336</ele>
        <time>2014-11-16T13:47:13Z</time>
      </trkpt>
      <trkpt lat="43.21291" lon="5.47011">
        <ele>340</ele>
        <time>2014-11-16T13:47:23Z</time>
      </trkpt>
      <trkpt lat="43.21294" lon="5.47004">
        <ele>340</ele>
        <time>2014-11-16T13:47:33Z</time>
      </trkpt>
      <trkpt lat="43.21296" lon="5.46999">
        <ele>340</ele>
        <time>2014-11-16T13:47:43Z</time>
      </trkpt>
      <trkpt lat="43.21301" lon="5.47001">
        <ele>330</ele>
        <time>2014-11-16T13:48:07Z</time>
      </trkpt>
      <trkpt lat="43.21302" lon="5.47001">
        <ele>330</ele>
        <time>2014-11-16T13:48:16Z</time>
      </trkpt>
      <trkpt lat="43.21303" lon="5.46997">
        <ele>329</ele>
        <time>2014-11-16T13:48:27Z</time>
      </trkpt>
      <trkpt lat="43.213" lon="5.46998">
        <ele>328</ele>
        <time>2014-11-16T13:48:37Z</time>
      </trkpt>
      <trkpt lat="43.213" lon="5.47">
        <ele>328</ele>
        <time>2014-11-16T13:48:49Z</time>
      </trkpt>
      <trkpt lat="43.21298" lon="5.46995">
        <ele>333</ele>
        <time>2014-11-16T13:49:04Z</time>
      </trkpt>
      <trkpt lat="43.21297" lon="5.46995">
        <ele>338</ele>
        <time>2014-11-16T13:49:28Z</time>
      </trkpt>
      <trkpt lat="43.21299" lon="5.47002">
        <ele>338</ele>
        <time>2014-11-16T13:49:41Z</time>
      </trkpt>
      <trkpt lat="43.21297" lon="5.47">
        <ele>339</ele>
        <time>2014-11-16T13:49:53Z</time>
      </trkpt>
      <trkpt lat="43.21298" lon="5.47">
        <ele>339</ele>
        <time>2014-11-16T13:50:02Z</time>
      </trkpt>
      <trkpt lat="43.21299" lon="5.47002">
        <ele>339</ele>
        <time>2014-11-16T13:50:15Z</time>
      </trkpt>
      <trkpt lat="43.21301" lon="5.47001">
        <ele>339</ele>
        <time>2014-11-16T13:50:26Z</time>
      </trkpt>
      <trkpt lat="43.21302" lon="5.47001">
        <ele>339</ele>
        <time>2014-11-16T13:50:35Z</time>
      </trkpt>
      <trkpt lat="43.21304" lon="5.47003">
        <ele>339</ele>
        <time>2014-11-16T13:50:49Z</time>
      </trkpt>
      <trkpt lat="43.21304" lon="5.47004">
        <ele>339</ele>
        <time>2014-11-16T13:51:01Z</time>
      </trkpt>
      <trkpt lat="43.21309" lon="5.47007">
        <ele>339</ele>
        <time>2014-11-16T13:51:10Z</time>
      </trkpt>
      <trkpt lat="43.2131" lon="5.47008">
        <ele>338</ele>
        <time>2014-11-16T13:51:20Z</time>
      </trkpt>
      <trkpt lat="43.21312" lon="5.47009">
        <ele>338</ele>
        <time>2014-11-16T13:51:32Z</time>
      </trkpt>
      <trkpt lat="43.2131" lon="5.4701">
        <ele>338</ele>
        <time>2014-11-16T13:51:43Z</time>
      </trkpt>
      <trkpt lat="43.21309" lon="5.47013">
        <ele>338</ele>
        <time>2014-11-16T13:51:52Z</time>
      </trkpt>
      <trkpt lat="43.2131" lon="5.47016">
        <ele>343</ele>
        <time>2014-11-16T13:52:07Z</time>
      </trkpt>
      <trkpt lat="43.21309" lon="5.47019">
        <ele>343</ele>
        <time>2014-11-16T13:52:17Z</time>
      </trkpt>
      <trkpt lat="43.21311" lon="5.47025">
        <ele>343</ele>
        <time>2014-11-16T13:52:31Z</time>
      </trkpt>
      <trkpt lat="43.21313" lon="5.47025">
        <ele>344</ele>
        <time>2014-11-16T13:52:44Z</time>
      </trkpt>
      <trkpt lat="43.21315" lon="5.47026">
        <ele>346</ele>
        <time>2014-11-16T13:53:02Z</time>
      </trkpt>
      <trkpt lat="43.21315" lon="5.47025">
        <ele>346</ele>
        <time>2014-11-16T13:53:15Z</time>
      </trkpt>
      <trkpt lat="43.21312" lon="5.47022">
        <ele>346</ele>
        <time>2014-11-16T13:53:28Z</time>
      </trkpt>
      <trkpt lat="43.21309" lon="5.47018">
        <ele>345</ele>
        <time>2014-11-16T13:54:03Z</time>
      </trkpt>
      <trkpt lat="43.21309" lon="5.47015">
        <ele>345</ele>
        <time>2014-11-16T13:54:12Z</time>
      </trkpt>
      <trkpt lat="43.21308" lon="5.47012">
        <ele>345</ele>
        <time>2014-11-16T13:54:25Z</time>
      </trkpt>
      <trkpt lat="43.21307" lon="5.47007">
        <ele>345</ele>
        <time>2014-11-16T13:54:38Z</time>
      </trkpt>
      <trkpt lat="43.21308" lon="5.47006">
        <ele>345</ele>
        <time>2014-11-16T13:54:54Z</time>
      </trkpt>
      <trkpt lat="43.21307" lon="5.47006">
        <ele>346</ele>
        <time>2014-11-16T13:55:11Z</time>
      </trkpt>
      <trkpt lat="43.21307" lon="5.47004">
        <ele>346</ele>
        <time>2014-11-16T13:55:23Z</time>
      </trkpt>
      <trkpt lat="43.21308" lon="5.47002">
        <ele>346</ele>
        <time>2014-11-16T13:55:33Z</time>
      </trkpt>
      <trkpt lat="43.2131" lon="5.47002">
        <ele>346</ele>
        <time>2014-11-16T13:55:42Z</time>
      </trkpt>
      <trkpt lat="43.21316" lon="5.46999">
        <ele>346</ele>
        <time>2014-11-16T13:55:53Z</time>
      </trkpt>
      <trkpt lat="43.21317" lon="5.46996">
        <ele>346</ele>
        <time>2014-11-16T13:56:02Z</time>
      </trkpt>
      <trkpt lat="43.21321" lon="5.46994">
        <ele>347</ele>
        <time>2014-11-16T13:56:12Z</time>
      </trkpt>
      <trkpt lat="43.21324" lon="5.46994">
        <ele>347</ele>
        <time>2014-11-16T13:56:24Z</time>
      </trkpt>
      <trkpt lat="43.21327" lon="5.46993">
        <ele>347</ele>
        <time>2014-11-16T13:56:34Z</time>
      </trkpt>
      <trkpt lat="43.21329" lon="5.46997">
        <ele>347</ele>
        <time>2014-11-16T13:56:45Z</time>
      </trkpt>
      <trkpt lat="43.21331" lon="5.46999">
        <ele>353</ele>
        <time>2014-11-16T13:57:16Z</time>
      </trkpt>
      <trkpt lat="43.21336" lon="5.46998">
        <ele>353</ele>
        <time>2014-11-16T13:57:26Z</time>
      </trkpt>
      <trkpt lat="43.21338" lon="5.46995">
        <ele>353</ele>
        <time>2014-11-16T13:57:37Z</time>
      </trkpt>
      <trkpt lat="43.21342" lon="5.46992">
        <ele>353</ele>
        <time>2014-11-16T13:57:48Z</time>
      </trkpt>
      <trkpt lat="43.21345" lon="5.46992">
        <ele>353</ele>
        <time>2014-11-16T13:57:57Z</time>
      </trkpt>
      <trkpt lat="43.21349" lon="5.46993">
        <ele>351</ele>
        <time>2014-11-16T13:58:08Z</time>
      </trkpt>
      <trkpt lat="43.21344" lon="5.46997">
        <ele>352</ele>
        <time>2014-11-16T13:58:18Z</time>
      </trkpt>
      <trkpt lat="43.21344" lon="5.47004">
        <ele>357</ele>
        <time>2014-11-16T13:58:31Z</time>
      </trkpt>
      <trkpt lat="43.21349" lon="5.47001">
        <ele>359</ele>
        <time>2014-11-16T13:58:43Z</time>
      </trkpt>
      <trkpt lat="43.21351" lon="5.46996">
        <ele>361</ele>
        <time>2014-11-16T13:58:55Z</time>
      </trkpt>
      <trkpt lat="43.21352" lon="5.46994">
        <ele>361</ele>
        <time>2014-11-16T13:59:05Z</time>
      </trkpt>
      <trkpt lat="43.21352" lon="5.46991">
        <ele>364</ele>
        <time>2014-11-16T13:59:15Z</time>
      </trkpt>
      <trkpt lat="43.21355" lon="5.46989">
        <ele>365</ele>
        <time>2014-11-16T13:59:28Z</time>
      </trkpt>
      <trkpt lat="43.21354" lon="5.46984">
        <ele>368</ele>
        <time>2014-11-16T13:59:40Z</time>
      </trkpt>
      <trkpt lat="43.21356" lon="5.46978">
        <ele>368</ele>
        <time>2014-11-16T13:59:49Z</time>
      </trkpt>
      <trkpt lat="43.21359" lon="5.46971">
        <ele>369</ele>
        <time>2014-11-16T13:59:59Z</time>
      </trkpt>
      <trkpt lat="43.2136" lon="5.46966">
        <ele>371</ele>
        <time>2014-11-16T14:00:23Z</time>
      </trkpt>
      <trkpt lat="43.21362" lon="5.46963">
        <ele>372</ele>
        <time>2014-11-16T14:00:32Z</time>
      </trkpt>
      <trkpt lat="43.21365" lon="5.4696">
        <ele>373</ele>
        <time>2014-11-16T14:00:43Z</time>
      </trkpt>
      <trkpt lat="43.21369" lon="5.46958">
        <ele>375</ele>
        <time>2014-11-16T14:00:55Z</time>
      </trkpt>
      <trkpt lat="43.21371" lon="5.46955">
        <ele>376</ele>
        <time>2014-11-16T14:01:04Z</time>
      </trkpt>
      <trkpt lat="43.21374" lon="5.4695">
        <ele>377</ele>
        <time>2014-11-16T14:01:14Z</time>
      </trkpt>
      <trkpt lat="43.21377" lon="5.46944">
        <ele>379</ele>
        <time>2014-11-16T14:01:24Z</time>
      </trkpt>
      <trkpt lat="43.21381" lon="5.46945">
        <ele>380</ele>
        <time>2014-11-16T14:01:36Z</time>
      </trkpt>
      <trkpt lat="43.21384" lon="5.46939">
        <ele>381</ele>
        <time>2014-11-16T14:01:46Z</time>
      </trkpt>
      <trkpt lat="43.21386" lon="5.46929">
        <ele>383</ele>
        <time>2014-11-16T14:01:56Z</time>
      </trkpt>
      <trkpt lat="43.21386" lon="5.4692">
        <ele>384</ele>
        <time>2014-11-16T14:02:07Z</time>
      </trkpt>
      <trkpt lat="43.21389" lon="5.46916">
        <ele>386</ele>
        <time>2014-11-16T14:02:17Z</time>
      </trkpt>
      <trkpt lat="43.21393" lon="5.46911">
        <ele>388</ele>
        <time>2014-11-16T14:02:27Z</time>
      </trkpt>
      <trkpt lat="43.21396" lon="5.46902">
        <ele>390</ele>
        <time>2014-11-16T14:02:37Z</time>
      </trkpt>
      <trkpt lat="43.21398" lon="5.4689">
        <ele>391</ele>
        <time>2014-11-16T14:02:47Z</time>
      </trkpt>
      <trkpt lat="43.21402" lon="5.4688">
        <ele>391</ele>
        <time>2014-11-16T14:02:58Z</time>
      </trkpt>
      <trkpt lat="43.21407" lon="5.46874">
        <ele>393</ele>
        <time>2014-11-16T14:03:07Z</time>
      </trkpt>
      <trkpt lat="43.21412" lon="5.4687">
        <ele>394</ele>
        <time>2014-11-16T14:03:16Z</time>
      </trkpt>
      <trkpt lat="43.21417" lon="5.46862">
        <ele>396</ele>
        <time>2014-11-16T14:03:26Z</time>
      </trkpt>
      <trkpt lat="43.21423" lon="5.46855">
        <ele>397</ele>
        <time>2014-11-16T14:03:36Z</time>
      </trkpt>
      <trkpt lat="43.21432" lon="5.46848">
        <ele>397</ele>
        <time>2014-11-16T14:03:46Z</time>
      </trkpt>
      <trkpt lat="43.21441" lon="5.4684">
        <ele>397</ele>
        <time>2014-11-16T14:03:56Z</time>
      </trkpt>
      <trkpt lat="43.21447" lon="5.4683">
        <ele>397</ele>
        <time>2014-11-16T14:04:06Z</time>
      </trkpt>
      <trkpt lat="43.21454" lon="5.46824">
        <ele>398</ele>
        <time>2014-11-16T14:04:16Z</time>
      </trkpt>
      <trkpt lat="43.21457" lon="5.46815">
        <ele>398</ele>
        <time>2014-11-16T14:04:26Z</time>
      </trkpt>
      <trkpt lat="43.21465" lon="5.46807">
        <ele>399</ele>
        <time>2014-11-16T14:04:36Z</time>
      </trkpt>
      <trkpt lat="43.21474" lon="5.46803">
        <ele>400</ele>
        <time>2014-11-16T14:04:45Z</time>
      </trkpt>
      <trkpt lat="43.21483" lon="5.46803">
        <ele>400</ele>
        <time>2014-11-16T14:04:54Z</time>
      </trkpt>
      <trkpt lat="43.2149" lon="5.468">
        <ele>400</ele>
        <time>2014-11-16T14:05:04Z</time>
      </trkpt>
      <trkpt lat="43.21499" lon="5.46796">
        <ele>398</ele>
        <time>2014-11-16T14:05:13Z</time>
      </trkpt>
      <trkpt lat="43.21505" lon="5.46785">
        <ele>398</ele>
        <time>2014-11-16T14:05:23Z</time>
      </trkpt>
      <trkpt lat="43.2151" lon="5.46778">
        <ele>398</ele>
        <time>2014-11-16T14:05:33Z</time>
      </trkpt>
      <trkpt lat="43.21517" lon="5.4677">
        <ele>400</ele>
        <time>2014-11-16T14:05:43Z</time>
      </trkpt>
      <trkpt lat="43.21528" lon="5.46762">
        <ele>401</ele>
        <time>2014-11-16T14:05:53Z</time>
      </trkpt>
      <trkpt lat="43.21535" lon="5.46754">
        <ele>401</ele>
        <time>2014-11-16T14:06:03Z</time>
      </trkpt>
      <trkpt lat="43.21544" lon="5.46748">
        <ele>400</ele>
        <time>2014-11-16T14:06:14Z</time>
      </trkpt>
      <trkpt lat="43.2155" lon="5.4674">
        <ele>400</ele>
        <time>2014-11-16T14:06:23Z</time>
      </trkpt>
      <trkpt lat="43.21555" lon="5.46732">
        <ele>400</ele>
        <time>2014-11-16T14:06:33Z</time>
      </trkpt>
      <trkpt lat="43.21561" lon="5.46728">
        <ele>402</ele>
        <time>2014-11-16T14:06:42Z</time>
      </trkpt>
      <trkpt lat="43.21567" lon="5.46718">
        <ele>404</ele>
        <time>2014-11-16T14:06:52Z</time>
      </trkpt>
      <trkpt lat="43.21574" lon="5.46707">
        <ele>404</ele>
        <time>2014-11-16T14:07:01Z</time>
      </trkpt>
      <trkpt lat="43.21582" lon="5.46696">
        <ele>400</ele>
        <time>2014-11-16T14:07:11Z</time>
      </trkpt>
      <trkpt lat="43.21587" lon="5.46684">
        <ele>400</ele>
        <time>2014-11-16T14:07:20Z</time>
      </trkpt>
      <trkpt lat="43.21584" lon="5.46673">
        <ele>400</ele>
        <time>2014-11-16T14:07:30Z</time>
      </trkpt>
      <trkpt lat="43.21578" lon="5.46667">
        <ele>400</ele>
        <time>2014-11-16T14:07:41Z</time>
      </trkpt>
      <trkpt lat="43.21569" lon="5.46664">
        <ele>400</ele>
        <time>2014-11-16T14:07:50Z</time>
      </trkpt>
      <trkpt lat="43.21563" lon="5.46662">
        <ele>403</ele>
        <time>2014-11-16T14:08:00Z</time>
      </trkpt>
      <trkpt lat="43.21556" lon="5.4666">
        <ele>405</ele>
        <time>2014-11-16T14:08:10Z</time>
      </trkpt>
      <trkpt lat="43.21549" lon="5.46657">
        <ele>411</ele>
        <time>2014-11-16T14:08:20Z</time>
      </trkpt>
      <trkpt lat="43.2154" lon="5.46656">
        <ele>420</ele>
        <time>2014-11-16T14:08:30Z</time>
      </trkpt>
      <trkpt lat="43.21534" lon="5.46654">
        <ele>423</ele>
        <time>2014-11-16T14:08:40Z</time>
      </trkpt>
      <trkpt lat="43.21527" lon="5.46651">
        <ele>425</ele>
        <time>2014-11-16T14:08:51Z</time>
      </trkpt>
      <trkpt lat="43.21523" lon="5.46647">
        <ele>425</ele>
        <time>2014-11-16T14:09:03Z</time>
      </trkpt>
      <trkpt lat="43.21513" lon="5.46646">
        <ele>425</ele>
        <time>2014-11-16T14:09:13Z</time>
      </trkpt>
      <trkpt lat="43.21503" lon="5.46645">
        <ele>425</ele>
        <time>2014-11-16T14:09:23Z</time>
      </trkpt>
      <trkpt lat="43.21493" lon="5.46648">
        <ele>423</ele>
        <time>2014-11-16T14:09:33Z</time>
      </trkpt>
      <trkpt lat="43.21483" lon="5.46651">
        <ele>423</ele>
        <time>2014-11-16T14:09:42Z</time>
      </trkpt>
      <trkpt lat="43.21473" lon="5.46649">
        <ele>423</ele>
        <time>2014-11-16T14:09:52Z</time>
      </trkpt>
      <trkpt lat="43.21465" lon="5.46648">
        <ele>423</ele>
        <time>2014-11-16T14:10:01Z</time>
      </trkpt>
      <trkpt lat="43.2146" lon="5.46644">
        <ele>422</ele>
        <time>2014-11-16T14:10:10Z</time>
      </trkpt>
      <trkpt lat="43.21455" lon="5.46639">
        <ele>422</ele>
        <time>2014-11-16T14:10:23Z</time>
      </trkpt>
      <trkpt lat="43.2145" lon="5.46635">
        <ele>422</ele>
        <time>2014-11-16T14:10:33Z</time>
      </trkpt>
      <trkpt lat="43.21446" lon="5.46631">
        <ele>422</ele>
        <time>2014-11-16T14:10:42Z</time>
      </trkpt>
      <trkpt lat="43.2144" lon="5.46627">
        <ele>422</ele>
        <time>2014-11-16T14:10:53Z</time>
      </trkpt>
      <trkpt lat="43.21435" lon="5.46624">
        <ele>422</ele>
        <time>2014-11-16T14:11:02Z</time>
      </trkpt>
      <trkpt lat="43.21428" lon="5.46621">
        <ele>422</ele>
        <time>2014-11-16T14:11:12Z</time>
      </trkpt>
      <trkpt lat="43.21423" lon="5.46618">
        <ele>422</ele>
        <time>2014-11-16T14:11:21Z</time>
      </trkpt>
      <trkpt lat="43.21416" lon="5.46615">
        <ele>424</ele>
        <time>2014-11-16T14:11:31Z</time>
      </trkpt>
      <trkpt lat="43.21414" lon="5.46609">
        <ele>424</ele>
        <time>2014-11-16T14:11:42Z</time>
      </trkpt>
      <trkpt lat="43.21408" lon="5.46609">
        <ele>424</ele>
        <time>2014-11-16T14:11:52Z</time>
      </trkpt>
      <trkpt lat="43.21404" lon="5.46606">
        <ele>426</ele>
        <time>2014-11-16T14:12:04Z</time>
      </trkpt>
      <trkpt lat="43.21407" lon="5.46604">
        <ele>426</ele>
        <time>2014-11-16T14:12:15Z</time>
      </trkpt>
      <trkpt lat="43.21406" lon="5.46603">
        <ele>428</ele>
        <time>2014-11-16T14:12:27Z</time>
      </trkpt>
      <trkpt lat="43.21405" lon="5.46602">
        <ele>428</ele>
        <time>2014-11-16T14:13:17Z</time>
      </trkpt>
      <trkpt lat="43.21398" lon="5.466">
        <ele>428</ele>
        <time>2014-11-16T14:13:27Z</time>
      </trkpt>
      <trkpt lat="43.21394" lon="5.46601">
        <ele>428</ele>
        <time>2014-11-16T14:13:37Z</time>
      </trkpt>
      <trkpt lat="43.21394" lon="5.46601">
        <ele>428</ele>
        <time>2014-11-16T14:13:51Z</time>
      </trkpt>
      <trkpt lat="43.21394" lon="5.46603">
        <ele>427</ele>
        <time>2014-11-16T14:14:02Z</time>
      </trkpt>
      <trkpt lat="43.21394" lon="5.46601">
        <ele>430</ele>
        <time>2014-11-16T14:14:26Z</time>
      </trkpt>
      <trkpt lat="43.21394" lon="5.46599">
        <ele>431</ele>
        <time>2014-11-16T14:14:40Z</time>
      </trkpt>
      <trkpt lat="43.21393" lon="5.46606">
        <ele>431</ele>
        <time>2014-11-16T14:14:50Z</time>
      </trkpt>
      <trkpt lat="43.21388" lon="5.46613">
        <ele>431</ele>
        <time>2014-11-16T14:15:02Z</time>
      </trkpt>
      <trkpt lat="43.21387" lon="5.46613">
        <ele>431</ele>
        <time>2014-11-16T14:15:21Z</time>
      </trkpt>
      <trkpt lat="43.21377" lon="5.46618">
        <ele>431</ele>
        <time>2014-11-16T14:15:31Z</time>
      </trkpt>
      <trkpt lat="43.21368" lon="5.46618">
        <ele>431</ele>
        <time>2014-11-16T14:15:41Z</time>
      </trkpt>
      <trkpt lat="43.2136" lon="5.46617">
        <ele>431</ele>
        <time>2014-11-16T14:15:50Z</time>
      </trkpt>
      <trkpt lat="43.21354" lon="5.46612">
        <ele>431</ele>
        <time>2014-11-16T14:16:00Z</time>
      </trkpt>
      <trkpt lat="43.21344" lon="5.46605">
        <ele>431</ele>
        <time>2014-11-16T14:16:11Z</time>
      </trkpt>
      <trkpt lat="43.21339" lon="5.46599">
        <ele>431</ele>
        <time>2014-11-16T14:16:21Z</time>
      </trkpt>
      <trkpt lat="43.21333" lon="5.46601">
        <ele>431</ele>
        <time>2014-11-16T14:16:31Z</time>
      </trkpt>
      <trkpt lat="43.21328" lon="5.46601">
        <ele>430</ele>
        <time>2014-11-16T14:16:41Z</time>
      </trkpt>
      <trkpt lat="43.21329" lon="5.46594">
        <ele>429</ele>
        <time>2014-11-16T14:16:50Z</time>
      </trkpt>
      <trkpt lat="43.21333" lon="5.46588">
        <ele>428</ele>
        <time>2014-11-16T14:17:00Z</time>
      </trkpt>
      <trkpt lat="43.21335" lon="5.46585">
        <ele>427</ele>
        <time>2014-11-16T14:17:11Z</time>
      </trkpt>
      <trkpt lat="43.21338" lon="5.46578">
        <ele>426</ele>
        <time>2014-11-16T14:17:21Z</time>
      </trkpt>
      <trkpt lat="43.2134" lon="5.46574">
        <ele>425</ele>
        <time>2014-11-16T14:17:30Z</time>
      </trkpt>
      <trkpt lat="43.21337" lon="5.4657">
        <ele>423</ele>
        <time>2014-11-16T14:17:40Z</time>
      </trkpt>
      <trkpt lat="43.21342" lon="5.46561">
        <ele>421</ele>
        <time>2014-11-16T14:17:51Z</time>
      </trkpt>
      <trkpt lat="43.21347" lon="5.46553">
        <ele>419</ele>
        <time>2014-11-16T14:18:01Z</time>
      </trkpt>
      <trkpt lat="43.21349" lon="5.46548">
        <ele>418</ele>
        <time>2014-11-16T14:18:13Z</time>
      </trkpt>
      <trkpt lat="43.2135" lon="5.4654">
        <ele>418</ele>
        <time>2014-11-16T14:18:22Z</time>
      </trkpt>
      <trkpt lat="43.21356" lon="5.46527">
        <ele>418</ele>
        <time>2014-11-16T14:18:31Z</time>
      </trkpt>
      <trkpt lat="43.21355" lon="5.4652">
        <ele>415</ele>
        <time>2014-11-16T14:19:02Z</time>
      </trkpt>
      <trkpt lat="43.21364" lon="5.46524">
        <ele>414</ele>
        <time>2014-11-16T14:19:12Z</time>
      </trkpt>
      <trkpt lat="43.2137" lon="5.46529">
        <ele>411</ele>
        <time>2014-11-16T14:19:24Z</time>
      </trkpt>
      <trkpt lat="43.21373" lon="5.46528">
        <ele>408</ele>
        <time>2014-11-16T14:19:34Z</time>
      </trkpt>
      <trkpt lat="43.21374" lon="5.46523">
        <ele>405</ele>
        <time>2014-11-16T14:19:45Z</time>
      </trkpt>
      <trkpt lat="43.21378" lon="5.4652">
        <ele>403</ele>
        <time>2014-11-16T14:19:55Z</time>
      </trkpt>
      <trkpt lat="43.21387" lon="5.46518">
        <ele>401</ele>
        <time>2014-11-16T14:20:05Z</time>
      </trkpt>
      <trkpt lat="43.21396" lon="5.46518">
        <ele>400</ele>
        <time>2014-11-16T14:20:15Z</time>
      </trkpt>
      <trkpt lat="43.21408" lon="5.46517">
        <ele>398</ele>
        <time>2014-11-16T14:20:25Z</time>
      </trkpt>
      <trkpt lat="43.21419" lon="5.46516">
        <ele>396</ele>
        <time>2014-11-16T14:20:35Z</time>
      </trkpt>
      <trkpt lat="43.21423" lon="5.4651">
        <ele>393</ele>
        <time>2014-11-16T14:20:47Z</time>
      </trkpt>
      <trkpt lat="43.21426" lon="5.46506">
        <ele>390</ele>
        <time>2014-11-16T14:20:56Z</time>
      </trkpt>
      <trkpt lat="43.21428" lon="5.46504">
        <ele>388</ele>
        <time>2014-11-16T14:21:05Z</time>
      </trkpt>
      <trkpt lat="43.21429" lon="5.465">
        <ele>385</ele>
        <time>2014-11-16T14:21:17Z</time>
      </trkpt>
      <trkpt lat="43.2143" lon="5.46495">
        <ele>382</ele>
        <time>2014-11-16T14:21:26Z</time>
      </trkpt>
      <trkpt lat="43.21434" lon="5.46488">
        <ele>379</ele>
        <time>2014-11-16T14:21:35Z</time>
      </trkpt>
      <trkpt lat="43.21442" lon="5.4648">
        <ele>378</ele>
        <time>2014-11-16T14:21:44Z</time>
      </trkpt>
      <trkpt lat="43.2145" lon="5.46479">
        <ele>377</ele>
        <time>2014-11-16T14:21:53Z</time>
      </trkpt>
      <trkpt lat="43.21458" lon="5.46472">
        <ele>377</ele>
        <time>2014-11-16T14:22:02Z</time>
      </trkpt>
      <trkpt lat="43.21466" lon="5.46466">
        <ele>377</ele>
        <time>2014-11-16T14:22:12Z</time>
      </trkpt>
      <trkpt lat="43.21469" lon="5.46454">
        <ele>376</ele>
        <time>2014-11-16T14:22:21Z</time>
      </trkpt>
      <trkpt lat="43.21466" lon="5.46441">
        <ele>374</ele>
        <time>2014-11-16T14:22:30Z</time>
      </trkpt>
      <trkpt lat="43.21458" lon="5.46432">
        <ele>372</ele>
        <time>2014-11-16T14:22:40Z</time>
      </trkpt>
      <trkpt lat="43.21451" lon="5.46423">
        <ele>371</ele>
        <time>2014-11-16T14:22:50Z</time>
      </trkpt>
      <trkpt lat="43.21447" lon="5.46409">
        <ele>369</ele>
        <time>2014-11-16T14:23:01Z</time>
      </trkpt>
      <trkpt lat="43.21444" lon="5.4641">
        <ele>367</ele>
        <time>2014-11-16T14:23:28Z</time>
      </trkpt>
      <trkpt lat="43.21445" lon="5.46407">
        <ele>367</ele>
        <time>2014-11-16T14:23:37Z</time>
      </trkpt>
      <trkpt lat="43.21447" lon="5.46393">
        <ele>367</ele>
        <time>2014-11-16T14:23:46Z</time>
      </trkpt>
      <trkpt lat="43.2145" lon="5.46387">
        <ele>367</ele>
        <time>2014-11-16T14:23:57Z</time>
      </trkpt>
      <trkpt lat="43.21454" lon="5.46378">
        <ele>367</ele>
        <time>2014-11-16T14:24:09Z</time>
      </trkpt>
      <trkpt lat="43.21459" lon="5.46365">
        <ele>366</ele>
        <time>2014-11-16T14:24:18Z</time>
      </trkpt>
      <trkpt lat="43.21465" lon="5.46354">
        <ele>364</ele>
        <time>2014-11-16T14:24:27Z</time>
      </trkpt>
      <trkpt lat="43.21473" lon="5.46342">
        <ele>363</ele>
        <time>2014-11-16T14:24:36Z</time>
      </trkpt>
      <trkpt lat="43.21469" lon="5.4633">
        <ele>362</ele>
        <time>2014-11-16T14:24:45Z</time>
      </trkpt>
      <trkpt lat="43.21459" lon="5.46321">
        <ele>362</ele>
        <time>2014-11-16T14:24:55Z</time>
      </trkpt>
      <trkpt lat="43.21451" lon="5.46309">
        <ele>362</ele>
        <time>2014-11-16T14:25:05Z</time>
      </trkpt>
      <trkpt lat="43.21449" lon="5.46304">
        <ele>362</ele>
        <time>2014-11-16T14:25:19Z</time>
      </trkpt>
      <trkpt lat="43.21448" lon="5.46303">
        <ele>361</ele>
        <time>2014-11-16T14:26:01Z</time>
      </trkpt>
      <trkpt lat="43.21447" lon="5.46301">
        <ele>361</ele>
        <time>2014-11-16T14:26:11Z</time>
      </trkpt>
      <trkpt lat="43.21444" lon="5.4629">
        <ele>361</ele>
        <time>2014-11-16T14:26:20Z</time>
      </trkpt>
      <trkpt lat="43.21442" lon="5.46279">
        <ele>358</ele>
        <time>2014-11-16T14:26:30Z</time>
      </trkpt>
      <trkpt lat="43.21441" lon="5.46263">
        <ele>356</ele>
        <time>2014-11-16T14:26:39Z</time>
      </trkpt>
      <trkpt lat="43.21441" lon="5.46253">
        <ele>354</ele>
        <time>2014-11-16T14:26:48Z</time>
      </trkpt>
      <trkpt lat="43.21441" lon="5.46236">
        <ele>352</ele>
        <time>2014-11-16T14:26:57Z</time>
      </trkpt>
      <trkpt lat="43.21443" lon="5.46219">
        <ele>350</ele>
        <time>2014-11-16T14:27:06Z</time>
      </trkpt>
      <trkpt lat="43.21445" lon="5.46205">
        <ele>350</ele>
        <time>2014-11-16T14:27:15Z</time>
      </trkpt>
      <trkpt lat="43.2145" lon="5.46193">
        <ele>350</ele>
        <time>2014-11-16T14:27:24Z</time>
      </trkpt>
      <trkpt lat="43.21461" lon="5.46193">
        <ele>350</ele>
        <time>2014-11-16T14:27:34Z</time>
      </trkpt>
      <trkpt lat="43.21469" lon="5.46185">
        <ele>350</ele>
        <time>2014-11-16T14:27:43Z</time>
      </trkpt>
      <trkpt lat="43.2148" lon="5.46184">
        <ele>351</ele>
        <time>2014-11-16T14:27:52Z</time>
      </trkpt>
      <trkpt lat="43.21487" lon="5.4618">
        <ele>351</ele>
        <time>2014-11-16T14:28:02Z</time>
      </trkpt>
      <trkpt lat="43.21497" lon="5.46176">
        <ele>352</ele>
        <time>2014-11-16T14:28:12Z</time>
      </trkpt>
      <trkpt lat="43.21507" lon="5.46169">
        <ele>353</ele>
        <time>2014-11-16T14:28:22Z</time>
      </trkpt>
      <trkpt lat="43.21515" lon="5.46165">
        <ele>353</ele>
        <time>2014-11-16T14:28:31Z</time>
      </trkpt>
      <trkpt lat="43.2152" lon="5.46152">
        <ele>353</ele>
        <time>2014-11-16T14:28:40Z</time>
      </trkpt>
      <trkpt lat="43.21526" lon="5.46138">
        <ele>353</ele>
        <time>2014-11-16T14:28:50Z</time>
      </trkpt>
      <trkpt lat="43.21532" lon="5.4612">
        <ele>352</ele>
        <time>2014-11-16T14:29:00Z</time>
      </trkpt>
      <trkpt lat="43.21529" lon="5.46104">
        <ele>351</ele>
        <time>2014-11-16T14:29:09Z</time>
      </trkpt>
      <trkpt lat="43.21529" lon="5.4609">
        <ele>351</ele>
        <time>2014-11-16T14:29:19Z</time>
      </trkpt>
      <trkpt lat="43.21532" lon="5.46076">
        <ele>351</ele>
        <time>2014-11-16T14:29:28Z</time>
      </trkpt>
      <trkpt lat="43.21534" lon="5.46061">
        <ele>351</ele>
        <time>2014-11-16T14:29:37Z</time>
      </trkpt>
      <trkpt lat="43.21535" lon="5.46049">
        <ele>351</ele>
        <time>2014-11-16T14:29:46Z</time>
      </trkpt>
      <trkpt lat="43.21544" lon="5.46051">
        <ele>351</ele>
        <time>2014-11-16T14:29:55Z</time>
      </trkpt>
      <trkpt lat="43.21556" lon="5.46055">
        <ele>351</ele>
        <time>2014-11-16T14:30:06Z</time>
      </trkpt>
      <trkpt lat="43.21566" lon="5.46061">
        <ele>352</ele>
        <time>2014-11-16T14:30:15Z</time>
      </trkpt>
      <trkpt lat="43.21577" lon="5.46064">
        <ele>354</ele>
        <time>2014-11-16T14:30:26Z</time>
      </trkpt>
      <trkpt lat="43.21583" lon="5.46066">
        <ele>357</ele>
        <time>2014-11-16T14:30:36Z</time>
      </trkpt>
      <trkpt lat="43.21591" lon="5.46068">
        <ele>358</ele>
        <time>2014-11-16T14:30:47Z</time>
      </trkpt>
      <trkpt lat="43.21601" lon="5.46066">
        <ele>358</ele>
        <time>2014-11-16T14:30:56Z</time>
      </trkpt>
      <trkpt lat="43.21611" lon="5.46057">
        <ele>358</ele>
        <time>2014-11-16T14:31:06Z</time>
      </trkpt>
      <trkpt lat="43.2162" lon="5.46054">
        <ele>360</ele>
        <time>2014-11-16T14:31:16Z</time>
      </trkpt>
      <trkpt lat="43.21629" lon="5.46057">
        <ele>360</ele>
        <time>2014-11-16T14:31:25Z</time>
      </trkpt>
      <trkpt lat="43.2164" lon="5.46062">
        <ele>360</ele>
        <time>2014-11-16T14:31:35Z</time>
      </trkpt>
      <trkpt lat="43.2165" lon="5.46065">
        <ele>360</ele>
        <time>2014-11-16T14:31:45Z</time>
      </trkpt>
      <trkpt lat="43.21661" lon="5.46069">
        <ele>360</ele>
        <time>2014-11-16T14:31:55Z</time>
      </trkpt>
      <trkpt lat="43.2167" lon="5.4606">
        <ele>360</ele>
        <time>2014-11-16T14:32:05Z</time>
      </trkpt>
      <trkpt lat="43.21681" lon="5.46054">
        <ele>360</ele>
        <time>2014-11-16T14:32:16Z</time>
      </trkpt>
      <trkpt lat="43.2169" lon="5.46052">
        <ele>360</ele>
        <time>2014-11-16T14:32:25Z</time>
      </trkpt>
      <trkpt lat="43.217" lon="5.46047">
        <ele>360</ele>
        <time>2014-11-16T14:32:35Z</time>
      </trkpt>
      <trkpt lat="43.21706" lon="5.46036">
        <ele>360</ele>
        <time>2014-11-16T14:32:44Z</time>
      </trkpt>
      <trkpt lat="43.21701" lon="5.46024">
        <ele>356</ele>
        <time>2014-11-16T14:32:53Z</time>
      </trkpt>
      <trkpt lat="43.21695" lon="5.46012">
        <ele>355</ele>
        <time>2014-11-16T14:33:02Z</time>
      </trkpt>
      <trkpt lat="43.21692" lon="5.46002">
        <ele>355</ele>
        <time>2014-11-16T14:33:13Z</time>
      </trkpt>
      <trkpt lat="43.21686" lon="5.45992">
        <ele>355</ele>
        <time>2014-11-16T14:33:23Z</time>
      </trkpt>
      <trkpt lat="43.21685" lon="5.45981">
        <ele>355</ele>
        <time>2014-11-16T14:33:32Z</time>
      </trkpt>
      <trkpt lat="43.21685" lon="5.45968">
        <ele>355</ele>
        <time>2014-11-16T14:33:42Z</time>
      </trkpt>
      <trkpt lat="43.21685" lon="5.45957">
        <ele>355</ele>
        <time>2014-11-16T14:33:52Z</time>
      </trkpt>
      <trkpt lat="43.21684" lon="5.45946">
        <ele>355</ele>
        <time>2014-11-16T14:34:02Z</time>
      </trkpt>
      <trkpt lat="43.21684" lon="5.45934">
        <ele>355</ele>
        <time>2014-11-16T14:34:12Z</time>
      </trkpt>
      <trkpt lat="43.21689" lon="5.45923">
        <ele>355</ele>
        <time>2014-11-16T14:34:21Z</time>
      </trkpt>
      <trkpt lat="43.21693" lon="5.45912">
        <ele>356</ele>
        <time>2014-11-16T14:34:30Z</time>
      </trkpt>
      <trkpt lat="43.21693" lon="5.45898">
        <ele>357</ele>
        <time>2014-11-16T14:34:40Z</time>
      </trkpt>
      <trkpt lat="43.217" lon="5.45892">
        <ele>357</ele>
        <time>2014-11-16T14:34:49Z</time>
      </trkpt>
      <trkpt lat="43.21709" lon="5.45892">
        <ele>358</ele>
        <time>2014-11-16T14:34:58Z</time>
      </trkpt>
      <trkpt lat="43.21718" lon="5.4589">
        <ele>358</ele>
        <time>2014-11-16T14:35:07Z</time>
      </trkpt>
      <trkpt lat="43.21727" lon="5.45889">
        <ele>360</ele>
        <time>2014-11-16T14:35:17Z</time>
      </trkpt>
      <trkpt lat="43.21736" lon="5.45889">
        <ele>362</ele>
        <time>2014-11-16T14:35:27Z</time>
      </trkpt>
      <trkpt lat="43.21742" lon="5.45886">
        <ele>363</ele>
        <time>2014-11-16T14:35:36Z</time>
      </trkpt>
      <trkpt lat="43.21748" lon="5.45881">
        <ele>365</ele>
        <time>2014-11-16T14:35:45Z</time>
      </trkpt>
      <trkpt lat="43.21755" lon="5.45877">
        <ele>367</ele>
        <time>2014-11-16T14:35:55Z</time>
      </trkpt>
      <trkpt lat="43.21762" lon="5.45879">
        <ele>368</ele>
        <time>2014-11-16T14:36:05Z</time>
      </trkpt>
      <trkpt lat="43.21771" lon="5.45879">
        <ele>369</ele>
        <time>2014-11-16T14:36:15Z</time>
      </trkpt>
      <trkpt lat="43.21779" lon="5.45876">
        <ele>370</ele>
        <time>2014-11-16T14:36:25Z</time>
      </trkpt>
      <trkpt lat="43.21788" lon="5.45875">
        <ele>371</ele>
        <time>2014-11-16T14:36:35Z</time>
      </trkpt>
      <trkpt lat="43.21795" lon="5.45868">
        <ele>371</ele>
        <time>2014-11-16T14:36:45Z</time>
      </trkpt>
      <trkpt lat="43.21794" lon="5.4586">
        <ele>371</ele>
        <time>2014-11-16T14:36:56Z</time>
      </trkpt>
      <trkpt lat="43.21793" lon="5.45857">
        <ele>371</ele>
        <time>2014-11-16T14:37:06Z</time>
      </trkpt>
      <trkpt lat="43.21794" lon="5.4585">
        <ele>373</ele>
        <time>2014-11-16T14:37:15Z</time>
      </trkpt>
      <trkpt lat="43.21792" lon="5.4584">
        <ele>373</ele>
        <time>2014-11-16T14:37:25Z</time>
      </trkpt>
      <trkpt lat="43.21791" lon="5.4583">
        <ele>373</ele>
        <time>2014-11-16T14:37:35Z</time>
      </trkpt>
      <trkpt lat="43.21791" lon="5.45823">
        <ele>373</ele>
        <time>2014-11-16T14:37:45Z</time>
      </trkpt>
      <trkpt lat="43.21793" lon="5.45815">
        <ele>375</ele>
        <time>2014-11-16T14:37:56Z</time>
      </trkpt>
      <trkpt lat="43.218" lon="5.4581">
        <ele>376</ele>
        <time>2014-11-16T14:38:06Z</time>
      </trkpt>
      <trkpt lat="43.21805" lon="5.45811">
        <ele>376</ele>
        <time>2014-11-16T14:38:15Z</time>
      </trkpt>
      <trkpt lat="43.2181" lon="5.45811">
        <ele>377</ele>
        <time>2014-11-16T14:38:26Z</time>
      </trkpt>
      <trkpt lat="43.21814" lon="5.45809">
        <ele>378</ele>
        <time>2014-11-16T14:38:36Z</time>
      </trkpt>
      <trkpt lat="43.21817" lon="5.45807">
        <ele>378</ele>
        <time>2014-11-16T14:38:48Z</time>
      </trkpt>
      <trkpt lat="43.21819" lon="5.45805">
        <ele>378</ele>
        <time>2014-11-16T14:39:01Z</time>
      </trkpt>
      <trkpt lat="43.21817" lon="5.45801">
        <ele>378</ele>
        <time>2014-11-16T14:39:22Z</time>
      </trkpt>
      <trkpt lat="43.21815" lon="5.458">
        <ele>378</ele>
        <time>2014-11-16T14:39:44Z</time>
      </trkpt>
      <trkpt lat="43.21815" lon="5.45798">
        <ele>378</ele>
        <time>2014-11-16T14:39:55Z</time>
      </trkpt>
      <trkpt lat="43.21814" lon="5.45796">
        <ele>375</ele>
        <time>2014-11-16T14:40:07Z</time>
      </trkpt>
      <trkpt lat="43.21813" lon="5.4579">
        <ele>373</ele>
        <time>2014-11-16T14:40:27Z</time>
      </trkpt>
      <trkpt lat="43.21809" lon="5.45784">
        <ele>373</ele>
        <time>2014-11-16T14:40:37Z</time>
      </trkpt>
      <trkpt lat="43.21803" lon="5.4579">
        <ele>373</ele>
        <time>2014-11-16T14:40:48Z</time>
      </trkpt>
      <trkpt lat="43.21801" lon="5.45787">
        <ele>372</ele>
        <time>2014-11-16T14:40:57Z</time>
      </trkpt>
      <trkpt lat="43.21797" lon="5.45784">
        <ele>372</ele>
        <time>2014-11-16T14:41:07Z</time>
      </trkpt>
      <trkpt lat="43.21796" lon="5.45779">
        <ele>372</ele>
        <time>2014-11-16T14:41:16Z</time>
      </trkpt>
      <trkpt lat="43.21793" lon="5.45781">
        <ele>370</ele>
        <time>2014-11-16T14:41:27Z</time>
      </trkpt>
      <trkpt lat="43.21788" lon="5.45776">
        <ele>370</ele>
        <time>2014-11-16T14:41:38Z</time>
      </trkpt>
      <trkpt lat="43.21789" lon="5.45773">
        <ele>363</ele>
        <time>2014-11-16T14:41:50Z</time>
      </trkpt>
      <trkpt lat="43.21787" lon="5.45774">
        <ele>361</ele>
        <time>2014-11-16T14:41:59Z</time>
      </trkpt>
      <trkpt lat="43.21781" lon="5.45776">
        <ele>358</ele>
        <time>2014-11-16T14:42:09Z</time>
      </trkpt>
      <trkpt lat="43.21777" lon="5.45777">
        <ele>354</ele>
        <time>2014-11-16T14:42:20Z</time>
      </trkpt>
      <trkpt lat="43.21777" lon="5.45773">
        <ele>354</ele>
        <time>2014-11-16T14:42:30Z</time>
      </trkpt>
      <trkpt lat="43.21774" lon="5.45773">
        <ele>351</ele>
        <time>2014-11-16T14:42:42Z</time>
      </trkpt>
      <trkpt lat="43.21772" lon="5.45774">
        <ele>347</ele>
        <time>2014-11-16T14:42:54Z</time>
      </trkpt>
      <trkpt lat="43.21767" lon="5.45774">
        <ele>346</ele>
        <time>2014-11-16T14:43:08Z</time>
      </trkpt>
      <trkpt lat="43.21766" lon="5.45776">
        <ele>344</ele>
        <time>2014-11-16T14:43:19Z</time>
      </trkpt>
      <trkpt lat="43.21761" lon="5.45774">
        <ele>343</ele>
        <time>2014-11-16T14:43:31Z</time>
      </trkpt>
      <trkpt lat="43.21758" lon="5.45775">
        <ele>341</ele>
        <time>2014-11-16T14:43:40Z</time>
      </trkpt>
      <trkpt lat="43.21754" lon="5.45779">
        <ele>339</ele>
        <time>2014-11-16T14:43:49Z</time>
      </trkpt>
      <trkpt lat="43.21751" lon="5.45779">
        <ele>337</ele>
        <time>2014-11-16T14:44:01Z</time>
      </trkpt>
      <trkpt lat="43.21748" lon="5.45777">
        <ele>337</ele>
        <time>2014-11-16T14:44:10Z</time>
      </trkpt>
      <trkpt lat="43.21744" lon="5.45778">
        <ele>337</ele>
        <time>2014-11-16T14:44:23Z</time>
      </trkpt>
      <trkpt lat="43.2174" lon="5.45775">
        <ele>337</ele>
        <time>2014-11-16T14:44:37Z</time>
      </trkpt>
      <trkpt lat="43.21737" lon="5.45773">
        <ele>335</ele>
        <time>2014-11-16T14:44:48Z</time>
      </trkpt>
      <trkpt lat="43.21733" lon="5.45776">
        <ele>333</ele>
        <time>2014-11-16T14:44:58Z</time>
      </trkpt>
      <trkpt lat="43.21728" lon="5.45779">
        <ele>324</ele>
        <time>2014-11-16T14:45:12Z</time>
      </trkpt>
      <trkpt lat="43.21725" lon="5.45776">
        <ele>321</ele>
        <time>2014-11-16T14:45:23Z</time>
      </trkpt>
      <trkpt lat="43.21721" lon="5.45774">
        <ele>320</ele>
        <time>2014-11-16T14:45:33Z</time>
      </trkpt>
      <trkpt lat="43.21717" lon="5.45773">
        <ele>319</ele>
        <time>2014-11-16T14:45:55Z</time>
      </trkpt>
      <trkpt lat="43.21718" lon="5.45774">
        <ele>316</ele>
        <time>2014-11-16T14:46:05Z</time>
      </trkpt>
      <trkpt lat="43.21719" lon="5.45768">
        <ele>313</ele>
        <time>2014-11-16T14:46:17Z</time>
      </trkpt>
      <trkpt lat="43.21715" lon="5.45759">
        <ele>311</ele>
        <time>2014-11-16T14:46:28Z</time>
      </trkpt>
      <trkpt lat="43.21711" lon="5.45746">
        <ele>311</ele>
        <time>2014-11-16T14:46:38Z</time>
      </trkpt>
      <trkpt lat="43.21711" lon="5.45745">
        <ele>310</ele>
        <time>2014-11-16T14:46:50Z</time>
      </trkpt>
      <trkpt lat="43.21705" lon="5.45737">
        <ele>308</ele>
        <time>2014-11-16T14:47:00Z</time>
      </trkpt>
      <trkpt lat="43.21696" lon="5.45724">
        <ele>306</ele>
        <time>2014-11-16T14:47:09Z</time>
      </trkpt>
      <trkpt lat="43.21686" lon="5.45711">
        <ele>303</ele>
        <time>2014-11-16T14:47:26Z</time>
      </trkpt>
      <trkpt lat="43.21685" lon="5.4571">
        <ele>303</ele>
        <time>2014-11-16T14:47:36Z</time>
      </trkpt>
      <trkpt lat="43.21678" lon="5.457">
        <ele>303</ele>
        <time>2014-11-16T14:47:46Z</time>
      </trkpt>
      <trkpt lat="43.21673" lon="5.45694">
        <ele>303</ele>
        <time>2014-11-16T14:47:55Z</time>
      </trkpt>
      <trkpt lat="43.21666" lon="5.45685">
        <ele>301</ele>
        <time>2014-11-16T14:48:06Z</time>
      </trkpt>
      <trkpt lat="43.2166" lon="5.45674">
        <ele>299</ele>
        <time>2014-11-16T14:48:16Z</time>
      </trkpt>
      <trkpt lat="43.21655" lon="5.45662">
        <ele>298</ele>
        <time>2014-11-16T14:48:26Z</time>
      </trkpt>
      <trkpt lat="43.21651" lon="5.45653">
        <ele>296</ele>
        <time>2014-11-16T14:48:35Z</time>
      </trkpt>
      <trkpt lat="43.21652" lon="5.45653">
        <ele>296</ele>
        <time>2014-11-16T14:48:45Z</time>
      </trkpt>
      <trkpt lat="43.21653" lon="5.45653">
        <ele>296</ele>
        <time>2014-11-16T14:49:01Z</time>
      </trkpt>
      <trkpt lat="43.21651" lon="5.45646">
        <ele>296</ele>
        <time>2014-11-16T14:49:11Z</time>
      </trkpt>
      <trkpt lat="43.2165" lon="5.45644">
        <ele>296</ele>
        <time>2014-11-16T14:49:21Z</time>
      </trkpt>
      <trkpt lat="43.21649" lon="5.45642">
        <ele>295</ele>
        <time>2014-11-16T14:49:36Z</time>
      </trkpt>
      <trkpt lat="43.21648" lon="5.45637">
        <ele>293</ele>
        <time>2014-11-16T14:50:04Z</time>
      </trkpt>
      <trkpt lat="43.21647" lon="5.45635">
        <ele>293</ele>
        <time>2014-11-16T14:50:15Z</time>
      </trkpt>
      <trkpt lat="43.21645" lon="5.4562">
        <ele>292</ele>
        <time>2014-11-16T14:50:25Z</time>
      </trkpt>
      <trkpt lat="43.21642" lon="5.45604">
        <ele>291</ele>
        <time>2014-11-16T14:50:35Z</time>
      </trkpt>
      <trkpt lat="43.2164" lon="5.45588">
        <ele>290</ele>
        <time>2014-11-16T14:50:44Z</time>
      </trkpt>
      <trkpt lat="43.21636" lon="5.45574">
        <ele>288</ele>
        <time>2014-11-16T14:50:53Z</time>
      </trkpt>
      <trkpt lat="43.21631" lon="5.45558">
        <ele>286</ele>
        <time>2014-11-16T14:51:03Z</time>
      </trkpt>
      <trkpt lat="43.21626" lon="5.45543">
        <ele>284</ele>
        <time>2014-11-16T14:51:12Z</time>
      </trkpt>
      <trkpt lat="43.21622" lon="5.45526">
        <ele>283</ele>
        <time>2014-11-16T14:51:21Z</time>
      </trkpt>
      <trkpt lat="43.2162" lon="5.45508">
        <ele>282</ele>
        <time>2014-11-16T14:51:30Z</time>
      </trkpt>
      <trkpt lat="43.21618" lon="5.45493">
        <ele>281</ele>
        <time>2014-11-16T14:51:40Z</time>
      </trkpt>
      <trkpt lat="43.21609" lon="5.4548">
        <ele>278</ele>
        <time>2014-11-16T14:51:51Z</time>
      </trkpt>
      <trkpt lat="43.21603" lon="5.45476">
        <ele>276</ele>
        <time>2014-11-16T14:52:11Z</time>
      </trkpt>
      <trkpt lat="43.216" lon="5.45467">
        <ele>275</ele>
        <time>2014-11-16T14:52:21Z</time>
      </trkpt>
      <trkpt lat="43.21591" lon="5.4546">
        <ele>274</ele>
        <time>2014-11-16T14:52:31Z</time>
      </trkpt>
      <trkpt lat="43.21585" lon="5.45451">
        <ele>273</ele>
        <time>2014-11-16T14:52:41Z</time>
      </trkpt>
      <trkpt lat="43.21578" lon="5.45447">
        <ele>273</ele>
        <time>2014-11-16T14:52:50Z</time>
      </trkpt>
      <trkpt lat="43.21574" lon="5.4544">
        <ele>271</ele>
        <time>2014-11-16T14:53:00Z</time>
      </trkpt>
      <trkpt lat="43.21574" lon="5.45428">
        <ele>270</ele>
        <time>2014-11-16T14:53:10Z</time>
      </trkpt>
      <trkpt lat="43.21574" lon="5.4542">
        <ele>269</ele>
        <time>2014-11-16T14:53:20Z</time>
      </trkpt>
      <trkpt lat="43.21576" lon="5.45411">
        <ele>267</ele>
        <time>2014-11-16T14:53:30Z</time>
      </trkpt>
      <trkpt lat="43.21578" lon="5.45395">
        <ele>265</ele>
        <time>2014-11-16T14:53:40Z</time>
      </trkpt>
      <trkpt lat="43.21581" lon="5.45381">
        <ele>264</ele>
        <time>2014-11-16T14:53:50Z</time>
      </trkpt>
      <trkpt lat="43.2158" lon="5.45366">
        <ele>264</ele>
        <time>2014-11-16T14:54:00Z</time>
      </trkpt>
      <trkpt lat="43.21579" lon="5.45352">
        <ele>264</ele>
        <time>2014-11-16T14:54:10Z</time>
      </trkpt>
      <trkpt lat="43.21582" lon="5.45344">
        <ele>262</ele>
        <time>2014-11-16T14:54:19Z</time>
      </trkpt>
      <trkpt lat="43.21585" lon="5.45337">
        <ele>261</ele>
        <time>2014-11-16T14:54:30Z</time>
      </trkpt>
      <trkpt lat="43.21588" lon="5.4533">
        <ele>259</ele>
        <time>2014-11-16T14:54:40Z</time>
      </trkpt>
      <trkpt lat="43.21593" lon="5.45323">
        <ele>257</ele>
        <time>2014-11-16T14:54:51Z</time>
      </trkpt>
      <trkpt lat="43.21598" lon="5.45318">
        <ele>256</ele>
        <time>2014-11-16T14:55:02Z</time>
      </trkpt>
      <trkpt lat="43.21602" lon="5.45309">
        <ele>253</ele>
        <time>2014-11-16T14:55:13Z</time>
      </trkpt>
      <trkpt lat="43.21598" lon="5.45303">
        <ele>252</ele>
        <time>2014-11-16T14:55:22Z</time>
      </trkpt>
      <trkpt lat="43.2159" lon="5.45302">
        <ele>251</ele>
        <time>2014-11-16T14:55:32Z</time>
      </trkpt>
      <trkpt lat="43.21582" lon="5.45302">
        <ele>250</ele>
        <time>2014-11-16T14:55:42Z</time>
      </trkpt>
      <trkpt lat="43.21574" lon="5.45304">
        <ele>249</ele>
        <time>2014-11-16T14:55:52Z</time>
      </trkpt>
      <trkpt lat="43.21569" lon="5.45307">
        <ele>248</ele>
        <time>2014-11-16T14:56:01Z</time>
      </trkpt>
      <trkpt lat="43.21562" lon="5.4531">
        <ele>246</ele>
        <time>2014-11-16T14:56:11Z</time>
      </trkpt>
      <trkpt lat="43.21556" lon="5.45307">
        <ele>242</ele>
        <time>2014-11-16T14:56:21Z</time>
      </trkpt>
      <trkpt lat="43.21549" lon="5.45296">
        <ele>239</ele>
        <time>2014-11-16T14:56:30Z</time>
      </trkpt>
      <trkpt lat="43.2155" lon="5.45286">
        <ele>235</ele>
        <time>2014-11-16T14:56:39Z</time>
      </trkpt>
      <trkpt lat="43.21558" lon="5.45279">
        <ele>233</ele>
        <time>2014-11-16T14:56:49Z</time>
      </trkpt>
      <trkpt lat="43.21564" lon="5.45271">
        <ele>231</ele>
        <time>2014-11-16T14:56:59Z</time>
      </trkpt>
      <trkpt lat="43.2157" lon="5.45262">
        <ele>228</ele>
        <time>2014-11-16T14:57:09Z</time>
      </trkpt>
      <trkpt lat="43.21575" lon="5.45253">
        <ele>226</ele>
        <time>2014-11-16T14:57:19Z</time>
      </trkpt>
      <trkpt lat="43.2158" lon="5.45242">
        <ele>225</ele>
        <time>2014-11-16T14:57:29Z</time>
      </trkpt>
      <trkpt lat="43.21584" lon="5.45233">
        <ele>223</ele>
        <time>2014-11-16T14:57:39Z</time>
      </trkpt>
      <trkpt lat="43.2159" lon="5.45223">
        <ele>221</ele>
        <time>2014-11-16T14:57:48Z</time>
      </trkpt>
      <trkpt lat="43.21598" lon="5.45214">
        <ele>219</ele>
        <time>2014-11-16T14:57:58Z</time>
      </trkpt>
      <trkpt lat="43.21605" lon="5.4521">
        <ele>215</ele>
        <time>2014-11-16T14:58:08Z</time>
      </trkpt>
      <trkpt lat="43.21614" lon="5.45215">
        <ele>214</ele>
        <time>2014-11-16T14:58:18Z</time>
      </trkpt>
      <trkpt lat="43.21625" lon="5.45222">
        <ele>214</ele>
        <time>2014-11-16T14:58:28Z</time>
      </trkpt>
      <trkpt lat="43.21634" lon="5.45227">
        <ele>214</ele>
        <time>2014-11-16T14:58:37Z</time>
      </trkpt>
      <trkpt lat="43.21643" lon="5.45234">
        <ele>213</ele>
        <time>2014-11-16T14:58:46Z</time>
      </trkpt>
      <trkpt lat="43.21653" lon="5.45243">
        <ele>212</ele>
        <time>2014-11-16T14:58:56Z</time>
      </trkpt>
      <trkpt lat="43.21662" lon="5.4525">
        <ele>212</ele>
        <time>2014-11-16T14:59:06Z</time>
      </trkpt>
      <trkpt lat="43.21672" lon="5.45258">
        <ele>212</ele>
        <time>2014-11-16T14:59:16Z</time>
      </trkpt>
      <trkpt lat="43.21682" lon="5.45266">
        <ele>212</ele>
        <time>2014-11-16T14:59:26Z</time>
      </trkpt>
      <trkpt lat="43.2169" lon="5.4527">
        <ele>213</ele>
        <time>2014-11-16T14:59:35Z</time>
      </trkpt>
      <trkpt lat="43.217" lon="5.45277">
        <ele>218</ele>
        <time>2014-11-16T14:59:45Z</time>
      </trkpt>
      <trkpt lat="43.2171" lon="5.45282">
        <ele>218</ele>
        <time>2014-11-16T14:59:55Z</time>
      </trkpt>
      <trkpt lat="43.21722" lon="5.45285">
        <ele>218</ele>
        <time>2014-11-16T15:00:05Z</time>
      </trkpt>
      <trkpt lat="43.2173" lon="5.45283">
        <ele>218</ele>
        <time>2014-11-16T15:00:16Z</time>
      </trkpt>
      <trkpt lat="43.21732" lon="5.45267">
        <ele>218</ele>
        <time>2014-11-16T15:00:25Z</time>
      </trkpt>
      <trkpt lat="43.21731" lon="5.4525">
        <ele>219</ele>
        <time>2014-11-16T15:00:35Z</time>
      </trkpt>
      <trkpt lat="43.21729" lon="5.45234">
        <ele>219</ele>
        <time>2014-11-16T15:00:45Z</time>
      </trkpt>
      <trkpt lat="43.21726" lon="5.45218">
        <ele>219</ele>
        <time>2014-11-16T15:00:55Z</time>
      </trkpt>
      <trkpt lat="43.21725" lon="5.45202">
        <ele>215</ele>
        <time>2014-11-16T15:01:05Z</time>
      </trkpt>
      <trkpt lat="43.21723" lon="5.45186">
        <ele>211</ele>
        <time>2014-11-16T15:01:15Z</time>
      </trkpt>
      <trkpt lat="43.21722" lon="5.45169">
        <ele>208</ele>
        <time>2014-11-16T15:01:25Z</time>
      </trkpt>
      <trkpt lat="43.2172" lon="5.45152">
        <ele>207</ele>
        <time>2014-11-16T15:01:35Z</time>
      </trkpt>
      <trkpt lat="43.2172" lon="5.45135">
        <ele>206</ele>
        <time>2014-11-16T15:01:45Z</time>
      </trkpt>
      <trkpt lat="43.2172" lon="5.45118">
        <ele>205</ele>
        <time>2014-11-16T15:01:55Z</time>
      </trkpt>
      <trkpt lat="43.21718" lon="5.45101">
        <ele>204</ele>
        <time>2014-11-16T15:02:05Z</time>
      </trkpt>
      <trkpt lat="43.21712" lon="5.45086">
        <ele>203</ele>
        <time>2014-11-16T15:02:15Z</time>
      </trkpt>
      <trkpt lat="43.21705" lon="5.45072">
        <ele>202</ele>
        <time>2014-11-16T15:02:25Z</time>
      </trkpt>
      <trkpt lat="43.21698" lon="5.45057">
        <ele>202</ele>
        <time>2014-11-16T15:02:35Z</time>
      </trkpt>
      <trkpt lat="43.21691" lon="5.45045">
        <ele>202</ele>
        <time>2014-11-16T15:02:45Z</time>
      </trkpt>
      <trkpt lat="43.21679" lon="5.45034">
        <ele>201</ele>
        <time>2014-11-16T15:02:56Z</time>
      </trkpt>
      <trkpt lat="43.21677" lon="5.45021">
        <ele>201</ele>
        <time>2014-11-16T15:03:05Z</time>
      </trkpt>
      <trkpt lat="43.2168" lon="5.45005">
        <ele>201</ele>
        <time>2014-11-16T15:03:15Z</time>
      </trkpt>
      <trkpt lat="43.21684" lon="5.4499">
        <ele>201</ele>
        <time>2014-11-16T15:03:25Z</time>
      </trkpt>
      <trkpt lat="43.2169" lon="5.44973">
        <ele>201</ele>
        <time>2014-11-16T15:03:36Z</time>
      </trkpt>
      <trkpt lat="43.21697" lon="5.4496">
        <ele>201</ele>
        <time>2014-11-16T15:03:46Z</time>
      </trkpt>
      <trkpt lat="43.21706" lon="5.44949">
        <ele>201</ele>
        <time>2014-11-16T15:03:56Z</time>
      </trkpt>
      <trkpt lat="43.21716" lon="5.44943">
        <ele>201</ele>
        <time>2014-11-16T15:04:05Z</time>
      </trkpt>
      <trkpt lat="43.21727" lon="5.44936">
        <ele>201</ele>
        <time>2014-11-16T15:04:15Z</time>
      </trkpt>
      <trkpt lat="43.21738" lon="5.44927">
        <ele>202</ele>
        <time>2014-11-16T15:04:26Z</time>
      </trkpt>
      <trkpt lat="43.21747" lon="5.44917">
        <ele>202</ele>
        <time>2014-11-16T15:04:36Z</time>
      </trkpt>
      <trkpt lat="43.21758" lon="5.44915">
        <ele>202</ele>
        <time>2014-11-16T15:04:45Z</time>
      </trkpt>
      <trkpt lat="43.21771" lon="5.44914">
        <ele>202</ele>
        <time>2014-11-16T15:04:55Z</time>
      </trkpt>
      <trkpt lat="43.21783" lon="5.44914">
        <ele>203</ele>
        <time>2014-11-16T15:05:05Z</time>
      </trkpt>
      <trkpt lat="43.21796" lon="5.44915">
        <ele>203</ele>
        <time>2014-11-16T15:05:15Z</time>
      </trkpt>
      <trkpt lat="43.21806" lon="5.44907">
        <ele>203</ele>
        <time>2014-11-16T15:05:25Z</time>
      </trkpt>
      <trkpt lat="43.21808" lon="5.44889">
        <ele>203</ele>
        <time>2014-11-16T15:05:35Z</time>
      </trkpt>
      <trkpt lat="43.21811" lon="5.44871">
        <ele>203</ele>
        <time>2014-11-16T15:05:45Z</time>
      </trkpt>
      <trkpt lat="43.21817" lon="5.44861">
        <ele>203</ele>
        <time>2014-11-16T15:05:54Z</time>
      </trkpt>
      <trkpt lat="43.21828" lon="5.44857">
        <ele>203</ele>
        <time>2014-11-16T15:06:04Z</time>
      </trkpt>
      <trkpt lat="43.21838" lon="5.44857">
        <ele>203</ele>
        <time>2014-11-16T15:06:13Z</time>
      </trkpt>
      <trkpt lat="43.21849" lon="5.44858">
        <ele>203</ele>
        <time>2014-11-16T15:06:22Z</time>
      </trkpt>
      <trkpt lat="43.21861" lon="5.44858">
        <ele>203</ele>
        <time>2014-11-16T15:06:32Z</time>
      </trkpt>
      <trkpt lat="43.21872" lon="5.44852">
        <ele>205</ele>
        <time>2014-11-16T15:06:42Z</time>
      </trkpt>
      <trkpt lat="43.21877" lon="5.44839">
        <ele>206</ele>
        <time>2014-11-16T15:06:51Z</time>
      </trkpt>
      <trkpt lat="43.21879" lon="5.44824">
        <ele>207</ele>
        <time>2014-11-16T15:07:00Z</time>
      </trkpt>
      <trkpt lat="43.21877" lon="5.44806">
        <ele>207</ele>
        <time>2014-11-16T15:07:10Z</time>
      </trkpt>
      <trkpt lat="43.21875" lon="5.4479">
        <ele>207</ele>
        <time>2014-11-16T15:07:20Z</time>
      </trkpt>
      <trkpt lat="43.21879" lon="5.44774">
        <ele>207</ele>
        <time>2014-11-16T15:07:30Z</time>
      </trkpt>
      <trkpt lat="43.21887" lon="5.44761">
        <ele>207</ele>
        <time>2014-11-16T15:07:41Z</time>
      </trkpt>
      <trkpt lat="43.21889" lon="5.44746">
        <ele>207</ele>
        <time>2014-11-16T15:07:50Z</time>
      </trkpt>
      <trkpt lat="43.21884" lon="5.44731">
        <ele>207</ele>
        <time>2014-11-16T15:08:01Z</time>
      </trkpt>
      <trkpt lat="43.21879" lon="5.44718">
        <ele>207</ele>
        <time>2014-11-16T15:08:10Z</time>
      </trkpt>
      <trkpt lat="43.21876" lon="5.44703">
        <ele>207</ele>
        <time>2014-11-16T15:08:20Z</time>
      </trkpt>
      <trkpt lat="43.21878" lon="5.44689">
        <ele>207</ele>
        <time>2014-11-16T15:08:29Z</time>
      </trkpt>
      <trkpt lat="43.21882" lon="5.44674">
        <ele>207</ele>
        <time>2014-11-16T15:08:39Z</time>
      </trkpt>
      <trkpt lat="43.21886" lon="5.44662">
        <ele>207</ele>
        <time>2014-11-16T15:08:48Z</time>
      </trkpt>
      <trkpt lat="43.21889" lon="5.44648">
        <ele>207</ele>
        <time>2014-11-16T15:08:57Z</time>
      </trkpt>
      <trkpt lat="43.21891" lon="5.44633">
        <ele>207</ele>
        <time>2014-11-16T15:09:06Z</time>
      </trkpt>
      <trkpt lat="43.21896" lon="5.44623">
        <ele>207</ele>
        <time>2014-11-16T15:09:15Z</time>
      </trkpt>
      <trkpt lat="43.21904" lon="5.44613">
        <ele>207</ele>
        <time>2014-11-16T15:09:25Z</time>
      </trkpt>
      <trkpt lat="43.21911" lon="5.446">
        <ele>207</ele>
        <time>2014-11-16T15:09:35Z</time>
      </trkpt>
      <trkpt lat="43.21917" lon="5.44588">
        <ele>207</ele>
        <time>2014-11-16T15:09:46Z</time>
      </trkpt>
      <trkpt lat="43.21925" lon="5.44578">
        <ele>207</ele>
        <time>2014-11-16T15:09:56Z</time>
      </trkpt>
      <trkpt lat="43.21931" lon="5.44563">
        <ele>207</ele>
        <time>2014-11-16T15:10:05Z</time>
      </trkpt>
      <trkpt lat="43.2193" lon="5.44544">
        <ele>205</ele>
        <time>2014-11-16T15:10:15Z</time>
      </trkpt>
      <trkpt lat="43.21928" lon="5.44526">
        <ele>203</ele>
        <time>2014-11-16T15:10:25Z</time>
      </trkpt>
      <trkpt lat="43.21925" lon="5.44509">
        <ele>202</ele>
        <time>2014-11-16T15:10:35Z</time>
      </trkpt>
      <trkpt lat="43.21925" lon="5.44495">
        <ele>202</ele>
        <time>2014-11-16T15:10:45Z</time>
      </trkpt>
      <trkpt lat="43.21927" lon="5.44479">
        <ele>202</ele>
        <time>2014-11-16T15:10:55Z</time>
      </trkpt>
      <trkpt lat="43.21928" lon="5.44464">
        <ele>202</ele>
        <time>2014-11-16T15:11:05Z</time>
      </trkpt>
      <trkpt lat="43.21931" lon="5.44452">
        <ele>202</ele>
        <time>2014-11-16T15:11:15Z</time>
      </trkpt>
      <trkpt lat="43.21936" lon="5.44441">
        <ele>202</ele>
        <time>2014-11-16T15:11:24Z</time>
      </trkpt>
      <trkpt lat="43.21943" lon="5.44428">
        <ele>202</ele>
        <time>2014-11-16T15:11:34Z</time>
      </trkpt>
      <trkpt lat="43.2195" lon="5.44417">
        <ele>201</ele>
        <time>2014-11-16T15:11:43Z</time>
      </trkpt>
      <trkpt lat="43.21958" lon="5.44403">
        <ele>199</ele>
        <time>2014-11-16T15:11:53Z</time>
      </trkpt>
      <trkpt lat="43.21965" lon="5.44391">
        <ele>199</ele>
        <time>2014-11-16T15:12:03Z</time>
      </trkpt>
      <trkpt lat="43.21971" lon="5.44379">
        <ele>199</ele>
        <time>2014-11-16T15:12:13Z</time>
      </trkpt>
      <trkpt lat="43.21978" lon="5.44367">
        <ele>199</ele>
        <time>2014-11-16T15:12:22Z</time>
      </trkpt>
      <trkpt lat="43.21984" lon="5.44352">
        <ele>199</ele>
        <time>2014-11-16T15:12:32Z</time>
      </trkpt>
      <trkpt lat="43.21994" lon="5.44335">
        <ele>195</ele>
        <time>2014-11-16T15:12:42Z</time>
      </trkpt>
      <trkpt lat="43.21999" lon="5.44324">
        <ele>195</ele>
        <time>2014-11-16T15:12:51Z</time>
      </trkpt>
      <trkpt lat="43.22007" lon="5.44313">
        <ele>194</ele>
        <time>2014-11-16T15:13:01Z</time>
      </trkpt>
      <trkpt lat="43.22013" lon="5.44301">
        <ele>194</ele>
        <time>2014-11-16T15:13:11Z</time>
      </trkpt>
      <trkpt lat="43.2202" lon="5.44288">
        <ele>194</ele>
        <time>2014-11-16T15:13:20Z</time>
      </trkpt>
      <trkpt lat="43.22026" lon="5.44276">
        <ele>194</ele>
        <time>2014-11-16T15:13:31Z</time>
      </trkpt>
      <trkpt lat="43.22028" lon="5.44265">
        <ele>195</ele>
        <time>2014-11-16T15:13:41Z</time>
      </trkpt>
      <trkpt lat="43.22031" lon="5.44249">
        <ele>197</ele>
        <time>2014-11-16T15:13:51Z</time>
      </trkpt>
      <trkpt lat="43.22037" lon="5.44231">
        <ele>197</ele>
        <time>2014-11-16T15:14:00Z</time>
      </trkpt>
      <trkpt lat="43.22044" lon="5.44216">
        <ele>197</ele>
        <time>2014-11-16T15:14:11Z</time>
      </trkpt>
      <trkpt lat="43.22048" lon="5.442">
        <ele>196</ele>
        <time>2014-11-16T15:14:20Z</time>
      </trkpt>
      <trkpt lat="43.22057" lon="5.44177">
        <ele>188</ele>
        <time>2014-11-16T15:14:30Z</time>
      </trkpt>
      <trkpt lat="43.2206" lon="5.44161">
        <ele>186</ele>
        <time>2014-11-16T15:14:40Z</time>
      </trkpt>
      <trkpt lat="43.22065" lon="5.44144">
        <ele>186</ele>
        <time>2014-11-16T15:14:50Z</time>
      </trkpt>
      <trkpt lat="43.22071" lon="5.44128">
        <ele>184</ele>
        <time>2014-11-16T15:15:00Z</time>
      </trkpt>
      <trkpt lat="43.22079" lon="5.44114">
        <ele>182</ele>
        <time>2014-11-16T15:15:10Z</time>
      </trkpt>
      <trkpt lat="43.22088" lon="5.44102">
        <ele>181</ele>
        <time>2014-11-16T15:15:21Z</time>
      </trkpt>
      <trkpt lat="43.22097" lon="5.44093">
        <ele>181</ele>
        <time>2014-11-16T15:15:31Z</time>
      </trkpt>
      <trkpt lat="43.22107" lon="5.44084">
        <ele>181</ele>
        <time>2014-11-16T15:15:41Z</time>
      </trkpt>
      <trkpt lat="43.22117" lon="5.44075">
        <ele>180</ele>
        <time>2014-11-16T15:15:51Z</time>
      </trkpt>
      <trkpt lat="43.22127" lon="5.44069">
        <ele>180</ele>
        <time>2014-11-16T15:16:01Z</time>
      </trkpt>
      <trkpt lat="43.22136" lon="5.44059">
        <ele>180</ele>
        <time>2014-11-16T15:16:11Z</time>
      </trkpt>
      <trkpt lat="43.22146" lon="5.4405">
        <ele>180</ele>
        <time>2014-11-16T15:16:20Z</time>
      </trkpt>
      <trkpt lat="43.22155" lon="5.4404">
        <ele>180</ele>
        <time>2014-11-16T15:16:30Z</time>
      </trkpt>
      <trkpt lat="43.22163" lon="5.44033">
        <ele>180</ele>
        <time>2014-11-16T15:16:40Z</time>
      </trkpt>
      <trkpt lat="43.22174" lon="5.44031">
        <ele>180</ele>
        <time>2014-11-16T15:16:51Z</time>
      </trkpt>
      <trkpt lat="43.22184" lon="5.44028">
        <ele>180</ele>
        <time>2014-11-16T15:17:00Z</time>
      </trkpt>
      <trkpt lat="43.22195" lon="5.44023">
        <ele>180</ele>
        <time>2014-11-16T15:17:10Z</time>
      </trkpt>
      <trkpt lat="43.22208" lon="5.44018">
        <ele>180</ele>
        <time>2014-11-16T15:17:21Z</time>
      </trkpt>
      <trkpt lat="43.22218" lon="5.44014">
        <ele>180</ele>
        <time>2014-11-16T15:17:30Z</time>
      </trkpt>
      <trkpt lat="43.22229" lon="5.4401">
        <ele>180</ele>
        <time>2014-11-16T15:17:40Z</time>
      </trkpt>
      <trkpt lat="43.2224" lon="5.44005">
        <ele>180</ele>
        <time>2014-11-16T15:17:50Z</time>
      </trkpt>
      <trkpt lat="43.22253" lon="5.44001">
        <ele>180</ele>
        <time>2014-11-16T15:18:01Z</time>
      </trkpt>
      <trkpt lat="43.22262" lon="5.43996">
        <ele>180</ele>
        <time>2014-11-16T15:18:11Z</time>
      </trkpt>
      <trkpt lat="43.22271" lon="5.43988">
        <ele>180</ele>
        <time>2014-11-16T15:18:20Z</time>
      </trkpt>
      <trkpt lat="43.22281" lon="5.4398">
        <ele>180</ele>
        <time>2014-11-16T15:18:30Z</time>
      </trkpt>
      <trkpt lat="43.2229" lon="5.4397">
        <ele>180</ele>
        <time>2014-11-16T15:18:40Z</time>
      </trkpt>
      <trkpt lat="43.22301" lon="5.4396">
        <ele>180</ele>
        <time>2014-11-16T15:18:51Z</time>
      </trkpt>
      <trkpt lat="43.22311" lon="5.43951">
        <ele>180</ele>
        <time>2014-11-16T15:19:00Z</time>
      </trkpt>
      <trkpt lat="43.2232" lon="5.4394">
        <ele>181</ele>
        <time>2014-11-16T15:19:10Z</time>
      </trkpt>
      <trkpt lat="43.22329" lon="5.43926">
        <ele>181</ele>
        <time>2014-11-16T15:19:20Z</time>
      </trkpt>
      <trkpt lat="43.22341" lon="5.43915">
        <ele>181</ele>
        <time>2014-11-16T15:19:31Z</time>
      </trkpt>
      <trkpt lat="43.2235" lon="5.43906">
        <ele>181</ele>
        <time>2014-11-16T15:19:41Z</time>
      </trkpt>
      <trkpt lat="43.22359" lon="5.43895">
        <ele>181</ele>
        <time>2014-11-16T15:19:50Z</time>
      </trkpt>
      <trkpt lat="43.22369" lon="5.43883">
        <ele>180</ele>
        <time>2014-11-16T15:20:00Z</time>
      </trkpt>
      <trkpt lat="43.2238" lon="5.43878">
        <ele>180</ele>
        <time>2014-11-16T15:20:10Z</time>
      </trkpt>
      <trkpt lat="43.22391" lon="5.4387">
        <ele>178</ele>
        <time>2014-11-16T15:20:20Z</time>
      </trkpt>
      <trkpt lat="43.22404" lon="5.43865">
        <ele>176</ele>
        <time>2014-11-16T15:20:30Z</time>
      </trkpt>
      <trkpt lat="43.22417" lon="5.43857">
        <ele>174</ele>
        <time>2014-11-16T15:20:40Z</time>
      </trkpt>
      <trkpt lat="43.22429" lon="5.43848">
        <ele>173</ele>
        <time>2014-11-16T15:20:50Z</time>
      </trkpt>
      <trkpt lat="43.2244" lon="5.43839">
        <ele>173</ele>
        <time>2014-11-16T15:21:00Z</time>
      </trkpt>
      <trkpt lat="43.2245" lon="5.43828">
        <ele>171</ele>
        <time>2014-11-16T15:21:11Z</time>
      </trkpt>
      <trkpt lat="43.2246" lon="5.43826">
        <ele>171</ele>
        <time>2014-11-16T15:21:20Z</time>
      </trkpt>
      <trkpt lat="43.22472" lon="5.43826">
        <ele>171</ele>
        <time>2014-11-16T15:21:30Z</time>
      </trkpt>
      <trkpt lat="43.22486" lon="5.43823">
        <ele>171</ele>
        <time>2014-11-16T15:21:40Z</time>
      </trkpt>
      <trkpt lat="43.22499" lon="5.43824">
        <ele>170</ele>
        <time>2014-11-16T15:21:50Z</time>
      </trkpt>
      <trkpt lat="43.22514" lon="5.43821">
        <ele>167</ele>
        <time>2014-11-16T15:22:00Z</time>
      </trkpt>
      <trkpt lat="43.22526" lon="5.4382">
        <ele>166</ele>
        <time>2014-11-16T15:22:10Z</time>
      </trkpt>
      <trkpt lat="43.22538" lon="5.43818">
        <ele>166</ele>
        <time>2014-11-16T15:22:20Z</time>
      </trkpt>
      <trkpt lat="43.2255" lon="5.43818">
        <ele>166</ele>
        <time>2014-11-16T15:22:30Z</time>
      </trkpt>
      <trkpt lat="43.22563" lon="5.43818">
        <ele>166</ele>
        <time>2014-11-16T15:22:40Z</time>
      </trkpt>
      <trkpt lat="43.22576" lon="5.43818">
        <ele>166</ele>
        <time>2014-11-16T15:22:50Z</time>
      </trkpt>
      <trkpt lat="43.22588" lon="5.43817">
        <ele>166</ele>
        <time>2014-11-16T15:23:00Z</time>
      </trkpt>
      <trkpt lat="43.22601" lon="5.43815">
        <ele>166</ele>
        <time>2014-11-16T15:23:10Z</time>
      </trkpt>
      <trkpt lat="43.22614" lon="5.43812">
        <ele>166</ele>
        <time>2014-11-16T15:23:20Z</time>
      </trkpt>
      <trkpt lat="43.22627" lon="5.43805">
        <ele>166</ele>
        <time>2014-11-16T15:23:30Z</time>
      </trkpt>
      <trkpt lat="43.22639" lon="5.43799">
        <ele>166</ele>
        <time>2014-11-16T15:23:40Z</time>
      </trkpt>
      <trkpt lat="43.22651" lon="5.43792">
        <ele>166</ele>
        <time>2014-11-16T15:23:50Z</time>
      </trkpt>
      <trkpt lat="43.22662" lon="5.43784">
        <ele>165</ele>
        <time>2014-11-16T15:24:00Z</time>
      </trkpt>
      <trkpt lat="43.22674" lon="5.43773">
        <ele>164</ele>
        <time>2014-11-16T15:24:11Z</time>
      </trkpt>
      <trkpt lat="43.22684" lon="5.43765">
        <ele>163</ele>
        <time>2014-11-16T15:24:20Z</time>
      </trkpt>
      <trkpt lat="43.22695" lon="5.43756">
        <ele>163</ele>
        <time>2014-11-16T15:24:30Z</time>
      </trkpt>
      <trkpt lat="43.22706" lon="5.43749">
        <ele>163</ele>
        <time>2014-11-16T15:24:40Z</time>
      </trkpt>
      <trkpt lat="43.22718" lon="5.43743">
        <ele>162</ele>
        <time>2014-11-16T15:24:50Z</time>
      </trkpt>
      <trkpt lat="43.2273" lon="5.43737">
        <ele>160</ele>
        <time>2014-11-16T15:25:00Z</time>
      </trkpt>
      <trkpt lat="43.22742" lon="5.43732">
        <ele>159</ele>
        <time>2014-11-16T15:25:10Z</time>
      </trkpt>
      <trkpt lat="43.22754" lon="5.43728">
        <ele>158</ele>
        <time>2014-11-16T15:25:20Z</time>
      </trkpt>
      <trkpt lat="43.22766" lon="5.43726">
        <ele>157</ele>
        <time>2014-11-16T15:25:30Z</time>
      </trkpt>
      <trkpt lat="43.22778" lon="5.43726">
        <ele>156</ele>
        <time>2014-11-16T15:25:40Z</time>
      </trkpt>
      <trkpt lat="43.2279" lon="5.43728">
        <ele>155</ele>
        <time>2014-11-16T15:25:50Z</time>
      </trkpt>
      <trkpt lat="43.22802" lon="5.43728">
        <ele>154</ele>
        <time>2014-11-16T15:26:00Z</time>
      </trkpt>
      <trkpt lat="43.22814" lon="5.43727">
        <ele>154</ele>
        <time>2014-11-16T15:26:10Z</time>
      </trkpt>
      <trkpt lat="43.22826" lon="5.43726">
        <ele>154</ele>
        <time>2014-11-16T15:26:20Z</time>
      </trkpt>
      <trkpt lat="43.22838" lon="5.43725">
        <ele>154</ele>
        <time>2014-11-16T15:26:30Z</time>
      </trkpt>
      <trkpt lat="43.2285" lon="5.43725">
        <ele>153</ele>
        <time>2014-11-16T15:26:40Z</time>
      </trkpt>
      <trkpt lat="43.22862" lon="5.43726">
        <ele>153</ele>
        <time>2014-11-16T15:26:51Z</time>
      </trkpt>
      <trkpt lat="43.22873" lon="5.43727">
        <ele>153</ele>
        <time>2014-11-16T15:27:01Z</time>
      </trkpt>
      <trkpt lat="43.22883" lon="5.43723">
        <ele>153</ele>
        <time>2014-11-16T15:27:10Z</time>
      </trkpt>
      <trkpt lat="43.22895" lon="5.43724">
        <ele>153</ele>
        <time>2014-11-16T15:27:20Z</time>
      </trkpt>
      <trkpt lat="43.22907" lon="5.43722">
        <ele>153</ele>
        <time>2014-11-16T15:27:30Z</time>
      </trkpt>
      <trkpt lat="43.22918" lon="5.43722">
        <ele>153</ele>
        <time>2014-11-16T15:27:40Z</time>
      </trkpt>
      <trkpt lat="43.2293" lon="5.43718">
        <ele>153</ele>
        <time>2014-11-16T15:27:50Z</time>
      </trkpt>
      <trkpt lat="43.22943" lon="5.43716">
        <ele>153</ele>
        <time>2014-11-16T15:28:01Z</time>
      </trkpt>
      <trkpt lat="43.22953" lon="5.43718">
        <ele>153</ele>
        <time>2014-11-16T15:28:10Z</time>
      </trkpt>
      <trkpt lat="43.22963" lon="5.43718">
        <ele>151</ele>
        <time>2014-11-16T15:28:21Z</time>
      </trkpt>
      <trkpt lat="43.22972" lon="5.43714">
        <ele>151</ele>
        <time>2014-11-16T15:28:31Z</time>
      </trkpt>
      <trkpt lat="43.22983" lon="5.43708">
        <ele>151</ele>
        <time>2014-11-16T15:28:40Z</time>
      </trkpt>
      <trkpt lat="43.22995" lon="5.43704">
        <ele>150</ele>
        <time>2014-11-16T15:28:50Z</time>
      </trkpt>
      <trkpt lat="43.23008" lon="5.43701">
        <ele>148</ele>
        <time>2014-11-16T15:29:00Z</time>
      </trkpt>
      <trkpt lat="43.23021" lon="5.437">
        <ele>147</ele>
        <time>2014-11-16T15:29:10Z</time>
      </trkpt>
      <trkpt lat="43.23035" lon="5.43699">
        <ele>147</ele>
        <time>2014-11-16T15:29:20Z</time>
      </trkpt>
      <trkpt lat="43.23046" lon="5.43691">
        <ele>144</ele>
        <time>2014-11-16T15:29:30Z</time>
      </trkpt>
      <trkpt lat="43.23058" lon="5.43683">
        <ele>143</ele>
        <time>2014-11-16T15:29:40Z</time>
      </trkpt>
      <trkpt lat="43.2307" lon="5.43682">
        <ele>141</ele>
        <time>2014-11-16T15:29:51Z</time>
      </trkpt>
      <trkpt lat="43.23081" lon="5.43679">
        <ele>140</ele>
        <time>2014-11-16T15:30:00Z</time>
      </trkpt>
      <trkpt lat="43.23094" lon="5.43676">
        <ele>139</ele>
        <time>2014-11-16T15:30:10Z</time>
      </trkpt>
      <trkpt lat="43.23107" lon="5.43672">
        <ele>138</ele>
        <time>2014-11-16T15:30:20Z</time>
      </trkpt>
      <trkpt lat="43.2312" lon="5.4367">
        <ele>137</ele>
        <time>2014-11-16T15:30:30Z</time>
      </trkpt>
      <trkpt lat="43.23133" lon="5.43667">
        <ele>137</ele>
        <time>2014-11-16T15:30:40Z</time>
      </trkpt>
      <trkpt lat="43.23146" lon="5.43661">
        <ele>136</ele>
        <time>2014-11-16T15:30:51Z</time>
      </trkpt>
      <trkpt lat="43.23157" lon="5.43655">
        <ele>136</ele>
        <time>2014-11-16T15:31:00Z</time>
      </trkpt>
      <trkpt lat="43.23168" lon="5.43646">
        <ele>136</ele>
        <time>2014-11-16T15:31:11Z</time>
      </trkpt>
      <trkpt lat="43.23177" lon="5.43638">
        <ele>136</ele>
        <time>2014-11-16T15:31:20Z</time>
      </trkpt>
      <trkpt lat="43.23181" lon="5.43634">
        <ele>133</ele>
        <time>2014-11-16T15:31:31Z</time>
      </trkpt>
      <trkpt lat="43.23182" lon="5.43633">
        <ele>131</ele>
        <time>2014-11-16T15:31:43Z</time>
      </trkpt>
      <trkpt lat="43.23183" lon="5.43632">
        <ele>131</ele>
        <time>2014-11-16T15:31:54Z</time>
      </trkpt>
    </trkseg>
  </trk>
</gpx>